[[{"header":{"parameterUnit":"m.s-1","parameterCategory":1,"la1":30.6,"la2":29.2853,"lo1":-89.7004,"lo2":-87.6739,"dy":0.0162,"dx":0.0183,"nx":112,"ny":82,"refTime":"2026-02-23T12:00:00:Z","depth":0,"parameterNumber":2,"parameterNumberName":"U-component_of_WINDS"},"data":[0.0,0.0,0.0,0.0,0.0,0.0,0.0,0.0,0.0,0.0,0.0,0.0,0.0,0.0,0.0,0.0,0.0,0.0,0.0,0.0,0.0,0.0,0.0,0.0,0.0,0.0,0.0,0.0,0.0,0.0,0.0,0.0,0.0,0.0,0.0,0.0,0.0,0.0,0.0,0.0,0.0,0.0,0.0,0.0,0.0,0.0,0.0,0.0,0.0,0.0,0.0,0.0,0.0,0.0,0.0,0.0,0.0,0.0,0.0,0.0,0.0,0.0,0.0,0.0,0.0,0.0,0.0,0.0,0.0,0.0,0.0,0.0,0.0,0.0,0.0,0.0,0.0,0.0,0.0,0.0,0.0,0.0,0.0,0.0,0.0,0.0,0.0,0.0,0.0,0.0,0.0,0.0,1.5084,1.5843,1.5396,1.5283,1.426,1.1946,0.0,0.0,0.0,0.0,0.0,0.0,0.0,0.0,0.0,0.0,0.0,0.0,0.0,0.0,0.0,0.0,0.0,0.0,0.0,0.0,0.0,0.0,0.0,0.0,0.0,0.0,0.0,0.0,0.0,0.0,0.0,0.0,0.0,0.0,0.0,0.0,0.0,0.0,0.0,0.0,0.0,0.0,0.0,0.0,0.0,0.0,0.0,0.0,0.0,0.0,0.0,0.0,0.0,0.0,0.0,0.0,0.0,0.0,0.0,0.0,0.0,0.0,0.0,0.0,0.0,0.0,0.0,0.0,0.0,0.0,0.0,0.0,0.0,0.0,0.0,0.0,0.0,0.0,0.0,0.0,0.0,0.0,0.0,0.0,0.0,0.0,0.0,0.0,0.0,0.0,0.0,0.0,0.0,0.0,0.0,0.0,0.0,0.0,0.0,0.0,0.0,0.0,0.0,0.0,1.2607,1.4921,1.553,1.5728,1.5652,1.5226,1.4197,1.2416,0.0,0.0,0.0,0.0,0.0,0.0,0.0,0.0,0.0,0.0,0.0,0.0,0.0,0.0,0.0,0.0,0.0,0.0,0.0,0.0,0.0,0.0,0.0,0.0,0.0,0.0,0.0,0.0,0.0,0.0,0.0,0.0,0.0,0.0,0.0,0.0,0.0,0.0,0.0,0.0,0.0,0.0,0.0,0.0,0.0,0.0,0.0,0.0,0.0,0.0,0.0,0.0,0.0,0.0,0.0,0.0,0.0,0.0,0.0,0.0,0.0,0.0,0.0,0.0,0.0,0.0,0.0,0.0,0.0,0.0,0.0,0.0,0.0,0.0,0.0,0.0,0.0,0.0,0.0,0.0,0.0,0.0,0.0,0.0,0.0,0.0,0.0,0.0,0.0,0.0,0.0,0.0,0.0,0.0,0.0,0.0,0.0,0.0,0.0,0.0,0.0,0.0,0.0,1.3014,1.3712,1.5437,1.5929,1.6019,1.5718,1.5211,1.418,1.2509,1.1114,0.0,0.0,0.0,0.0,0.0,0.0,0.0,0.0,0.0,0.0,0.0,0.0,0.0,0.0,0.0,0.0,0.0,0.0,0.0,0.0,0.0,0.0,0.0,0.0,0.0,0.0,0.0,0.0,0.0,0.0,0.0,0.0,0.0,0.0,0.0,0.0,0.0,0.0,0.0,0.0,0.0,0.0,0.0,0.0,0.0,0.0,0.0,0.0,0.0,0.0,0.0,0.0,0.0,0.0,0.0,0.0,0.0,0.0,0.0,0.0,0.0,0.0,0.0,0.0,0.0,0.0,0.0,0.0,0.0,0.0,0.0,0.0,0.0,0.0,0.0,0.0,0.0,0.0,0.0,0.0,0.0,0.0,0.0,0.0,0.0,0.0,0.0,0.0,0.0,0.0,0.0,0.0,0.0,0.0,0.0,0.0,0.0,0.0,0.0,0.0,0.0,0.0,1.4065,1.4814,1.5613,1.6172,1.6335,1.5919,1.516,1.4104,1.2676,1.0784,0.0,0.0,0.0,0.0,0.0,0.0,0.0,0.0,0.0,0.0,0.0,0.0,0.0,0.0,0.0,0.0,0.0,0.0,0.0,0.0,0.0,0.0,0.0,0.0,0.0,0.0,0.0,0.0,0.0,0.0,0.0,0.0,0.0,0.0,0.0,0.0,0.0,0.0,0.0,0.0,0.0,0.0,0.0,0.0,0.0,0.0,0.0,0.0,0.0,0.0,0.0,0.0,0.0,0.0,0.0,0.0,0.0,0.0,0.0,0.0,0.0,0.0,0.0,0.0,0.0,0.0,0.0,0.0,0.0,0.0,0.0,0.0,0.0,0.0,0.0,0.0,0.0,0.0,0.0,0.0,0.0,0.0,0.0,0.0,0.0,0.0,0.0,0.0,0.0,0.0,0.0,0.0,0.0,0.0,0.0,0.0,0.0,0.0,0.0,0.0,0.0,0.0,1.4274,1.5484,1.5679,1.6172,1.6475,1.6448,1.5044,1.3862,1.3194,1.0634,0.0,0.0,0.0,0.0,0.0,0.0,0.0,0.0,0.0,0.0,0.0,0.0,0.0,0.0,0.0,0.0,0.0,0.0,0.0,0.0,0.0,0.0,0.0,0.0,0.0,0.0,0.0,0.0,0.0,0.0,0.0,0.0,0.0,0.0,0.0,0.0,0.0,0.0,0.0,0.0,0.0,0.0,0.0,0.0,0.0,0.0,0.0,0.0,0.0,0.0,0.0,0.0,0.0,0.0,0.0,0.0,0.0,0.0,0.0,0.0,0.0,0.0,0.0,0.0,0.0,0.0,0.0,0.0,0.0,0.0,0.0,0.0,0.0,0.0,0.0,0.0,0.0,0.0,0.0,0.0,0.0,0.0,0.0,0.0,0.0,0.0,0.0,0.0,0.0,0.0,0.0,0.0,0.0,0.0,0.0,0.0,0.0,0.0,0.0,0.0,0.0,0.0,1.4353,1.5224,0.0,1.6385,1.65,1.65,1.5326,1.4205,1.3257,0.0,0.0,0.0,0.0,0.0,0.0,0.0,0.0,0.0,0.0,0.0,0.0,0.0,0.0,0.0,0.0,0.0,0.0,0.0,0.0,0.0,0.0,0.0,0.0,0.0,0.0,0.0,0.0,0.0,0.0,0.0,0.0,0.0,0.0,0.0,0.0,0.0,0.0,0.0,0.0,0.0,0.0,0.0,0.0,0.0,0.0,0.0,0.0,0.0,0.0,0.0,0.0,0.0,0.0,0.0,0.0,0.0,0.0,0.0,0.0,0.0,0.0,0.0,0.0,0.0,0.0,0.0,0.0,0.0,0.0,0.0,0.0,0.0,0.0,0.0,0.0,0.0,0.0,0.0,0.0,0.0,0.0,0.0,0.0,0.0,0.0,0.0,0.0,0.0,0.0,0.0,0.0,0.0,0.0,0.0,0.0,0.0,0.0,0.0,0.0,0.0,0.0,1.3913,1.4454,1.5038,0.0,1.6247,1.6172,1.6007,1.499,1.3961,1.3006,0.0,0.0,0.0,0.0,0.0,0.0,0.0,0.0,0.0,0.0,0.0,0.0,0.0,0.0,0.0,0.0,0.0,0.0,0.0,0.0,0.0,0.0,0.0,0.0,0.0,0.0,0.0,0.0,0.0,0.0,0.0,0.0,0.0,0.0,0.0,0.0,0.0,0.0,0.0,0.0,0.0,0.0,0.0,0.0,0.0,0.0,0.0,0.0,0.0,0.0,0.0,0.0,0.0,0.0,0.0,0.0,0.0,0.0,0.0,0.0,0.0,0.0,0.0,0.0,0.0,0.0,0.0,0.0,0.0,0.0,0.0,0.0,0.0,0.0,0.0,0.0,0.0,0.0,0.0,0.0,0.0,0.0,0.0,0.0,0.0,0.0,0.0,0.0,0.0,0.0,0.0,0.0,0.0,0.0,0.0,0.0,0.0,0.0,0.0,0.0,0.0,0.0,1.392,1.4607,1.5097,1.563,1.568,1.5477,1.4956,1.3864,1.2981,0.0,0.0,0.0,0.0,0.0,0.0,0.0,0.0,0.0,0.0,0.0,0.0,0.0,0.0,0.0,0.0,0.0,0.0,0.0,0.0,0.0,0.0,0.0,0.0,0.0,0.0,0.0,0.0,0.0,0.0,0.0,0.0,0.0,0.0,0.0,0.0,0.0,0.0,0.0,0.0,0.0,0.0,0.0,0.0,0.0,0.0,0.0,0.0,0.0,0.0,0.0,0.0,0.0,0.0,0.0,0.0,0.0,0.0,0.0,0.0,0.0,0.0,0.0,0.0,0.0,0.0,0.0,0.0,0.0,0.0,0.0,0.0,0.0,0.0,0.0,0.0,0.0,0.0,0.0,0.0,0.0,0.0,0.0,0.0,0.0,0.0,0.0,0.0,0.0,0.0,0.0,0.0,0.0,0.0,0.0,0.0,0.0,0.0,0.0,0.0,0.0,0.0,0.0,0.0,1.4046,1.4538,1.5082,1.5145,1.5069,1.4909,1.4252,1.3417,1.2458,0.0,0.0,0.0,0.0,0.0,0.0,0.0,0.0,0.0,0.0,0.0,0.0,0.0,0.0,0.0,0.0,0.0,0.0,0.0,0.0,0.0,0.0,0.0,0.0,0.0,0.0,0.0,0.0,0.0,0.0,0.0,0.0,0.0,0.0,0.0,0.0,0.0,0.0,0.0,0.0,0.0,0.0,0.0,0.0,0.0,0.0,0.0,0.0,0.0,0.0,0.0,0.0,0.0,0.0,0.0,0.0,0.0,0.0,0.0,0.0,0.0,0.0,0.0,0.0,0.0,0.0,0.0,0.0,0.0,0.0,0.0,0.0,0.0,0.0,0.0,0.0,0.0,0.0,0.0,0.0,0.0,0.0,0.0,0.0,0.0,0.0,0.0,0.0,0.0,0.0,0.0,0.0,0.0,0.0,0.0,0.0,0.0,0.0,0.0,0.0,0.0,0.0,1.3194,1.3808,1.4308,1.4843,1.4714,1.4576,1.4576,1.4054,1.3266,1.2153,0.0,0.0,0.0,0.0,0.0,0.0,0.0,0.0,0.0,0.0,0.0,0.0,0.0,0.0,0.0,0.0,0.0,0.0,0.0,0.0,0.0,0.0,0.0,0.0,0.0,0.0,0.0,0.0,0.0,0.0,0.0,0.0,0.0,0.0,0.0,0.0,0.0,0.0,0.0,0.0,0.0,0.0,0.0,0.0,0.0,0.0,0.0,0.0,0.0,0.0,0.0,0.0,0.0,0.0,0.0,0.0,0.0,0.0,0.0,0.0,0.0,0.0,0.0,0.0,0.0,0.0,0.0,0.0,0.0,0.0,0.0,0.0,0.0,0.0,0.0,0.0,0.0,0.0,0.0,0.0,0.0,0.0,0.0,0.0,0.0,0.0,0.0,0.0,0.0,0.0,0.0,0.0,0.0,0.0,0.0,0.0,0.0,0.0,0.0,0.0,0.0,0.0,1.3075,1.3752,1.4283,1.4768,1.4425,1.4144,1.4094,1.3647,1.2877,1.1746,0.0,0.0,0.0,0.0,0.0,0.0,0.0,0.0,0.0,0.0,0.0,0.0,0.0,0.0,0.0,0.0,0.0,0.0,0.0,0.0,0.0,0.0,0.0,0.0,0.0,0.0,0.0,0.0,0.0,0.0,0.0,0.0,0.0,0.0,0.0,0.0,0.0,0.0,0.0,0.0,0.0,0.0,0.0,0.0,0.0,0.0,0.0,0.0,0.0,0.0,0.0,0.0,0.0,0.0,0.0,0.0,0.0,0.0,0.0,0.0,0.9722,0.0,0.0,0.0,0.0,0.0,0.0,0.0,0.0,0.0,0.0,0.0,0.0,0.0,0.0,0.0,0.0,0.0,0.0,0.0,0.0,0.0,0.0,0.0,0.0,0.0,0.0,0.0,0.0,0.0,0.0,0.0,0.0,0.0,0.0,0.0,0.0,0.0,0.0,0.0,0.0,0.0,1.2205,1.3356,1.4132,1.4258,1.4551,1.4563,1.4141,1.4365,1.3882,1.2328,0.0,0.0,0.0,0.0,0.0,0.0,0.0,0.0,0.0,0.0,0.0,0.0,0.0,0.0,0.0,0.0,0.0,0.0,0.0,0.0,0.0,0.0,0.0,0.0,0.0,0.0,0.0,0.0,0.0,0.0,0.0,0.0,0.0,0.0,0.0,0.0,0.0,0.0,0.0,0.0,0.0,0.0,0.0,0.0,0.0,0.0,0.0,0.0,0.0,0.0,0.0,0.0,0.0,0.0,0.0,0.0,0.0,0.0,0.0,0.0,0.0,1.0684,0.0,0.0,0.0,0.0,0.0,0.0,0.0,0.0,0.0,0.0,0.0,0.0,0.0,0.0,0.0,0.0,0.0,0.0,0.0,0.0,0.0,0.0,0.0,0.0,0.0,0.0,0.0,0.0,0.0,0.0,0.0,0.0,0.0,0.0,0.0,0.0,0.0,0.0,0.0,0.0,1.2699,1.3565,1.4296,1.4805,1.4881,1.4893,1.4868,1.4651,1.4139,1.3275,1.2288,0.0,0.0,0.0,0.0,0.0,0.0,0.0,0.0,0.0,0.0,0.0,0.0,0.0,0.0,0.0,0.0,0.0,0.0,0.0,0.0,0.0,0.0,0.0,0.0,0.0,0.0,0.0,0.0,0.0,0.0,0.0,0.0,0.0,0.0,0.0,0.0,0.0,0.0,0.0,0.0,0.0,0.0,0.0,0.0,0.0,0.0,0.0,0.0,0.0,0.0,0.0,0.0,0.0,0.0,0.0,1.3891,1.3352,1.3454,1.4003,1.3267,1.279,1.2481,0.0,0.0,0.0,0.0,0.0,0.0,0.0,0.0,0.0,0.0,0.0,0.0,0.0,0.0,0.0,0.0,0.0,0.0,0.0,0.0,0.0,0.0,0.0,0.0,0.0,1.6754,1.6246,0.0,0.0,0.0,0.0,0.0,0.0,0.0,0.0,0.0,0.0,0.0,0.0,1.3607,1.4041,1.4614,1.5603,1.5399,1.5314,1.5678,1.4893,1.4346,1.4245,1.3004,1.2304,0.0,0.0,0.0,0.0,0.0,0.0,0.0,0.0,0.0,0.0,0.0,0.0,0.0,0.0,0.0,0.0,0.0,0.0,0.0,0.0,0.0,0.0,0.0,0.0,0.0,0.0,0.0,0.0,0.0,0.0,0.0,0.0,0.7326,0.7531,0.0,0.0,0.0,0.0,0.0,0.0,0.0,0.0,0.0,0.0,0.0,0.0,0.0,0.0,1.2872,1.3932,1.4274,1.3892,1.5216,1.5462,1.4762,1.5588,1.5776,1.5449,1.579,0.0,1.3112,1.3283,0.0,0.0,0.0,0.0,0.0,0.0,0.0,0.0,0.0,0.0,0.0,0.0,0.0,0.0,0.0,0.0,0.0,0.0,0.0,0.0,0.0,0.0,1.7669,1.7574,1.7769,1.7889,0.0,1.6204,1.5103,1.531,0.0,0.0,0.0,0.0,0.0,0.0,0.0,0.0,1.3922,1.4478,1.5032,1.564,1.6047,1.6122,1.5731,1.5578,1.5299,1.4818,1.4175,1.3913,1.4146,1.2904,0.0,0.0,0.0,0.0,0.0,0.0,0.0,0.0,0.0,0.0,0.0,0.0,0.0,0.0,0.0,0.0,0.0,0.0,0.0,0.0,0.0,0.0,0.0,0.0,0.0,0.0,0.0,0.0,0.0,0.7091,0.7513,0.8028,0.7961,0.7888,0.0,0.0,0.0,0.0,0.0,0.0,0.0,0.0,0.0,1.2977,1.3819,1.4503,1.5048,1.6183,1.6633,1.6417,1.7124,1.7212,1.6771,1.7239,1.7338,1.7124,1.7351,1.6912,1.5942,1.5023,1.4245,1.3632,0.0,0.0,0.0,0.0,0.0,1.4824,1.6201,0.0,0.0,0.0,0.0,0.0,0.0,0.0,0.0,0.0,0.0,0.0,0.0,0.0,0.0,1.8775,1.8944,1.91,1.9326,1.8341,1.7352,0.0,1.7131,1.6688,1.5473,0.0,0.0,0.0,0.0,0.0,1.4923,1.5198,1.5552,1.6084,1.636,1.64,1.6172,1.5869,1.5603,1.5351,1.4843,1.4607,1.4725,1.4028,1.336,0.0,0.0,0.0,0.0,0.0,0.0,0.0,0.0,0.0,0.0,0.0,0.0,0.0,0.0,0.0,0.0,0.0,0.0,0.0,0.0,0.0,0.0,0.0,0.0,0.0,0.0,0.0,0.0,0.7582,0.0,0.8597,0.8851,0.8946,0.0,0.0,0.0,0.0,0.0,0.0,1.2789,1.3232,1.3835,1.468,1.5766,1.6534,1.6926,1.779,1.8204,1.8204,1.8204,1.8204,1.8204,1.8204,1.8204,1.8204,1.8204,1.8204,1.8065,1.6378,1.5488,1.5186,1.5144,1.5184,0.0,1.6435,1.6522,1.637,1.7992,1.8193,1.7703,1.7369,0.0,1.6842,1.5681,0.0,0.0,0.0,0.0,1.7769,1.8363,0.0,1.9076,1.9579,1.9708,1.9782,2.0072,1.9793,1.9334,0.0,1.912,1.8953,1.7368,0.0,0.0,0.0,0.0,1.5649,1.5868,1.5781,1.5906,1.6437,1.65,1.65,1.65,1.6019,1.5766,1.5906,1.5264,1.5019,1.5299,1.4949,1.4541,0.0,0.0,0.0,0.0,0.0,0.0,0.0,0.0,0.0,0.0,0.0,0.0,0.0,0.0,0.0,0.0,0.0,0.0,0.0,0.0,0.0,0.0,0.0,0.0,0.0,0.0,0.0,0.0,0.0,0.0,0.9385,1.0062,0.0,0.0,0.0,0.0,1.2246,1.3296,1.3943,1.4006,1.5454,1.6323,1.6385,1.7477,1.8091,1.8104,1.8167,1.8204,1.8204,1.8204,1.8204,1.8204,1.8204,1.8204,1.8204,1.8204,1.8204,1.8116,1.6923,1.6697,1.6961,1.5886,1.5702,1.6131,1.6826,1.7056,1.7148,1.7888,1.8026,1.7991,1.8589,1.8439,1.8137,1.8753,1.8259,0.0,0.0,1.9047,1.9172,1.9529,1.9627,1.9654,1.9693,1.9708,1.9717,1.9735,1.9995,2.0167,0.0,1.9284,1.8805,1.8702,0.0,0.0,1.7526,1.6774,1.6301,1.6437,1.6019,1.5906,1.6437,1.65,1.65,1.65,1.6019,1.5919,1.6436,1.5477,1.5361,1.6385,1.5805,1.5619,1.5968,1.4592,0.0,0.0,0.0,0.0,0.0,0.0,0.0,0.0,0.0,0.0,0.0,0.0,0.0,0.0,0.0,0.0,0.0,0.0,0.0,0.0,0.0,0.0,0.0,0.0,0.0,0.0,0.0,0.0,1.1255,1.1936,0.0,0.0,1.2939,1.3534,1.3982,1.5025,1.5804,1.6202,1.7087,1.759,1.759,1.8154,1.8462,1.8462,1.9138,1.9501,1.9489,2.0062,2.0313,2.0313,2.0313,2.0138,1.9799,1.9799,1.9585,1.9171,1.8418,1.7997,1.7847,1.7774,1.784,1.8043,1.8623,1.8841,1.8868,1.9106,1.9421,1.981,2.048,2.0566,2.0469,2.0729,2.054,2.0314,2.0706,2.0814,2.0847,2.0964,2.0986,2.0986,2.0986,2.0986,2.0986,2.0986,2.0764,2.0664,2.0999,2.0357,1.9528,1.8805,1.8663,1.8223,1.6945,1.6876,1.684,1.6534,1.6335,1.6446,1.7022,1.6724,1.6661,1.7049,1.6559,1.6147,1.5984,1.5628,1.559,1.5969,1.5767,1.5824,1.6214,1.5651,1.4438,0.0,0.0,0.0,0.0,0.0,0.0,0.0,0.0,0.0,0.0,0.0,0.0,0.0,0.0,0.0,0.0,0.0,0.0,0.0,0.0,0.0,0.0,0.0,0.0,0.0,0.0,1.1452,1.2578,1.3394,1.3915,1.4034,1.4748,1.5332,1.5617,1.6297,1.6772,1.6917,1.7448,1.7798,1.7954,1.8298,1.8566,1.87,1.9697,2.0197,2.0212,2.1077,2.1507,2.1507,2.1507,2.1306,2.0968,2.0968,2.0741,2.0338,1.9986,1.9635,1.9271,1.8884,1.8727,1.8773,1.9137,1.9259,1.9315,1.9702,2.0099,2.0566,2.141,2.1695,2.1665,2.1435,2.136,2.1319,2.1116,2.1064,2.1105,2.1309,2.136,2.141,2.1655,2.1695,2.1645,2.14,2.101,2.0764,2.1008,2.0536,1.9927,1.9394,1.9253,1.8751,1.7412,1.7594,1.7683,1.7142,1.7075,1.7237,1.7625,1.7313,1.7162,1.7374,1.7024,1.6572,1.6007,1.5806,1.5781,1.5969,1.5793,1.6071,1.689,1.6504,1.5515,1.3937,0.0,0.0,0.0,0.0,0.0,0.0,0.0,0.0,0.0,0.0,0.0,0.0,0.0,0.0,0.0,0.0,0.0,0.0,0.0,0.0,0.0,0.0,0.0,1.1761,1.1895,1.2353,1.329,1.4369,1.5235,1.5696,1.6717,1.7279,1.7085,1.7083,1.6787,1.6084,1.6564,1.7066,1.754,1.8043,1.8492,1.8888,1.977,2.0216,2.0216,2.1112,2.1557,2.1557,2.1557,2.1545,2.152,2.152,2.152,2.1507,2.1507,2.1507,2.1294,1.9145,1.8304,1.8304,1.8304,1.828,1.8431,1.9577,1.9956,2.0165,2.1368,2.1754,2.161,2.0965,2.0749,2.0602,2.002,1.9869,1.9998,2.0571,2.0749,2.0934,2.1589,2.1734,2.1544,2.0899,2.0735,2.0546,1.9976,1.9761,1.9902,2.054,2.0166,1.9594,1.9057,1.8978,0.0,1.8275,1.8204,1.8216,1.8217,1.8216,1.799,1.7462,1.741,1.7148,1.6549,1.6007,1.5944,1.6486,1.5992,1.6481,1.8088,1.7191,1.642,1.5829,0.0,0.0,0.0,0.0,0.0,0.0,0.0,0.0,0.0,0.0,0.0,0.0,0.0,0.0,0.0,0.0,0.0,0.0,0.0,0.0,0.0,0.0,1.281,1.3299,1.3825,1.4494,1.5444,1.5779,1.6146,1.6666,1.6513,1.6355,1.6305,1.6657,1.6941,1.7084,1.759,1.808,1.85,1.8466,1.851,1.8606,1.9856,2.0489,2.0516,2.1964,2.2671,2.2671,2.2671,2.2445,2.2069,2.2069,2.1857,2.1507,2.1507,2.1507,2.1444,2.0841,2.0589,2.0589,2.0589,2.0351,2.013,2.0931,2.1213,2.1406,2.2679,2.2783,2.2389,2.2209,2.1809,2.1384,2.1213,2.1178,2.1213,2.1372,2.1787,2.2198,2.2378,2.2436,2.2378,2.2198,2.1413,2.0851,2.1119,2.0413,1.9712,1.9499,1.9326,1.9035,1.8496,0.0,0.0,1.8216,1.8204,1.8343,1.8744,1.843,1.8141,1.799,1.7625,0.0,0.0,1.6007,1.5944,1.6486,1.6358,1.703,1.8646,1.7473,1.672,0.0,0.0,0.0,0.0,0.0,0.0,0.0,0.0,0.0,0.0,0.0,0.0,0.0,0.0,0.0,0.0,0.0,0.0,0.0,0.0,0.0,0.0,1.3468,1.4129,1.4487,1.4663,1.512,1.6111,1.619,1.6397,1.6918,1.6583,1.6374,1.6496,1.6792,1.7033,1.7153,1.7467,1.7826,1.8249,1.8125,1.8119,1.8285,1.9819,2.0606,2.0623,2.2295,2.3108,2.3108,2.3108,2.2932,0.0,2.2646,2.2458,2.2169,2.2169,2.2169,0.0,0.0,0.0,0.0,0.0,2.1294,2.113,2.1767,2.1988,2.2163,2.3172,2.3269,2.2937,2.267,2.2313,2.1938,2.1685,2.1622,2.1619,2.164,2.1941,2.2247,2.2263,2.2276,2.2207,2.1964,2.1323,2.0818,2.0886,0.0,0.0,1.9381,1.9342,1.9221,1.8918,1.8882,1.8882,0.0,1.8882,1.8982,1.9296,1.9058,1.8781,1.8556,1.8041,0.0,0.0,0.0,1.6275,1.6814,0.0,0.0,0.0,0.0,0.0,0.0,0.0,0.0,0.0,1.7307,1.7216,0.0,0.0,0.0,0.0,0.0,0.0,0.0,0.0,0.0,0.0,0.0,0.0,0.0,0.0,0.0,0.0,1.4749,1.5303,1.5346,1.4822,1.4856,1.5958,1.6026,1.6197,1.6791,1.6768,1.6848,1.713,1.7147,1.7037,0.0,0.0,0.0,0.0,0.0,1.7687,1.8134,1.9792,2.0655,2.0767,2.2356,2.3108,2.3108,2.3108,2.3108,2.3108,2.3108,2.3108,2.3108,2.3108,2.3108,2.3007,2.2058,2.1681,2.1669,2.1606,2.1595,0.0,0.0,0.0,0.0,2.3172,2.3341,2.3172,2.2591,2.2349,2.2186,2.1648,2.1507,2.1506,2.1563,2.1642,2.1703,2.1764,2.1772,2.1629,2.1106,2.0918,2.0705,2.0103,1.9999,1.9999,1.9999,1.9886,1.9798,1.9798,1.9798,0.0,1.9798,1.9798,1.9798,1.9798,0.0,0.0,1.9045,1.8568,1.8066,1.7525,1.7052,1.7027,1.7569,1.8108,1.8669,1.9204,1.9673,1.9932,1.9932,2.0275,2.103,2.2038,1.8496,1.816,0.0,0.0,0.0,0.0,0.0,0.0,0.0,0.0,0.0,0.0,0.0,0.0,0.0,0.0,0.0,1.4439,1.455,1.4832,1.5534,1.5097,1.5199,1.6499,1.6124,1.6114,1.7029,1.6575,1.6392,1.6765,1.6805,1.693,1.7253,1.7256,0.0,1.7871,1.7874,1.8264,1.9044,2.0074,2.0942,2.1659,0.0,0.0,2.3108,2.3108,2.3108,2.3108,2.3108,2.3108,2.3108,2.3108,2.3108,2.3083,2.2869,2.2782,2.2732,2.2307,2.2159,2.2169,2.2328,2.2403,2.2511,2.3172,2.3041,2.2578,2.2443,2.2063,0.0,2.1522,2.1507,2.1497,2.1521,2.1882,2.2246,2.226,2.226,2.2234,2.2115,2.1713,2.1332,2.1208,2.1168,2.1168,2.1168,2.0413,1.9798,1.9798,1.9798,1.9798,1.9798,1.9798,1.9798,1.9798,1.9798,1.9585,1.9045,1.8907,1.8619,1.8078,1.8396,1.8842,1.9374,2.0016,2.06,2.1144,2.1267,2.1315,2.1315,2.1388,2.1721,2.2244,2.169,2.2217,0.0,0.0,0.0,0.0,0.0,0.0,0.0,0.0,0.0,0.0,0.0,1.3228,0.0,0.0,1.482,1.454,1.4818,1.5098,1.5232,1.5158,1.5344,1.6015,1.576,1.5846,1.6582,1.6312,1.6353,1.7002,1.7061,1.7246,1.7676,1.7695,1.7793,1.7991,1.8411,1.8861,1.9299,2.0606,2.1475,2.192,2.3016,2.3399,2.3108,2.3409,2.3399,2.3108,2.3108,2.3108,2.3108,2.3108,2.3283,2.3524,2.3221,2.3108,2.307,2.2794,2.2694,2.2715,2.2746,2.2758,2.2815,2.3143,2.3016,2.2758,2.2758,2.2542,2.2295,2.2295,2.2295,2.2232,2.197,2.2123,2.2272,2.2004,2.1953,2.1953,2.1953,2.1704,2.1507,2.1507,2.1507,2.1507,2.1507,2.103,2.0639,2.0639,2.0639,2.0539,2.0276,2.0251,2.0138,1.9836,1.9798,1.9685,1.9422,1.9146,1.8891,1.8672,1.8927,1.9498,2.0359,2.0724,2.1146,2.1695,2.1695,2.1695,2.1695,2.1695,2.2263,2.3353,2.3492,2.3619,0.0,0.0,0.0,0.0,0.0,0.0,0.0,0.0,1.2265,1.2727,1.3376,1.3977,1.4343,1.4851,1.5081,1.4716,1.5139,1.5378,1.4977,1.5205,1.5396,1.5396,1.5396,1.5615,1.6158,1.6222,1.6578,1.7458,1.7516,1.7656,1.7971,1.7991,1.7991,1.7991,1.8762,1.9335,1.969,2.1181,2.2096,2.2481,2.3616,2.3901,2.3446,2.3926,2.3825,2.3271,2.3271,2.3333,2.3434,2.3434,2.3725,2.4117,2.3609,2.3434,2.3409,2.3183,2.3108,2.3108,2.3108,2.3108,2.3108,2.3108,2.3108,2.3108,2.3108,2.3108,2.3108,2.3108,2.3108,2.3007,2.2571,2.2458,2.2345,2.192,2.1807,2.1807,2.1807,2.1807,2.1807,2.1807,2.1807,2.1807,2.1807,2.1807,2.1732,2.1532,2.1507,2.1344,2.0905,2.0868,2.0679,2.0175,2.0125,2.0125,2.0125,1.9635,1.9456,1.975,1.9674,2.0215,2.1585,2.1623,2.188,2.2447,2.2458,2.2458,2.2458,2.2458,2.3206,2.4625,2.4625,2.434,1.0452,0.0,0.0,1.0499,1.1217,1.2252,0.0,0.0,1.4698,1.4404,1.4799,1.5032,1.4574,1.4498,1.4735,1.5432,1.5191,1.4997,1.5293,1.5366,1.5396,1.5396,1.5396,1.5727,1.6541,1.6629,1.6996,1.7881,1.7922,1.7942,1.7991,1.7991,1.7991,1.7991,1.8438,1.949,2.1141,2.1717,2.2829,2.4487,2.463,2.4678,2.46,2.4678,2.4402,2.3904,2.3904,2.4164,2.46,2.46,2.4653,2.4704,2.4641,2.46,2.449,2.3471,2.3108,2.3108,2.3108,2.3108,2.3108,2.3108,2.3108,2.3108,2.3108,2.3108,2.3108,2.3108,2.3108,2.3095,2.3032,2.3007,2.2995,2.2932,2.292,2.292,2.292,2.292,2.292,2.292,2.292,2.292,2.292,2.292,2.2608,2.1631,2.1507,2.1482,2.1419,2.1407,2.1382,2.1319,2.1319,2.1319,2.1319,2.083,2.0999,2.2141,2.1709,2.2275,2.4204,2.4218,2.4488,2.5139,2.5154,2.5154,2.5154,2.5154,2.5264,2.5468,2.5468,2.5928,1.3007,0.0,0.0,0.0,1.293,1.3795,1.4254,1.4673,1.4917,1.475,1.4865,1.4878,1.4505,1.4632,1.4894,0.0,1.515,1.5215,1.5376,1.5396,1.5396,1.5396,1.5396,1.5747,1.6619,1.6697,1.7058,1.7932,1.7991,1.7991,1.7991,1.7991,1.7991,1.7991,1.9445,2.0599,2.1396,2.2881,2.4022,2.4804,2.5118,2.5093,2.4816,2.5118,2.4967,2.4465,2.4465,2.4766,2.5231,2.4929,2.498,2.5231,2.4929,2.4804,2.4741,2.4277,2.4086,2.4086,2.4086,2.4086,2.4086,2.4086,2.4086,2.4086,2.4086,2.4086,2.4086,2.4086,2.3863,2.37,2.4014,2.3597,2.3195,2.3537,2.3361,2.3108,2.3108,2.3108,2.3108,2.3108,2.3108,2.3108,2.3108,2.3108,2.2945,2.2508,2.2433,2.232,2.2008,2.197,2.1845,2.1532,2.1507,2.1507,2.1507,2.1693,2.2194,2.312,2.3353,2.3983,2.5177,2.5191,2.5319,2.5588,2.5603,2.5603,2.5603,2.5603,2.5809,2.6183,2.6183,2.6626,1.4218,0.0,0.0,1.3559,1.4175,1.4775,1.4379,1.4533,1.473,1.4567,1.4485,1.4389,1.4192,1.4515,0.0,1.479,1.5137,1.5396,1.5396,1.5396,1.5396,1.5396,1.5396,1.5698,1.6459,1.6629,1.7058,1.7932,1.7991,1.7991,1.7991,1.7991,1.8176,1.8574,2.0313,2.1554,2.2193,2.3976,2.4996,2.5272,2.5649,2.5636,2.5285,2.5498,2.5473,2.5259,2.5093,2.5335,2.5816,2.5423,2.5498,2.5816,2.5423,2.5272,2.5272,2.5272,2.5067,2.4804,2.4804,2.4804,2.4804,2.4804,2.4804,2.4804,2.4804,2.4804,2.4804,2.4804,2.4515,2.4302,2.4704,2.4186,2.3672,2.413,2.3888,2.3572,2.3572,2.3572,2.3572,2.3572,2.3446,2.3346,2.3346,2.3208,2.3108,2.3108,2.3108,2.2957,2.2571,2.2521,2.237,2.1983,2.1945,2.2031,2.2245,2.2607,2.3272,2.4334,2.4583,2.5133,2.6099,2.5974,2.5959,2.6153,2.6153,2.6153,2.6153,2.6153,2.6393,2.6869,2.6869,2.7228,0.0,0.0,1.4103,1.4081,1.444,1.4806,1.4771,1.4738,1.4538,1.3947,1.3828,1.377,1.3557,1.3861,1.4277,1.4731,1.5137,1.5396,1.5396,1.5396,1.5396,1.5396,1.5396,1.5586,0.0,1.6475,1.7058,1.7932,1.7991,1.7991,1.7991,1.7991,1.8628,1.9983,2.0544,2.1912,2.4193,2.4736,2.548,2.6449,2.6461,2.6461,2.6424,2.5866,2.5904,2.6411,2.5829,2.5917,2.6461,2.6449,2.6449,2.6461,2.6449,2.6449,2.6449,2.6449,2.5753,2.4804,2.4804,2.4804,2.4804,2.4804,2.4804,2.4804,2.4804,2.4804,2.4804,2.4804,2.4791,2.4779,2.4804,2.4763,2.4754,2.4779,2.4766,2.4754,2.4754,2.4754,2.4754,2.4754,2.4343,2.3966,2.3966,2.3487,2.3108,2.3108,2.3108,2.3095,2.3083,2.3083,2.307,2.3058,2.3058,2.3374,2.4153,2.3698,2.4245,2.629,2.5322,2.5541,2.7455,2.6926,2.6869,2.7525,2.754,2.754,2.754,2.754,2.754,2.757,2.757,2.7931,0.0,0.0,1.456,1.456,1.4648,1.4732,1.4732,1.4415,1.405,1.3839,1.3469,1.3257,1.3466,1.361,1.3942,1.4682,1.4902,1.5098,1.5357,1.5396,1.5396,1.5396,1.5396,0.0,0.0,0.0,0.0,1.7546,1.7598,1.7715,1.7998,1.7991,1.8645,2.0056,2.115,2.2559,2.428,2.5423,2.6176,2.6499,2.6499,2.6499,2.6487,2.6298,2.6311,2.6487,2.6285,2.6311,2.6499,2.6499,2.6499,2.6499,2.6499,2.6499,2.6499,2.6499,2.626,2.5929,2.5929,2.5929,2.5929,2.5929,2.5929,2.5929,2.5929,2.5929,2.5929,2.5929,2.5636,2.5423,2.5829,2.5372,2.4892,2.5259,2.5055,2.4804,2.4804,2.4804,2.4804,2.4804,2.4653,2.4528,2.4528,2.4349,2.4224,2.4224,2.3584,2.3108,2.3108,2.3108,2.3108,2.3108,2.3108,2.3424,2.4234,2.455,2.5232,2.643,2.6572,2.6921,2.757,2.739,2.7375,2.76,2.76,2.76,2.76,2.76,2.7839,2.8248,2.8248,2.862,0.0,1.4672,1.4524,1.472,1.4575,1.4376,1.4376,1.3908,1.3469,1.3469,1.3176,1.2971,1.3232,1.3408,1.3727,1.4443,1.4687,1.4946,1.5337,1.5396,1.5396,1.5396,1.5547,0.0,0.0,0.0,0.0,1.735,1.7536,1.7725,1.7998,1.7991,1.8886,2.0786,2.1719,2.3132,2.5069,2.6029,2.6499,2.6499,2.6499,2.6499,2.6499,2.6499,2.6499,2.6499,2.6499,2.6499,2.6499,2.6499,2.6499,2.6499,2.6499,2.6499,2.6499,2.6499,2.6499,2.6499,2.6499,2.6499,2.6499,2.6499,2.6499,2.6499,2.6499,2.6499,2.6499,2.6499,2.6223,2.6005,2.6399,2.5954,2.5485,2.5841,2.5665,2.541,2.541,2.541,2.541,2.541,2.5231,2.508,2.508,2.4929,2.4804,2.4804,2.4173,2.3634,2.3461,2.3233,2.3108,2.3108,2.3365,2.384,2.4624,2.537,2.6122,2.6852,2.7331,2.76,2.76,2.76,2.76,2.76,2.76,2.76,2.76,2.7839,2.8186,2.8607,2.8846,2.9309,1.4755,1.4306,1.3972,1.4483,1.4121,1.3662,1.3686,1.3252,1.2856,1.2893,1.2905,1.2883,0.0,0.0,1.36,1.4007,1.4463,1.4902,1.5337,1.5396,1.5405,0.0,0.0,0.0,0.0,0.0,0.0,1.737,0.0,1.7988,1.7991,1.802,1.9302,2.211,2.2218,2.3604,2.6469,2.6499,2.6499,2.6499,2.6499,2.6499,2.6499,2.6499,2.6499,2.6499,2.6499,2.6499,2.6499,2.6499,2.6499,2.6499,2.6499,2.6499,2.6499,2.6499,2.6499,2.6499,2.6499,2.6499,2.6499,2.6499,2.6499,2.6499,2.6499,2.6499,2.6499,2.6499,2.6499,2.6499,2.6499,2.6499,2.6499,2.6499,2.6499,2.6499,2.6499,2.6499,2.6499,2.6499,2.603,2.5653,2.5653,2.5218,2.4892,2.4892,2.4867,2.4653,2.4117,2.3549,2.3183,2.3145,2.385,2.4635,2.5342,2.6082,2.6813,2.7547,2.76,2.76,2.76,2.763,2.7645,2.7645,2.7675,2.7705,2.7705,2.8336,2.8667,2.8712,2.9353,2.9982,1.4133,1.3613,1.3111,1.3246,1.2412,1.1706,1.2209,1.2193,1.2236,1.2786,1.2905,1.2795,0.0,0.0,0.0,1.3591,1.3997,0.0,1.5288,1.5396,0.0,0.0,0.0,1.6232,1.6518,1.6963,0.0,0.0,1.7497,1.7676,1.7971,1.8283,1.9602,2.2121,2.2539,2.3944,2.6487,2.6499,2.6499,2.6499,2.6499,2.6499,2.6499,2.6499,2.6499,2.6499,2.6499,2.6499,2.6499,2.6499,2.6499,2.6499,2.6499,2.6499,2.6499,2.6499,2.6499,2.6499,2.6499,2.6499,2.6499,2.6499,2.6499,2.6499,2.6499,2.6499,2.6499,2.6499,2.6499,2.6499,2.6499,2.6499,2.6499,2.6499,2.6499,2.6499,2.6499,2.6499,2.6499,2.6499,2.6373,2.6273,2.6273,2.6172,2.6067,2.6067,2.5674,2.5193,2.4666,2.4449,2.4214,2.38,2.4443,2.5019,2.537,2.6082,2.6813,2.7547,2.76,2.76,2.76,2.8081,2.8351,2.8351,2.883,2.9084,2.9084,2.9264,2.9578,3.0028,3.0193,3.0613,1.3428,1.2685,1.1923,1.1923,1.1362,1.0923,1.1415,1.1663,1.1896,1.2268,1.2473,0.0,0.0,0.0,0.0,0.0,0.0,0.0,1.5049,1.5278,1.5566,0.0,1.6271,0.0,1.6973,1.7412,1.7656,0.0,0.0,1.7764,1.7981,1.8373,1.9715,2.2121,2.2656,2.4056,2.6469,2.6499,2.6499,2.6499,2.6499,2.6499,2.6499,2.6499,2.6499,2.6499,0.0,2.6499,2.6499,2.6499,2.6499,2.6499,2.6499,2.6499,2.6524,2.6763,2.6851,2.6889,2.7123,2.7198,2.716,2.6939,2.6997,2.7148,2.6909,2.6851,2.6801,2.6562,2.6499,2.6499,2.6499,2.6499,2.6499,2.6499,2.6499,2.6499,2.6499,2.6499,2.6499,2.6499,2.6499,2.6499,2.6499,2.6499,2.6499,2.6499,2.6223,2.5891,2.5573,2.5105,2.4839,2.4905,2.5578,2.6223,2.668,2.7426,2.8048,2.8442,2.8483,2.8483,2.8483,2.8845,2.9039,2.9039,2.9413,2.9593,2.9593,2.9877,3.0163,3.0507,3.0792,3.1137,1.2522,1.1623,1.0669,1.0669,1.0669,1.0743,1.107,1.1438,1.171,1.1696,0.0,0.0,0.0,0.0,1.235,1.2825,0.0,1.426,1.4727,1.5146,1.5596,1.6124,1.6479,1.6908,1.7438,1.7793,1.7991,1.7991,1.7991,1.7991,1.7991,1.8449,1.981,2.2289,2.3026,2.4372,2.6469,2.6499,2.6499,2.6499,2.6499,2.6499,2.6499,2.6499,2.6499,2.6499,0.0,0.0,2.6499,2.6499,2.6499,2.6499,2.6499,2.6499,2.6562,2.7097,2.7298,2.7386,2.7908,2.816,2.8122,2.7587,2.772,2.7996,2.7462,2.7349,2.7286,2.6763,2.6663,2.6713,2.6713,2.6713,2.6713,2.6713,2.6713,2.6713,2.6713,2.6713,2.6688,2.6612,2.66,2.6575,2.6512,2.6499,2.6499,2.6499,2.6499,2.6499,2.6499,2.574,2.5451,2.6126,2.6973,2.7733,2.8339,2.9138,2.9593,2.9593,2.9593,2.9593,2.9593,2.9683,2.9713,2.9713,2.9803,2.9862,2.9862,3.0372,3.0628,3.0657,3.1227,3.1511,1.1145,1.0572,0.9974,0.9974,0.9974,1.0126,1.0726,1.1092,0.0,0.0,0.0,1.1672,1.1605,0.0,0.0,1.2825,0.0,0.0,0.0,0.0,0.0,0.0,0.0,0.0,0.0,0.0,0.0,0.0,0.0,0.0,1.7991,1.875,2.0452,2.318,2.4973,2.6077,2.6499,2.6499,2.6499,2.6499,2.6499,2.6499,2.6499,2.6499,2.6499,2.6499,0.0,0.0,2.6499,2.6499,2.6499,2.6499,2.6499,2.6499,2.6562,2.7097,2.7298,2.7386,2.7908,2.838,2.8681,2.8147,2.8034,2.7996,2.7462,2.7607,2.7846,2.7311,2.7487,2.7821,2.7821,2.7821,2.7821,2.7821,2.7821,2.7821,2.7821,2.7821,2.7682,2.7248,2.716,2.701,2.6575,2.6499,2.6499,2.6499,2.6499,2.6499,2.6499,2.6911,2.7082,2.6789,2.8061,2.8784,2.8425,2.9138,2.9593,2.9593,2.9593,2.9593,2.9593,3.0073,3.0342,3.0342,3.0897,3.1167,3.1167,3.1271,3.1331,3.1331,3.1451,3.1511,1.024,0.9788,0.929,0.929,0.9536,0.9865,1.0064,0.0,0.0,0.0,0.0,0.0,1.0958,0.0,0.0,0.0,0.0,0.0,0.0,0.0,0.0,0.0,0.0,0.0,0.0,0.0,0.0,0.0,0.0,0.0,1.7991,1.9792,2.1549,2.314,2.5336,2.6499,2.6499,2.6499,2.6499,2.6499,2.6499,2.6499,2.6499,2.6499,2.6499,2.6499,0.0,0.0,2.6499,2.6499,2.6499,2.6499,2.6499,2.6499,2.66,2.7424,2.7708,2.7833,2.8687,2.9151,2.934,2.9076,2.8976,2.8875,2.831,2.8304,2.8392,2.7871,2.7896,2.8109,2.8109,2.8109,2.8109,2.8109,2.8109,2.8109,2.8109,2.8109,2.8021,2.7758,2.7708,2.762,2.7386,2.7336,2.7236,2.6964,2.6927,2.697,2.71,2.7855,2.8271,2.8019,2.9084,2.987,3.0,3.037,3.0597,3.0597,3.0597,3.0597,3.0597,3.0867,3.1031,3.1031,3.1331,3.1511,3.1511,3.1511,3.1511,3.1511,3.1511,3.1511,0.9455,0.9162,0.8831,0.8982,0.951,0.9991,0.9887,1.0603,0.0,0.0,0.0,0.0,0.0,0.0,0.0,0.0,0.0,0.0,0.0,0.0,0.0,0.0,0.0,0.0,0.0,0.0,0.0,0.0,0.0,0.0,0.0,2.0722,2.2432,2.2893,2.525,2.6499,2.6499,2.6499,2.6499,2.6499,2.6499,2.6499,2.6499,2.6499,2.6499,2.6499,0.0,0.0,0.0,2.6499,2.6499,2.6499,2.6499,2.6499,2.6612,2.7587,2.7934,2.8072,2.9089,2.9428,2.9453,2.9566,2.9691,2.9679,2.9082,2.8994,2.8982,2.8436,2.8355,2.8461,2.8461,2.8461,2.8461,2.8461,2.8461,2.8461,2.8461,2.8461,2.8436,2.831,2.8267,2.8229,2.8122,2.8109,2.7921,2.7386,2.7298,2.74,2.7666,2.846,2.9066,2.9254,3.0042,3.0807,3.1452,3.1511,3.1511,3.1511,3.1511,3.1511,3.1511,3.1511,3.1511,3.1511,3.1511,3.1511,3.1511,3.1511,3.1511,3.1511,3.1511,3.1585,0.8591,0.8655,0.8949,0.9562,1.021,1.0764,1.0989,0.0,0.0,0.0,0.0,0.0,0.0,0.0,0.0,0.0,0.0,0.0,0.0,0.0,0.0,0.0,0.0,0.0,0.0,0.0,0.0,0.0,0.0,0.0,0.0,2.0876,2.2432,2.2893,2.525,2.6499,2.6499,2.6499,2.6499,2.6499,2.6499,2.6499,2.6499,2.6499,2.6499,2.6499,0.0,0.0,0.0,2.6499,2.6499,2.6499,2.6499,2.6499,2.6562,2.7148,2.7374,2.7462,2.8047,2.826,2.8348,2.8819,2.9346,2.9679,2.9082,2.9283,2.9591,2.8994,2.922,2.9641,2.9641,2.9641,2.9641,2.9641,2.9641,2.9641,2.9641,2.9641,2.9478,2.8932,2.8831,2.8668,2.8185,2.8109,2.7921,2.7386,2.7298,2.74,2.7666,2.846,2.9301,3.0103,3.0911,3.1423,3.1496,3.1511,3.1511,3.1511,3.1511,3.1511,3.1511,3.1511,3.1511,3.1511,3.1511,3.1511,3.1511,3.1511,3.1511,3.1511,3.1511,3.1824,0.8369,0.8898,0.9402,0.9436,1.0427,1.1235,1.0565,0.0,0.0,0.0,1.041,1.0352,1.0508,0.0,0.0,0.0,0.0,0.0,0.0,0.0,0.0,0.0,0.0,0.0,0.0,0.0,0.0,0.0,0.0,0.0,0.0,2.0898,2.2285,2.2471,2.5097,2.6499,2.6499,2.6499,2.6499,2.6499,2.6499,2.6499,2.6499,2.6499,2.6499,2.6499,0.0,0.0,0.0,2.6499,2.6499,2.6499,2.6499,2.6499,2.6562,2.7097,2.7494,2.7858,2.8392,2.8819,2.9164,2.9377,2.9603,2.9754,2.9515,2.9616,2.9741,2.9515,2.9616,2.9792,2.9792,2.9792,2.9792,2.9792,2.9792,2.9792,2.9792,2.9792,2.9729,2.949,2.9453,2.9377,2.9164,2.9114,2.8925,2.836,2.8254,2.8577,2.9447,2.9866,3.049,3.1498,3.1545,3.1511,3.1511,3.1511,3.1511,3.1511,3.1511,3.1511,3.1511,3.1511,3.1511,3.1511,3.1511,3.1511,3.1511,3.1914,3.2093,3.2108,3.2512,3.2841,0.8183,0.8852,0.9457,0.9372,1.0394,1.1228,0.0,0.0,0.0,1.0449,1.0281,1.028,1.0302,1.0527,1.0918,0.0,0.0,0.0,0.0,0.0,0.0,0.0,0.0,0.0,0.0,0.0,0.0,0.0,0.0,0.0,0.0,0.0,2.1987,2.2392,2.5061,2.6499,2.6499,2.6499,2.6499,2.6499,2.6499,2.6499,2.6499,2.6499,2.6499,0.0,0.0,0.0,0.0,2.6499,2.6499,2.6499,2.6499,2.6499,2.6549,2.6909,2.7412,2.7921,2.831,2.8812,2.9315,2.9478,2.9528,2.9566,2.9741,2.9792,2.9792,2.9792,2.9792,2.9792,2.9792,2.9792,2.9792,2.9792,2.9792,2.9792,2.9792,2.9792,2.9792,2.9792,2.9792,2.9792,2.9792,2.9792,2.9706,2.9395,2.9343,2.9795,3.1049,3.1198,3.1616,3.269,3.2377,3.2004,3.1809,3.1795,3.1795,3.1795,3.1795,3.1795,3.1795,3.1795,3.1795,3.1795,3.16,3.16,3.1795,3.2273,3.2602,3.2811,3.3275,3.362,0.79,0.8301,0.8865,0.9531,1.0165,1.066,0.0,0.0,1.0706,1.037,1.0249,1.0222,1.0292,1.0293,1.0586,1.1469,0.0,0.0,0.0,0.0,0.0,0.0,0.0,0.0,0.0,0.0,0.0,0.0,0.0,0.0,0.0,0.0,2.1452,2.2857,2.525,2.6499,2.6499,2.6499,2.6499,2.6499,2.6499,2.6499,2.6499,2.6499,0.0,0.0,0.0,0.0,0.0,2.6499,2.6499,2.6499,2.6499,2.6499,2.6499,2.6499,2.6851,2.7311,2.7311,2.7657,2.821,2.8743,2.8919,2.9019,2.9616,2.9792,2.9792,2.9792,2.9792,2.9792,2.9792,2.9792,2.9792,2.9792,2.9792,2.9792,2.9792,2.9792,2.9792,2.9792,2.9792,2.9792,2.9792,2.9792,2.9923,3.0327,3.038,3.0817,3.2033,3.2189,3.2522,3.3408,3.3484,3.3215,3.2542,3.2482,3.2482,3.2482,3.2482,3.2482,3.2482,3.2482,3.2482,3.2482,3.1839,3.1824,3.2482,3.2497,3.2841,3.3484,3.3499,3.3859,0.8006,0.8765,0.9455,0.9764,1.0573,1.1141,1.0604,1.0644,1.0689,1.0309,1.0476,1.0589,1.029,1.053,1.0963,1.1513,0.0,0.0,0.0,0.0,0.0,0.0,0.0,0.0,0.0,0.0,0.0,0.0,0.0,0.0,0.0,0.0,2.0967,2.2386,2.4418,2.5804,2.6487,2.6499,2.6499,2.6499,2.6499,2.6499,2.6499,2.6499,0.0,0.0,0.0,0.0,0.0,2.6499,2.6499,2.6499,2.6499,2.6499,2.6499,2.6499,2.6839,2.7361,2.7708,2.821,2.8743,2.934,2.9515,2.9553,2.9741,2.9792,2.9792,2.9792,2.9792,2.9792,2.9792,2.9792,2.9792,2.9792,2.9792,2.9792,2.9792,2.9792,2.9792,2.9792,2.9792,2.9792,2.9792,2.9792,3.0069,3.0826,3.0953,3.155,3.3216,3.3422,3.3625,3.4124,3.4592,3.4412,3.3275,3.3185,3.3185,3.3185,3.3185,3.3185,3.3185,3.3185,3.3185,3.3185,3.2976,3.2976,3.3185,3.3649,3.4203,3.4876,3.4876,3.4981,0.0,0.8988,0.9645,0.9727,1.0426,1.096,1.0387,1.0401,1.0462,1.0203,1.0371,1.0539,1.0482,1.0737,1.1118,1.156,0.0,0.0,0.0,0.0,0.0,0.0,0.0,0.0,0.0,0.0,0.0,0.0,0.0,0.0,0.0,0.0,2.0346,2.215,2.3845,2.5293,2.6487,2.6499,2.6499,2.6499,2.6499,2.6499,2.6499,0.0,0.0,0.0,0.0,0.0,0.0,2.6499,2.6499,2.6499,2.6499,2.6499,2.6499,2.6499,2.6839,2.7349,2.767,2.816,2.8693,2.9277,2.9616,2.9792,2.9792,2.9792,2.9792,2.9792,2.9792,2.9792,2.9792,2.9792,2.9792,2.9792,2.9792,2.9792,2.9792,2.9792,2.9792,2.9792,2.9792,2.9792,2.9792,3.0094,3.0652,3.1591,3.2033,3.282,3.4361,3.456,3.4661,3.4843,3.525,3.516,3.4322,3.4024,3.3874,3.3874,3.3874,3.3874,3.3874,3.3874,3.3874,3.3874,3.3634,3.3619,3.3874,3.4563,3.5085,3.5504,3.5504,3.5504,0.0,0.8944,0.9417,0.9456,0.9857,1.023,1.0165,1.012,0.0,1.0081,1.0072,1.0242,0.0,0.0,0.0,0.0,0.0,0.0,0.0,0.0,0.0,0.0,0.0,0.0,0.0,0.0,0.0,0.0,0.0,0.0,0.0,0.0,0.0,2.2121,2.3471,2.491,2.6487,2.6499,2.6499,2.6499,2.6499,2.6499,2.6499,0.0,0.0,0.0,0.0,0.0,0.0,2.6499,2.6499,2.6499,2.6499,2.6499,2.6499,2.6499,2.6813,2.7248,2.7286,2.762,2.8147,2.8718,2.9296,2.9792,2.9792,2.9792,2.9792,2.9792,2.9792,2.9792,2.9792,2.9792,2.9792,2.9792,2.9792,2.9792,2.9792,2.9792,2.9792,2.9792,2.9792,2.9792,2.9792,3.0576,3.1518,3.2464,3.3397,3.4361,3.5375,3.5504,3.5504,3.5504,3.5504,3.5504,3.5504,3.4937,3.4563,3.4563,3.4563,3.4563,3.4563,3.4563,3.4563,3.4563,3.3964,3.3964,3.4563,3.519,3.5504,3.5504,3.5504,3.5504,0.8357,0.0,0.8604,0.9014,0.9446,0.9762,0.0,0.0,0.0,0.0,0.0,0.0,0.0,0.0,0.0,0.0,0.0,0.0,0.0,0.0,0.0,0.0,0.0,0.0,0.0,0.0,0.0,0.0,0.0,0.0,0.0,0.0,0.0,2.211,2.252,2.3921,2.6487,2.6499,2.6499,2.6499,2.6499,2.6499,2.6499,0.0,0.0,0.0,0.0,0.0,0.0,2.6499,2.6499,2.6499,2.6499,2.6499,2.6499,2.6499,2.6575,2.6751,2.7148,2.7386,2.7632,2.8593,2.9296,2.9792,2.9792,2.9792,2.9792,2.9792,2.9792,2.9792,2.9792,2.9792,2.9792,2.9792,2.9792,2.9792,2.9792,2.9792,2.9792,2.9792,2.9792,2.9792,2.9792,3.0576,3.1518,3.2464,3.3397,3.4361,3.5375,3.5504,3.5504,3.5504,3.5504,3.5504,3.5504,3.5355,3.5265,3.5265,3.5265,3.5265,3.5265,3.5265,3.5265,3.5265,3.5115,3.5115,3.5265,3.5429,3.5504,3.5504,3.5504,3.5504,0.8546,0.8886,0.9286,0.9575,0.9927,1.0182,0.0,0.0,0.0,0.0,0.0,0.0,0.0,0.0,0.0,0.0,0.0,0.0,0.0,0.0,0.0,0.0,0.0,0.0,0.0,0.0,0.0,0.0,0.0,0.0,0.0,0.0,0.0,0.0,2.2456,2.3985,2.6487,2.6499,2.6499,2.6499,2.6499,2.6499,2.6499,0.0,0.0,0.0,0.0,0.0,2.6499,2.6499,2.6499,2.6499,2.6499,2.6499,2.6499,2.6499,2.6499,2.6537,2.6839,2.7085,2.7399,2.7984,2.8561,2.9063,2.9296,2.9402,2.9434,2.9716,2.9792,2.9792,2.9792,2.9792,2.9792,2.9792,2.9792,2.9792,2.9792,2.9792,2.9792,2.9792,2.9792,2.9792,2.9792,3.0927,3.2015,3.2522,3.3788,3.4889,3.5439,3.5504,3.5504,3.5504,3.5504,3.5504,3.5504,3.5504,3.5504,3.5504,3.5504,3.5504,3.5504,3.5504,3.5504,3.5504,3.5504,3.5504,3.5504,3.5504,3.5504,3.5504,3.5504,3.5504,0.8813,0.9694,1.0435,1.0208,1.0474,1.0776,0.0,0.0,0.0,0.0,0.0,0.0,0.0,0.0,0.0,0.0,0.0,0.0,0.0,0.0,0.0,0.0,0.0,0.0,0.0,0.0,0.0,0.0,0.0,0.0,0.0,0.0,0.0,0.0,2.2683,2.4344,2.6331,2.6449,2.6499,2.6499,2.6499,2.6499,2.6499,2.6499,0.0,0.0,0.0,0.0,2.6499,2.6499,2.6499,2.6499,2.6499,2.6499,2.6499,2.6499,2.6499,2.6499,2.6499,2.6851,2.7298,2.7298,2.7657,2.8191,2.8743,2.8888,2.9032,2.9628,2.9792,2.9792,2.9792,2.9792,2.9792,2.9792,2.9792,2.9792,2.9792,2.9792,2.9792,2.9792,2.9792,2.9792,2.9792,3.123,3.2429,3.2575,3.4109,3.5326,3.5488,3.5504,3.5504,3.5504,3.5504,3.5504,3.5504,3.5504,3.5504,3.5504,3.5504,3.5504,3.5504,3.5504,3.5504,3.5504,3.5504,3.5504,3.5504,3.5504,3.5504,3.5504,3.5504,3.5504,0.9266,1.0183,1.0607,0.9358,0.9683,0.0,0.0,0.0,0.0,0.0,0.0,0.0,0.0,0.0,0.0,0.0,0.0,0.0,0.0,0.0,0.0,0.0,0.0,0.0,0.0,0.0,0.0,0.0,0.0,0.0,0.0,0.0,0.0,0.0,0.0,2.3769,2.5724,2.6231,2.6499,2.6499,2.6499,2.6499,2.6499,2.6499,2.6499,0.0,0.0,0.0,2.6499,2.6499,2.6499,2.6499,2.6499,2.6499,2.6499,2.6499,2.6499,2.6499,2.6499,2.6851,2.7298,2.7298,2.7657,2.8191,2.8743,2.8888,2.9032,2.9628,2.9792,2.9792,2.9792,2.9792,2.9792,2.9792,2.9792,2.9792,2.9792,2.9792,2.9792,2.9792,2.9792,2.9792,2.9792,3.0696,3.1669,3.2482,3.3533,3.4543,3.5392,3.5504,3.5504,3.5504,3.5504,3.5504,3.5504,3.5504,3.5504,3.5504,3.5504,3.5504,3.5504,3.5504,3.5504,3.5504,3.5504,3.5504,3.5504,3.5504,3.5504,3.5504,3.5504,3.5504,0.9606,1.0292,1.0682,1.0003,0.0,0.0,0.0,0.0,0.0,0.0,0.0,0.0,0.0,0.0,0.0,0.0,0.0,0.0,0.0,0.0,0.0,0.0,0.0,0.0,0.0,0.0,0.0,0.0,0.0,0.0,0.0,0.0,0.0,0.0,0.0,0.0,2.472,2.5297,2.5891,2.6499,2.6499,2.6499,2.6499,2.6499,2.6499,0.0,0.0,2.6499,2.6499,2.6499,2.6499,2.6499,2.6499,2.6499,2.6499,2.6499,2.6499,2.6499,2.6499,2.6663,2.6876,2.6876,2.7022,2.7386,2.8217,2.8467,2.8643,2.9553,2.9792,2.9792,2.9792,2.9792,2.9792,2.9792,2.9792,2.9792,2.9792,2.9792,2.9792,2.9792,2.9792,2.9972,3.0463,3.1328,3.2285,3.3223,3.4177,3.4986,3.5439,3.5504,3.5504,3.5504,3.5504,3.5504,3.5504,3.5504,3.5504,3.5504,3.5504,3.5504,3.5504,3.5504,3.5504,3.5504,3.5504,3.5504,3.5504,3.5504,3.5504,3.5504,3.5504,3.5504,0.992,1.03,1.0582,0.0,0.0,0.0,0.0,0.0,0.0,0.0,0.0,0.0,0.0,0.0,0.0,0.0,0.0,0.0,0.0,0.0,0.0,0.0,0.0,0.0,0.0,0.0,0.0,0.0,0.0,0.0,0.0,0.0,0.0,0.0,0.0,0.0,2.3697,2.4323,2.5109,2.6092,2.6092,2.6172,2.6298,2.6298,2.6361,2.6499,2.6499,2.6499,2.6499,2.6499,2.6499,2.6499,2.6499,2.6499,2.6499,2.6499,2.6499,2.6499,2.6499,2.6499,2.6499,2.6499,2.6587,2.6859,2.7808,2.8197,2.8511,2.9515,2.9792,2.9792,2.9792,2.9792,2.9792,2.9792,2.9792,2.9792,2.9792,2.9792,2.9792,2.9792,2.9792,3.0113,3.1044,3.1797,3.2664,3.3825,3.4658,3.523,3.5472,3.5504,3.5504,3.5504,3.5504,3.5504,3.5504,3.5504,3.5504,3.5504,3.5504,3.5504,3.5504,3.5504,3.5504,3.5504,3.5504,3.5504,3.5504,3.5504,3.5504,3.5504,3.5504,3.5504,1.0255,1.0306,0.0,0.0,0.0,0.0,0.0,0.0,0.0,0.0,0.0,0.0,0.0,0.0,0.0,0.0,0.0,0.0,0.0,0.0,0.0,0.0,0.0,0.0,0.0,0.0,0.0,0.0,0.0,0.0,0.0,0.0,0.0,0.0,0.0,0.0,2.2791,2.364,2.4356,2.4929,2.4929,2.518,2.5649,2.5649,2.5967,2.6499,2.6499,2.6499,2.6499,2.6499,2.6499,2.6499,2.6499,2.6499,2.6499,2.6499,2.6499,2.6499,2.6499,2.6499,2.6499,2.6499,2.6839,2.7349,2.7921,2.8442,2.8982,2.9616,2.9792,2.9792,2.9792,2.9792,2.9792,2.9792,2.9792,2.9792,2.9792,2.9792,2.9792,2.9792,2.9792,3.0113,3.1044,3.1259,3.1906,3.3739,3.4061,3.4445,3.5375,3.5504,3.5504,3.5504,3.5504,3.5504,3.5504,3.5504,3.5504,3.5504,3.5504,3.5504,3.5504,3.5504,3.5504,3.5504,3.5504,3.5504,3.5504,3.5504,3.5504,3.5504,3.5504,3.5504,0.9954,1.0294,0.0,0.0,0.0,0.0,0.0,0.0,0.0,0.0,0.0,0.0,0.0,0.0,0.0,0.0,0.0,0.0,0.0,0.0,0.0,0.0,0.0,0.0,0.0,0.0,0.0,0.0,0.0,0.0,0.0,0.0,0.0,0.0,0.0,0.0,0.0,2.3025,2.3534,2.3747,2.4449,2.4904,2.5093,2.5093,2.5234,2.546,2.5804,2.5942,2.5967,2.6348,2.6499,2.6499,2.6499,2.6499,2.6499,2.6499,2.6499,2.6499,2.6499,2.6499,2.6499,2.6499,2.6864,2.7412,2.7946,2.8467,2.9032,2.9628,2.9792,2.9792,2.9792,2.9792,2.9792,2.9792,2.9792,2.9792,2.9792,2.9792,2.9792,2.9792,2.9792,3.0292,3.181,3.2069,3.2713,3.4641,3.4937,3.5083,3.5455,3.5504,3.5504,3.5504,3.5504,3.5504,3.5504,3.5504,3.5504,3.5504,3.5504,3.5504,3.5504,3.5504,3.5504,3.5504,3.5504,3.5504,3.5504,3.5504,3.5504,3.5504,3.5504,3.5504,0.9646,1.0154,0.0,0.0,0.0,0.0,0.0,0.0,0.0,0.0,0.0,0.0,0.0,0.0,0.0,0.0,0.0,0.0,0.0,0.0,0.0,0.0,0.0,0.0,0.0,0.0,0.0,0.0,0.0,0.0,0.0,0.0,0.0,0.0,0.0,0.0,0.0,2.2702,2.3108,2.3108,2.3885,2.4349,2.454,2.454,2.4641,2.4829,2.5372,2.5598,2.5653,2.6248,2.6499,2.6499,2.6499,2.6499,2.6499,2.6499,2.6499,2.6499,2.6499,2.6499,2.6499,2.6499,2.6864,2.7412,2.7946,2.8467,2.9032,2.9628,2.9792,2.9792,2.9792,2.9792,2.9792,2.9792,2.9792,2.9792,2.9792,2.9792,2.9792,2.9792,3.0037,3.0733,3.2339,3.2855,3.3602,3.5246,3.5504,3.5504,3.5504,3.5504,3.5504,3.5504,3.5504,3.5504,3.5504,3.5504,3.5504,3.5504,3.5504,3.5504,3.5504,3.5504,3.5504,3.5504,3.5504,3.5504,3.5504,3.5504,3.5504,3.5504,3.5504,3.5504,0.9436,0.9902,0.0,0.0,0.0,0.0,0.0,0.0,0.0,0.0,0.0,0.0,0.0,0.0,0.0,0.0,0.0,0.0,0.0,0.0,0.0,0.0,0.0,0.0,0.0,0.0,0.0,0.0,0.0,0.0,0.0,0.0,0.0,0.0,0.0,0.0,0.0,2.2702,2.3108,2.3108,2.3108,2.3409,2.3991,2.3991,2.4293,2.4816,2.536,2.5573,2.5624,2.6248,2.6487,2.6499,2.6499,2.6499,2.6499,2.6499,2.6499,2.6499,2.6499,2.6499,2.6499,2.6499,2.6864,2.7399,2.7934,2.8467,2.9032,2.9616,2.9792,2.9792,2.9792,2.9792,2.9792,2.9792,2.9792,2.9792,2.9792,2.9792,2.9792,2.9792,3.0558,3.1499,3.2446,3.338,3.4344,3.5359,3.5504,3.5504,3.5504,3.5504,3.5504,3.5504,3.5504,3.5504,3.5504,3.5504,3.5504,3.5504,3.5504,3.5504,3.5504,3.5504,3.5504,3.5504,3.5504,3.5504,3.5504,3.5504,3.5504,3.5504,3.5504,3.5504,0.9721,0.0,0.0,0.0,0.0,0.0,0.0,0.0,0.0,0.0,0.0,0.0,0.0,0.0,0.0,0.0,0.0,0.0,0.0,0.0,0.0,0.0,0.0,0.0,0.0,0.0,0.0,0.0,0.0,0.0,0.0,0.0,0.0,0.0,0.0,0.0,0.0,0.0,2.3108,2.3108,2.3108,2.3195,2.3358,2.3358,2.3446,2.3634,2.423,2.4469,2.4544,2.5473,2.6122,2.6499,2.6499,2.6499,2.6499,2.6499,2.6499,2.6499,2.6499,2.6499,2.6499,2.6499,2.6864,2.7336,2.7499,2.8185,2.8944,2.912,2.9478,2.9792,2.9792,2.9792,2.9792,2.9792,2.9792,2.9792,2.9792,2.9792,2.9792,2.9792,3.0558,3.1499,3.2446,3.338,3.4344,3.5359,3.5504,3.5504,3.5504,3.5504,3.5504,3.5504,3.5504,3.5504,3.5504,3.5504,3.5504,3.5504,3.5504,3.5504,3.5504,3.5504,3.5504,3.5504,3.5504,3.5504,3.5504,3.5504,3.5504,3.5504,3.5504,3.5504,0.0,0.0,0.0,0.0,0.0,0.0,0.0,0.0,0.0,0.0,0.0,0.0,0.0,0.0,0.0,0.0,0.0,0.0,0.0,0.0,0.0,0.0,0.0,0.0,0.0,0.0,0.0,0.0,0.0,0.0,0.0,0.0,0.0,0.0,0.0,0.0,0.0,0.0,0.0,2.3108,2.3108,2.3108,2.3108,2.3108,2.3108,2.3133,2.3738,2.4243,2.4682,2.5322,2.5954,2.6499,2.6499,2.6499,2.6499,2.6499,2.6499,2.6499,2.6499,2.6499,2.6499,2.6499,2.6713,2.701,2.7236,2.7745,2.8342,2.8781,2.9157,2.9503,2.9729,2.9792,2.9792,2.9792,2.9792,2.9792,2.9792,2.9792,2.9792,2.9792,3.0865,3.1942,3.25,3.3719,3.4806,3.5423,3.5504,3.5504,3.5504,3.5504,3.5504,3.5504,3.5504,3.5504,3.5504,3.5504,3.5504,3.5504,3.5504,3.5504,3.5504,3.5504,3.5504,3.5504,3.5504,3.5504,3.5504,3.5504,3.5504,3.5504,3.5504,3.5504,0.0,0.0,0.0,0.0,0.0,0.0,0.0,0.0,0.0,0.0,0.0,0.0,0.0,0.0,0.0,0.0,0.0,0.0,0.0,0.0,0.0,0.0,0.0,0.0,0.0,0.0,0.0,0.0,0.0,0.0,0.0,0.0,0.0,0.0,0.0,0.0,0.0,0.0,0.0,0.0,2.3108,2.3108,2.3108,2.3108,2.3108,2.3133,2.3675,2.4506,2.5448,2.5448,2.5829,2.6411,2.6411,2.6449,2.6499,2.6499,2.6499,2.6499,2.6499,2.6499,2.6499,2.6499,2.6499,2.6587,2.7072,2.7261,2.7507,2.8543,2.8869,2.9045,2.9641,2.9792,2.9792,2.9792,2.9792,2.9792,2.9792,2.9792,2.983,2.9914,3.1378,3.2629,3.2713,3.4274,3.5504,3.5504,3.5504,3.5504,3.5504,3.5504,3.5504,3.5504,3.5504,3.5504,3.5504,3.5504,3.5504,3.5504,3.5504,3.5504,3.5504,3.5504,3.5504,3.5504,3.5504,3.5504,3.5504,3.5504,3.5504,3.5504,3.5504,3.5504,0.0,0.0,0.0,0.0,0.0,0.0,0.0,0.0,0.0,0.0,0.0,0.0,0.0,0.0,0.0,0.0,0.0,0.0,0.0,0.0,0.0,0.0,0.0,0.0,0.0,0.0,0.0,0.0,0.0,0.0,0.0,0.0,0.0,0.0,0.0,0.0,2.3095,2.3108,2.3108,0.0,2.3108,2.3108,2.3108,2.3108,2.3108,2.3108,2.3233,2.3687,2.4343,2.4343,2.4924,2.5787,2.5787,2.608,2.6499,2.6499,2.6499,2.6499,2.6499,2.6499,2.6499,2.6499,2.6499,2.6512,2.6637,2.6977,2.7437,2.8097,2.858,2.9045,2.9641,2.9792,2.9792,2.9792,2.9792,2.9792,2.9792,2.9792,3.0017,3.0771,3.1829,3.2837,3.3584,3.4691,3.5504,3.5504,3.5504,3.5504,3.5504,3.5504,3.5504,3.5504,3.5504,3.5504,3.5504,3.5504,3.5504,3.5504,3.5504,3.5504,3.5504,3.5504,3.5504,3.5504,3.5504,3.5504,3.5504,3.5504,3.5504,3.5504,3.5504,3.5504,0.0,0.0,0.0,0.0,0.0,0.0,0.0,0.0,0.0,0.0,0.0,0.0,0.0,0.0,0.0,0.0,0.0,0.0,0.0,0.0,0.0,0.0,0.0,0.0,0.0,0.0,0.0,0.0,0.0,0.0,0.0,0.0,0.0,0.0,0.0,0.0,2.2706,2.297,2.3108,2.3108,2.3108,2.3108,2.3108,2.3108,2.3108,2.3108,2.3108,2.3449,2.4004,2.4004,2.4481,2.5231,2.5498,2.5791,2.6092,2.6386,2.6499,2.6499,2.6499,2.6499,2.6499,2.6499,2.6499,2.6499,2.6499,2.67,2.7072,2.7871,2.8292,2.8718,2.9578,2.9792,2.9792,2.9792,2.9792,2.9792,2.9792,2.9792,3.0075,3.1026,3.196,3.2908,3.3842,3.4839,3.5504,3.5504,3.5504,3.5504,3.5504,3.5504,3.5504,3.5504,3.5504,3.5504,3.5504,3.5504,3.5504,3.5504,3.5504,3.5504,3.5504,3.5504,3.5504,3.5504,3.5504,3.5504,3.5504,3.5504,3.5504,3.5504,3.5504,3.5504,0.0,0.0,0.0,0.0,0.0,0.0,0.0,0.0,0.0,0.0,0.0,0.0,0.0,0.0,0.0,0.0,0.0,0.0,0.0,0.0,0.0,0.0,0.0,0.0,0.0,0.0,0.0,0.0,0.0,0.0,0.0,0.0,0.0,0.0,0.0,2.162,2.2171,2.2681,2.2957,2.2957,2.3058,2.3108,2.3108,2.3108,2.3108,2.3108,2.3108,2.3371,2.3838,2.3838,2.418,2.4716,2.5259,2.5523,2.5661,2.6285,2.6499,2.6499,2.6499,2.6499,2.6499,2.6499,2.6499,2.6499,2.6499,2.6499,2.6725,2.7795,2.8109,2.836,2.9503,2.9792,2.9792,2.9792,2.9792,2.9792,2.9792,2.9792,3.012,3.1217,3.2339,3.3359,3.4126,3.4953,3.5504,3.5504,3.5504,3.5504,3.5504,3.5504,3.5504,3.5504,3.5504,3.5504,3.5504,3.5504,3.5504,3.5504,3.5504,3.5504,3.5504,3.5504,3.5504,3.5504,3.5504,3.5504,3.5504,3.5504,3.5504,3.5504,3.5504,3.5504,0.0,0.0,0.0,0.0,0.0,0.0,0.0,0.0,0.0,0.0,0.0,0.0,0.0,0.0,0.0,0.0,0.0,0.0,0.0,0.0,0.0,0.0,0.0,0.0,0.0,0.0,0.0,0.0,0.0,0.0,0.0,0.0,2.0088,2.0679,2.0767,0.0,2.1594,2.2146,2.2408,2.2408,2.2882,2.3108,2.3108,2.3108,2.3108,2.3108,2.3108,2.3145,2.3221,2.3221,2.3574,2.4167,2.4691,2.518,2.5661,2.6285,2.6499,2.6499,2.6499,2.6499,2.6499,2.6499,2.6499,2.6499,2.6499,2.6499,2.6725,2.7795,2.8109,2.836,2.9503,2.9792,2.9792,2.9792,2.9792,2.9792,2.9792,2.9792,3.0317,3.2069,3.3871,3.5149,3.5279,3.5408,3.5504,3.5504,3.5504,3.5504,3.5504,3.5504,3.5504,3.5504,3.5504,3.5504,3.5504,3.5504,3.5504,3.5504,3.5504,3.5504,3.5504,3.5504,3.5504,3.5504,3.5504,3.5504,3.5504,3.5504,3.5504,3.5504,3.5504,3.5504,0.0,0.0,0.0,0.0,0.0,0.0,0.0,0.0,0.0,0.0,0.0,0.0,0.0,0.0,0.0,0.0,0.0,0.0,0.0,0.0,0.0,0.0,0.0,0.0,0.0,0.0,0.0,0.0,0.0,0.0,0.0,1.9798,1.9924,2.0188,2.0515,0.0,2.1056,2.1583,2.2008,2.2295,2.2546,2.2807,2.3108,2.3108,2.3108,2.3108,2.3108,2.3108,2.3108,2.3108,2.3258,2.3562,2.4126,2.4678,2.5222,2.5791,2.6223,2.6499,2.6499,2.6499,2.6499,2.6499,2.6499,2.6499,2.6499,2.6499,2.6725,2.7795,2.8109,2.836,2.9503,2.9792,2.9792,2.9792,2.9792,2.9792,2.9792,2.9792,3.0355,3.2231,3.4175,3.5504,3.5504,3.5504,3.5504,3.5504,3.5504,3.5504,3.5504,3.5504,3.5504,3.5504,3.5504,3.5504,3.5504,3.5504,3.5504,3.5504,3.5504,3.5504,3.5504,3.5504,3.5504,3.5504,3.5504,3.5504,3.5504,3.5504,3.5504,3.5504,3.5504,3.5504,0.0,0.0,0.0,0.0,0.0,0.0,0.0,0.0,0.0,0.0,0.0,0.0,0.0,0.0,0.0,0.0,0.0,0.0,0.0,0.0,0.0,0.0,0.0,0.0,0.0,0.0,0.0,0.0,0.0,0.0,1.9798,1.9798,1.9798,1.9798,2.0238,2.0478,2.0478,2.1017,2.157,2.2108,2.2232,2.2508,2.2895,2.3045,2.3108,2.3108,2.3108,2.3108,2.3108,2.3108,2.3108,2.3158,2.375,2.4239,2.4653,2.5209,2.5766,2.6273,2.6273,2.6373,2.6499,2.6499,2.6499,2.6499,2.6499,2.6499,2.6725,2.7795,2.8109,2.836,2.9503,2.9792,2.9792,2.9792,2.9792,2.9869,3.0101,3.0336,3.0996,3.2642,3.4341,3.5504,3.5504,3.5504,3.5504,3.5504,3.5504,3.5504,3.5504,3.5504,3.5504,3.5504,3.5504,3.5504,3.5504,3.5504,3.5504,3.5504,3.5504,3.5504,3.5504,3.5504,3.5504,3.5504,3.5504,3.5504,3.5504,3.5504,3.5504,3.5504,3.5504,3.5504,0.0,0.0,0.0,0.0,0.0,0.0,0.0,0.0,0.0,0.0,0.0,0.0,0.0,0.0,0.0,0.0,0.0,0.0,0.0,0.0,0.0,0.0,0.0,0.0,0.0,0.0,0.0,0.0,0.0,0.0,1.9798,1.9798,1.9798,1.9798,1.9823,1.9849,1.9849,2.0439,2.1018,2.1557,2.2071,2.2307,2.2357,2.2869,2.3108,2.3108,2.3108,2.3108,2.3108,2.3108,2.3108,2.3158,2.375,2.4017,2.4104,2.4641,2.518,2.5653,2.5653,2.6017,2.6499,2.6499,2.6499,2.6499,2.6499,2.6499,2.6725,2.7795,2.8109,2.836,2.9503,2.9792,2.9792,2.9792,2.9792,3.0037,3.0932,3.1829,3.2749,3.3739,3.4789,3.5504,3.5504,3.5504,3.5504,3.5504,3.5504,3.5504,3.5504,3.5504,3.5504,3.5504,3.5504,3.5504,3.5504,3.5504,3.5504,3.5504,3.5504,3.5504,3.5504,3.5504,3.5504,3.5504,3.5504,3.5504,3.5504,3.5504,3.5504,3.5504,3.5504,3.5504,0.0,0.0,0.0,0.0,0.0,0.0,0.0,0.0,0.0,0.0,0.0,0.0,0.0,0.0,0.0,0.0,0.0,0.0,0.0,0.0,0.0,0.0,0.0,0.0,0.0,0.0,0.0,0.0,0.0,0.0,1.9798,1.9798,1.9798,1.9798,1.9798,1.9798,1.9798,2.0012,2.0402,2.0993,2.1168,2.1631,2.2307,2.2508,2.2769,2.3108,2.3108,2.3108,2.3108,2.3108,2.3108,2.312,2.3349,2.365,2.4017,2.4217,2.4845,2.5598,2.5598,2.5992,2.6499,2.6499,2.6499,2.6499,2.6499,2.6499,2.665,2.7386,2.7833,2.8267,2.9019,2.9515,2.9792,2.9792,3.026,3.0964,3.1888,3.2375,3.289,3.3825,3.4822,3.5504,3.5504,3.5504,3.5504,3.5504,3.5504,3.5504,3.5504,3.5504,3.5504,3.5504,3.5504,3.5504,3.5504,3.5504,3.5504,3.5504,3.5504,3.5504,3.5504,3.5504,3.5504,3.5504,3.5504,3.5504,3.5504,3.5504,3.5504,3.5504,3.5504,3.5504,0.0,0.0,0.0,0.0,0.0,0.0,0.0,0.0,0.0,0.0,0.0,0.0,0.0,0.0,0.0,0.0,0.0,0.0,0.0,0.0,0.0,0.0,0.0,0.0,0.0,0.0,0.0,0.0,0.0,0.0,1.9798,1.9798,1.9798,1.9798,1.9798,1.9798,1.9798,1.9798,2.0,2.0402,2.0591,2.1067,2.1784,2.2146,2.2495,2.2844,2.302,2.3108,2.3108,2.3108,2.3108,2.3108,2.3108,2.3333,2.3703,2.3703,2.4393,2.5335,2.5335,2.5841,2.6499,2.6499,2.6499,2.6499,2.6499,2.6499,2.665,2.7374,2.7821,2.8267,2.9007,2.9503,2.9792,2.9792,3.052,3.1462,3.2411,3.2855,3.3345,3.4327,3.5036,3.5504,3.5504,3.5504,3.5504,3.5504,3.5504,3.5504,3.5504,3.5504,3.5504,3.5504,3.5504,3.5504,3.5504,3.5504,3.5504,3.5504,3.5504,3.5504,3.5504,3.5504,3.5504,3.5504,3.5504,3.5504,3.5504,3.5504,3.5504,3.5504,3.5504,3.5504,0.0,0.0,0.0,0.0,0.0,0.0,0.0,0.0,0.0,0.0,0.0,0.0,0.0,0.0,0.0,0.0,0.0,0.0,0.0,0.0,0.0,0.0,0.0,0.0,0.0,0.0,0.0,0.0,0.0,1.9786,1.9798,1.9798,1.9798,1.9798,1.9798,1.9798,1.9798,1.9798,1.9798,1.9811,2.0389,2.0679,2.0743,2.1782,2.227,2.2332,2.2844,2.3095,2.3108,2.3108,2.3108,2.3108,2.3108,2.3108,2.3108,2.3108,2.3822,2.4804,2.4804,2.5552,2.6499,2.6499,2.6499,2.6499,2.6499,2.6499,2.6713,2.7758,2.8084,2.836,2.9503,2.9792,2.9792,2.9792,3.0539,3.1499,3.2411,3.3363,3.4329,3.531,3.5504,3.5504,3.5504,3.5504,3.5504,3.5504,3.5504,3.5504,3.5504,3.5504,3.5504,3.5504,3.5504,3.5504,3.5504,3.5504,3.5504,3.5504,3.5504,3.5504,3.5504,3.5504,3.5504,3.5504,3.5504,3.5504,3.5504,3.5504,3.5504,3.5504,3.5504,3.5504,1.0478,0.0,0.0,0.0,0.0,0.0,0.0,0.0,0.0,0.0,0.0,0.0,0.0,0.0,0.0,0.0,0.0,0.0,0.0,0.0,0.0,0.0,0.0,0.0,0.0,0.0,0.0,0.0,0.0,1.9397,1.9786,1.9798,1.9798,1.9798,1.9798,1.9798,1.9798,1.9798,1.9798,1.9798,1.9962,2.0276,2.0717,2.1006,2.157,2.2307,2.2458,2.2732,2.3108,2.3108,2.3108,2.3108,2.3108,2.3108,2.3108,2.3108,2.3822,2.4804,2.4804,2.5552,2.6499,2.6499,2.6499,2.6499,2.6499,2.6499,2.6562,2.6864,2.7512,2.836,2.9503,2.9792,2.9792,2.9792,3.1039,3.2285,3.254,3.3905,3.5166,3.5455,3.5504,3.5504,3.5504,3.5504,3.5504,3.5504,3.5504,3.5504,3.5504,3.5504,3.5504,3.5504,3.5504,3.5504,3.5504,3.5504,3.5504,3.5504,3.5504,3.5504,3.5504,3.5504,3.5504,3.5504,3.5504,3.5504,3.5504,3.5504,3.5504,3.5504,3.5504,3.5504,0.0,0.0,0.0,0.0,0.0,0.0,0.0,0.0,0.0,0.0,0.0,0.0,0.0,0.0,0.0,0.0,0.0,0.0,0.0,0.0,0.0,0.0,0.0,0.0,0.0,0.0,0.0,0.0,1.8543,1.8907,1.9434,1.9685,1.9798,1.9798,1.9798,1.9798,1.9798,1.9798,1.9798,1.9798,1.9798,1.9974,2.0326,2.0592,2.1043,2.1656,2.2121,2.2483,2.2782,2.3007,2.3108,2.3108,2.3108,2.3108,2.3108,2.3108,2.3822,2.4804,2.4804,2.5552,2.6499,2.6499,2.6499,2.6499,2.6499,2.6499,2.6549,2.6776,2.7613,2.8631,2.9553,2.9792,2.9895,3.0298,3.1513,3.2713,3.3101,3.4409,3.5504,3.5504,3.5504,3.5504,3.5504,3.5504,3.5504,3.5504,3.5504,3.5504,3.5504,3.5504,3.5504,3.5504,3.5504,3.5504,3.5504,3.5504,3.5504,3.5504,3.5504,3.5504,3.5504,3.5504,3.5504,3.5504,3.5504,3.5504,3.5504,3.5504,3.5504,3.5504,3.5504,3.5504,0.0,0.0,0.0,0.0,0.0,0.0,0.0,1.0799,0.0,0.0,0.0,0.0,0.0,0.0,0.0,0.0,0.0,0.0,0.0,0.0,0.0,0.0,0.0,0.0,0.0,0.0,0.0,1.7398,1.7902,1.843,1.897,1.9447,1.9748,1.9798,1.9798,1.9798,1.9798,1.9798,1.9798,1.9798,1.9798,1.9798,1.9823,2.0365,2.0629,2.0768,2.1769,2.2232,2.2332,2.2882,2.3108,2.3108,2.3108,2.3108,2.3108,2.3108,2.3785,2.4729,2.4779,2.5498,2.6411,2.6474,2.6499,2.6499,2.6499,2.6499,2.6625,2.7223,2.8084,2.8969,2.9628,2.9792,3.0037,3.097,3.1924,3.2873,3.3791,3.4774,3.5504,3.5504,3.5504,3.5504,3.5504,3.5504,3.5504,3.5504,3.5504,3.5504,3.5504,3.5504,3.5504,3.5504,3.5504,3.5504,3.5504,3.5504,3.5504,3.5504,3.5504,3.5504,3.5504,3.5504,3.5504,3.5504,3.5504,3.5504,3.5504,3.5504,3.5504,3.5504,3.5504,3.5504,1.4657,1.4643,1.424,0.0,0.0,0.0,0.0,0.0,0.0,0.0,0.0,0.0,0.0,0.0,0.0,0.0,0.0,0.0,0.0,0.0,0.0,0.0,0.0,0.0,0.0,0.0,1.6886,1.7361,1.7902,1.843,1.897,1.9096,1.9346,1.9786,1.9798,1.9798,1.9798,1.9798,1.9798,1.9798,1.9798,1.9798,1.9798,1.9924,2.0238,2.0743,2.1382,2.1895,2.2332,2.2882,2.3108,2.3108,2.3108,2.3108,2.3108,2.3108,2.3562,2.4217,2.4653,2.5234,2.5854,2.6336,2.6499,2.6499,2.6499,2.6499,2.67,2.7657,2.8097,2.8499,2.9528,2.9792,3.0037,3.097,3.1924,3.2873,3.3791,3.4774,3.5504,3.5504,3.5504,3.5504,3.5504,3.5504,3.5504,3.5504,3.5504,3.5504,3.5504,3.5504,3.5504,3.5504,3.5504,3.5504,3.5504,3.5504,3.5504,3.5504,3.5504,3.5504,3.5504,3.5504,3.5504,3.5504,3.5504,3.5504,3.5504,3.5504,3.5504,3.5504,3.5504,3.5504,1.5687,1.5404,1.4901,1.3855,0.0,0.0,0.0,0.0,0.0,0.0,0.0,0.0,0.0,0.0,0.0,0.0,0.0,0.0,0.0,0.0,0.0,0.0,0.0,0.0,0.0,0.0,1.6624,1.6936,1.7487,1.7915,1.8191,1.8456,1.8844,1.9384,1.9397,1.9535,1.9798,1.9798,1.9798,1.9798,1.9798,1.9798,1.9798,1.9798,1.9974,2.0301,2.1143,2.1644,2.197,2.2769,2.3108,2.3108,2.3108,2.3108,2.3108,2.3108,2.3487,2.4079,2.4616,2.5143,2.5703,2.6298,2.6499,2.6499,2.6499,2.6499,2.6725,2.7795,2.8109,2.836,2.9503,2.9792,3.0139,3.1554,3.2267,3.2996,3.4442,3.5133,3.5504,3.5504,3.5504,3.5504,3.5504,3.5504,3.5504,3.5504,3.5504,3.5504,3.5504,3.5504,3.5504,3.5504,3.5504,3.5504,3.5504,3.5504,3.5504,3.5504,3.5504,3.5504,3.5504,3.5504,3.5504,3.5504,3.5504,3.5504,3.5504,3.5504,3.5504,3.5504,3.5504,3.5504,0.0,0.0,0.0,0.0,0.0,1.3381,0.0,0.0,0.0,0.0,0.0,0.0,0.0,0.0,0.0,0.0,0.0,0.0,0.0,0.0,0.0,0.0,0.0,0.0,0.0,0.0,1.6398,1.6488,1.6859,1.716,1.7398,1.7814,1.828,1.8832,1.8945,1.9221,1.9635,1.9748,1.9798,1.9798,1.9798,1.9798,1.9798,1.9798,1.9798,1.9861,2.0904,2.1407,2.1583,2.2558,2.3007,2.3108,2.3108,2.3108,2.3108,2.3108,2.3487,2.4079,2.4616,2.5143,2.5703,2.6298,2.6499,2.6499,2.6499,2.6499,2.6725,2.7795,2.8109,2.836,2.9503,2.9792,3.0273,3.2141,3.2593,3.3133,3.5083,3.5504,3.5504,3.5504,3.5504,3.5504,3.5504,3.5504,3.5504,3.5504,3.5504,3.5504,3.5504,3.5504,3.5504,3.5504,3.5504,3.5504,3.5504,3.5504,3.5504,3.5504,3.5504,3.5504,3.5504,3.5504,3.5504,3.5504,3.5504,3.5504,3.5504,3.5504,3.5504,3.5504,3.5504,3.557,0.0,0.0,0.0,0.0,1.4633,0.0,0.0,0.0,0.0,0.0,0.0,0.0,0.0,0.0,0.0,0.0,0.0,0.0,0.0,0.0,0.0,0.0,0.0,0.0,0.0,0.0,0.0,1.6463,1.612,1.6331,1.736,1.7461,1.7738,1.8267,1.8744,1.9033,1.9096,1.956,1.9798,1.9798,1.9798,1.9798,1.9798,1.9798,1.9798,1.9836,2.0503,2.1069,2.1557,2.2132,2.2671,2.3108,2.3108,2.3108,2.3108,2.3108,2.3487,2.4079,2.4616,2.5143,2.5703,2.6298,2.6499,2.6499,2.6499,2.6499,2.6725,2.7795,2.8109,2.836,2.9503,2.9792,3.0273,3.2141,3.2593,3.3133,3.5083,3.5504,3.5504,3.5504,3.5504,3.5504,3.5504,3.5504,3.5504,3.5504,3.5504,3.5504,3.5504,3.5504,3.5504,3.5504,3.5504,3.5504,3.5504,3.5504,3.5504,3.5504,3.5504,3.5504,3.5504,3.5504,3.5504,3.5504,3.5504,3.5504,3.5504,3.5504,3.5504,3.5504,3.5504,3.5847,0.0,0.0,0.0,0.0,0.0,0.0,0.0,0.0,1.253,0.0,0.0,0.0,0.0,0.0,0.0,0.0,0.0,0.0,0.0,0.0,0.0,0.0,0.0,0.0,0.0,0.0,0.0,0.0,0.0,1.5917,1.6394,1.671,1.7137,1.7726,1.7953,1.8368,1.8995,1.9221,1.9484,1.9798,1.9798,1.9798,1.9798,1.9798,1.9798,1.9836,2.044,2.1006,2.1545,2.2083,2.2621,2.3108,2.3108,2.3108,2.3108,2.3108,2.3487,2.4079,2.4616,2.5143,2.5703,2.6298,2.6499,2.6499,2.6499,2.6499,2.6725,2.7795,2.8109,2.836,2.9503,2.9792,3.0273,3.2141,3.2593,3.3133,3.5083,3.5504,3.5504,3.5504,3.5504,3.5504,3.5504,3.5504,3.5504,3.5504,3.5504,3.5504,3.5504,3.5504,3.5504,3.5504,3.5504,3.5504,3.5504,3.5504,3.5504,3.5504,3.5504,3.5504,3.5504,3.5504,3.5504,3.5504,3.5504,3.5504,3.5504,3.5504,3.5504,3.5504,3.5504,3.5894,0.0,0.0,0.0,0.0,0.0,0.0,0.0,0.0,0.0,0.0,0.0,0.0,0.0,0.0,0.0,0.0,0.0,0.0,0.0,0.0,0.0,0.0,0.0,0.0,0.0,0.0,0.0,0.0,0.0,0.0,1.568,1.607,1.6559,1.7135,1.7311,1.7765,1.8556,1.8857,1.9196,1.9585,1.9736,1.9798,1.9798,1.9798,1.9798,1.9823,2.0251,2.0779,2.1319,2.1857,2.2395,2.2895,2.3045,2.3108,2.3108,2.3108,2.3559,2.4264,2.4666,2.5272,2.5917,2.6361,2.6499,2.6499,2.6499,2.6499,2.6725,2.7795,2.8109,2.836,2.9503,2.9991,3.0595,3.2213,3.2802,3.3446,3.5148,3.5504,3.5504,3.5504,3.5504,3.5504,3.5504,3.5504,3.5504,3.5504,3.5504,3.5504,3.5504,3.5504,3.5504,3.5504,3.5504,3.5504,3.5504,3.5504,3.5504,3.5504,3.5504,3.5504,3.5504,3.5504,3.5504,3.5504,3.5504,3.5504,3.5504,3.5504,3.5504,3.5504,3.5504,3.6006,0.0,0.0,0.0,0.0,0.0,0.0,0.0,0.0,1.4044,0.0,0.0,0.0,0.0,0.0,0.0,0.0,0.0,0.0,0.0,0.0,0.0,0.0,0.0,0.0,0.0,0.0,0.0,0.0,0.0,0.0,1.563,1.5728,1.5969,1.65,1.7098,1.7423,1.7461,1.8481,1.9008,1.9033,1.9547,1.9798,1.9798,1.9798,1.9798,1.9798,1.9823,2.0175,2.078,2.1306,2.1845,2.2383,2.2895,2.3108,2.3108,2.3108,2.381,2.4779,2.4791,2.5523,2.6461,2.6487,2.6499,2.6499,2.6499,2.6499,2.6725,2.7795,2.8109,2.836,2.9503,3.0463,3.1407,3.2375,3.3293,3.4245,3.5279,3.5504,3.5504,3.5504,3.5504,3.5504,3.5504,3.5504,3.5504,3.5504,3.5504,3.5504,3.5504,3.5504,3.5504,3.5504,3.5504,3.5504,3.5504,3.5504,3.5504,3.5504,3.5504,3.5504,3.5504,3.5504,3.5504,3.5504,3.5504,3.5504,3.5504,3.5504,3.5504,3.5504,3.5504,3.6305,0.0,0.0,1.6416,1.5206,0.0,0.0,0.0,0.0,0.0,0.0,0.0,0.0,0.0,0.0,0.0,0.0,0.0,0.0,0.0,0.0,0.0,0.0,0.0,0.0,0.0,0.0,0.0,0.0,0.0,0.0,0.0,1.5844,1.6147,1.5982,1.6511,1.6999,1.741,1.8116,1.8656,1.9008,1.9535,1.9798,1.9798,1.9798,1.9798,1.9798,1.9798,2.0138,2.0729,2.1268,2.182,2.2357,2.2895,2.3108,2.3108,2.3108,2.3822,2.4904,2.5665,2.6185,2.6499,2.6499,2.6499,2.6499,2.6499,2.6499,2.6725,2.7795,2.8109,2.836,2.9503,3.0501,3.1444,3.2393,3.331,3.4279,3.5279,3.5504,3.5504,3.5504,3.5504,3.5504,3.5504,3.5504,3.5504,3.5504,3.5504,3.5504,3.5504,3.5504,3.5504,3.5504,3.5504,3.5504,3.5504,3.5504,3.5504,3.5504,3.5504,3.5504,3.5504,3.5504,3.5504,3.5504,3.5504,3.5504,3.5504,3.5504,3.5504,3.5504,3.6006,3.6798,1.6377,1.6352,0.0,0.0,1.533,0.0,0.0,0.0,0.0,0.0,0.0,0.0,0.0,0.0,0.0,0.0,0.0,0.0,0.0,0.0,0.0,0.0,0.0,0.0,0.0,0.0,1.3846,1.4278,1.4416,0.0,0.0,0.0,1.6147,1.5994,1.6323,1.6687,1.7085,1.7816,1.8368,1.8719,1.9447,1.9798,1.9798,1.9798,1.9798,1.9798,1.9798,2.0138,2.0729,2.1268,2.182,2.2357,2.2895,2.3108,2.3108,2.3108,2.3822,2.4954,2.6092,2.6499,2.6499,2.6499,2.6499,2.6499,2.6499,2.6637,2.6959,2.7846,2.8247,2.8686,2.9961,3.1002,3.1924,3.2873,3.3839,3.4708,3.5359,3.5504,3.5504,3.5504,3.5504,3.5504,3.5504,3.5504,3.5504,3.5504,3.5504,3.5504,3.5504,3.5504,3.5504,3.5504,3.5504,3.5504,3.5504,3.5504,3.5504,3.5504,3.5504,3.5504,3.5504,3.5504,3.5504,3.5504,3.5504,3.5504,3.5504,3.5504,3.562,3.5894,3.6117,3.6919]},{"header":{"parameterUnit":"m.s-1","parameterCategory":1,"la1":30.6,"la2":29.2853,"lo1":-89.7004,"lo2":-87.6739,"dy":0.0162,"dx":0.0183,"nx":112,"ny":82,"refTime":"2026-02-23T12:00:00:Z","depth":0,"parameterNumber":3,"parameterNumberName":"V-component_of_WINDS"},"data":[0.0,0.0,0.0,0.0,0.0,0.0,0.0,0.0,0.0,0.0,0.0,0.0,0.0,0.0,0.0,0.0,0.0,0.0,0.0,0.0,0.0,0.0,0.0,0.0,0.0,0.0,0.0,0.0,0.0,0.0,0.0,0.0,0.0,0.0,0.0,0.0,0.0,0.0,0.0,0.0,0.0,0.0,0.0,0.0,0.0,0.0,0.0,0.0,0.0,0.0,0.0,0.0,0.0,0.0,0.0,0.0,0.0,0.0,0.0,0.0,0.0,0.0,0.0,0.0,0.0,0.0,0.0,0.0,0.0,0.0,0.0,0.0,0.0,0.0,0.0,0.0,0.0,0.0,0.0,0.0,0.0,0.0,0.0,0.0,0.0,0.0,0.0,0.0,0.0,0.0,0.0,0.0,1.5216,1.6604,1.603,1.5895,1.4847,1.2493,0.0,0.0,0.0,0.0,0.0,0.0,0.0,0.0,0.0,0.0,0.0,0.0,0.0,0.0,0.0,0.0,0.0,0.0,0.0,0.0,0.0,0.0,0.0,0.0,0.0,0.0,0.0,0.0,0.0,0.0,0.0,0.0,0.0,0.0,0.0,0.0,0.0,0.0,0.0,0.0,0.0,0.0,0.0,0.0,0.0,0.0,0.0,0.0,0.0,0.0,0.0,0.0,0.0,0.0,0.0,0.0,0.0,0.0,0.0,0.0,0.0,0.0,0.0,0.0,0.0,0.0,0.0,0.0,0.0,0.0,0.0,0.0,0.0,0.0,0.0,0.0,0.0,0.0,0.0,0.0,0.0,0.0,0.0,0.0,0.0,0.0,0.0,0.0,0.0,0.0,0.0,0.0,0.0,0.0,0.0,0.0,0.0,0.0,0.0,0.0,0.0,0.0,0.0,0.0,1.1451,1.5862,1.7554,1.8314,1.8225,1.769,1.6513,1.449,0.0,0.0,0.0,0.0,0.0,0.0,0.0,0.0,0.0,0.0,0.0,0.0,0.0,0.0,0.0,0.0,0.0,0.0,0.0,0.0,0.0,0.0,0.0,0.0,0.0,0.0,0.0,0.0,0.0,0.0,0.0,0.0,0.0,0.0,0.0,0.0,0.0,0.0,0.0,0.0,0.0,0.0,0.0,0.0,0.0,0.0,0.0,0.0,0.0,0.0,0.0,0.0,0.0,0.0,0.0,0.0,0.0,0.0,0.0,0.0,0.0,0.0,0.0,0.0,0.0,0.0,0.0,0.0,0.0,0.0,0.0,0.0,0.0,0.0,0.0,0.0,0.0,0.0,0.0,0.0,0.0,0.0,0.0,0.0,0.0,0.0,0.0,0.0,0.0,0.0,0.0,0.0,0.0,0.0,0.0,0.0,0.0,0.0,0.0,0.0,0.0,0.0,0.0,1.1641,1.3908,1.7583,1.8733,1.9091,1.8732,1.8087,1.6861,1.4924,1.2646,0.0,0.0,0.0,0.0,0.0,0.0,0.0,0.0,0.0,0.0,0.0,0.0,0.0,0.0,0.0,0.0,0.0,0.0,0.0,0.0,0.0,0.0,0.0,0.0,0.0,0.0,0.0,0.0,0.0,0.0,0.0,0.0,0.0,0.0,0.0,0.0,0.0,0.0,0.0,0.0,0.0,0.0,0.0,0.0,0.0,0.0,0.0,0.0,0.0,0.0,0.0,0.0,0.0,0.0,0.0,0.0,0.0,0.0,0.0,0.0,0.0,0.0,0.0,0.0,0.0,0.0,0.0,0.0,0.0,0.0,0.0,0.0,0.0,0.0,0.0,0.0,0.0,0.0,0.0,0.0,0.0,0.0,0.0,0.0,0.0,0.0,0.0,0.0,0.0,0.0,0.0,0.0,0.0,0.0,0.0,0.0,0.0,0.0,0.0,0.0,0.0,0.0,1.4438,1.6202,1.8463,1.9295,1.9489,1.8972,1.8027,1.6772,1.514,1.2852,0.0,0.0,0.0,0.0,0.0,0.0,0.0,0.0,0.0,0.0,0.0,0.0,0.0,0.0,0.0,0.0,0.0,0.0,0.0,0.0,0.0,0.0,0.0,0.0,0.0,0.0,0.0,0.0,0.0,0.0,0.0,0.0,0.0,0.0,0.0,0.0,0.0,0.0,0.0,0.0,0.0,0.0,0.0,0.0,0.0,0.0,0.0,0.0,0.0,0.0,0.0,0.0,0.0,0.0,0.0,0.0,0.0,0.0,0.0,0.0,0.0,0.0,0.0,0.0,0.0,0.0,0.0,0.0,0.0,0.0,0.0,0.0,0.0,0.0,0.0,0.0,0.0,0.0,0.0,0.0,0.0,0.0,0.0,0.0,0.0,0.0,0.0,0.0,0.0,0.0,0.0,0.0,0.0,0.0,0.0,0.0,0.0,0.0,0.0,0.0,0.0,0.0,1.5157,1.7386,1.8561,1.9295,1.9678,1.9624,1.787,1.6465,1.5776,1.2673,0.0,0.0,0.0,0.0,0.0,0.0,0.0,0.0,0.0,0.0,0.0,0.0,0.0,0.0,0.0,0.0,0.0,0.0,0.0,0.0,0.0,0.0,0.0,0.0,0.0,0.0,0.0,0.0,0.0,0.0,0.0,0.0,0.0,0.0,0.0,0.0,0.0,0.0,0.0,0.0,0.0,0.0,0.0,0.0,0.0,0.0,0.0,0.0,0.0,0.0,0.0,0.0,0.0,0.0,0.0,0.0,0.0,0.0,0.0,0.0,0.0,0.0,0.0,0.0,0.0,0.0,0.0,0.0,0.0,0.0,0.0,0.0,0.0,0.0,0.0,0.0,0.0,0.0,0.0,0.0,0.0,0.0,0.0,0.0,0.0,0.0,0.0,0.0,0.0,0.0,0.0,0.0,0.0,0.0,0.0,0.0,0.0,0.0,0.0,0.0,0.0,0.0,1.551,1.7303,0.0,1.9549,1.9708,1.9708,1.8245,1.6891,1.5851,0.0,0.0,0.0,0.0,0.0,0.0,0.0,0.0,0.0,0.0,0.0,0.0,0.0,0.0,0.0,0.0,0.0,0.0,0.0,0.0,0.0,0.0,0.0,0.0,0.0,0.0,0.0,0.0,0.0,0.0,0.0,0.0,0.0,0.0,0.0,0.0,0.0,0.0,0.0,0.0,0.0,0.0,0.0,0.0,0.0,0.0,0.0,0.0,0.0,0.0,0.0,0.0,0.0,0.0,0.0,0.0,0.0,0.0,0.0,0.0,0.0,0.0,0.0,0.0,0.0,0.0,0.0,0.0,0.0,0.0,0.0,0.0,0.0,0.0,0.0,0.0,0.0,0.0,0.0,0.0,0.0,0.0,0.0,0.0,0.0,0.0,0.0,0.0,0.0,0.0,0.0,0.0,0.0,0.0,0.0,0.0,0.0,0.0,0.0,0.0,0.0,0.0,1.4313,1.5948,1.7413,0.0,1.9384,1.9295,1.9076,1.7864,1.6637,1.5552,0.0,0.0,0.0,0.0,0.0,0.0,0.0,0.0,0.0,0.0,0.0,0.0,0.0,0.0,0.0,0.0,0.0,0.0,0.0,0.0,0.0,0.0,0.0,0.0,0.0,0.0,0.0,0.0,0.0,0.0,0.0,0.0,0.0,0.0,0.0,0.0,0.0,0.0,0.0,0.0,0.0,0.0,0.0,0.0,0.0,0.0,0.0,0.0,0.0,0.0,0.0,0.0,0.0,0.0,0.0,0.0,0.0,0.0,0.0,0.0,0.0,0.0,0.0,0.0,0.0,0.0,0.0,0.0,0.0,0.0,0.0,0.0,0.0,0.0,0.0,0.0,0.0,0.0,0.0,0.0,0.0,0.0,0.0,0.0,0.0,0.0,0.0,0.0,0.0,0.0,0.0,0.0,0.0,0.0,0.0,0.0,0.0,0.0,0.0,0.0,0.0,0.0,1.4415,1.6492,1.7953,1.8627,1.8687,1.8424,1.7765,1.654,1.5522,0.0,0.0,0.0,0.0,0.0,0.0,0.0,0.0,0.0,0.0,0.0,0.0,0.0,0.0,0.0,0.0,0.0,0.0,0.0,0.0,0.0,0.0,0.0,0.0,0.0,0.0,0.0,0.0,0.0,0.0,0.0,0.0,0.0,0.0,0.0,0.0,0.0,0.0,0.0,0.0,0.0,0.0,0.0,0.0,0.0,0.0,0.0,0.0,0.0,0.0,0.0,0.0,0.0,0.0,0.0,0.0,0.0,0.0,0.0,0.0,0.0,0.0,0.0,0.0,0.0,0.0,0.0,0.0,0.0,0.0,0.0,0.0,0.0,0.0,0.0,0.0,0.0,0.0,0.0,0.0,0.0,0.0,0.0,0.0,0.0,0.0,0.0,0.0,0.0,0.0,0.0,0.0,0.0,0.0,0.0,0.0,0.0,0.0,0.0,0.0,0.0,0.0,0.0,0.0,1.5789,1.7249,1.7915,1.7989,1.79,1.7728,1.6928,1.5972,1.4864,0.0,0.0,0.0,0.0,0.0,0.0,0.0,0.0,0.0,0.0,0.0,0.0,0.0,0.0,0.0,0.0,0.0,0.0,0.0,0.0,0.0,0.0,0.0,0.0,0.0,0.0,0.0,0.0,0.0,0.0,0.0,0.0,0.0,0.0,0.0,0.0,0.0,0.0,0.0,0.0,0.0,0.0,0.0,0.0,0.0,0.0,0.0,0.0,0.0,0.0,0.0,0.0,0.0,0.0,0.0,0.0,0.0,0.0,0.0,0.0,0.0,0.0,0.0,0.0,0.0,0.0,0.0,0.0,0.0,0.0,0.0,0.0,0.0,0.0,0.0,0.0,0.0,0.0,0.0,0.0,0.0,0.0,0.0,0.0,0.0,0.0,0.0,0.0,0.0,0.0,0.0,0.0,0.0,0.0,0.0,0.0,0.0,0.0,0.0,0.0,0.0,0.0,1.3514,1.5504,1.6958,1.7631,1.7458,1.7294,1.7294,1.6712,1.5792,1.4483,0.0,0.0,0.0,0.0,0.0,0.0,0.0,0.0,0.0,0.0,0.0,0.0,0.0,0.0,0.0,0.0,0.0,0.0,0.0,0.0,0.0,0.0,0.0,0.0,0.0,0.0,0.0,0.0,0.0,0.0,0.0,0.0,0.0,0.0,0.0,0.0,0.0,0.0,0.0,0.0,0.0,0.0,0.0,0.0,0.0,0.0,0.0,0.0,0.0,0.0,0.0,0.0,0.0,0.0,0.0,0.0,0.0,0.0,0.0,0.0,0.0,0.0,0.0,0.0,0.0,0.0,0.0,0.0,0.0,0.0,0.0,0.0,0.0,0.0,0.0,0.0,0.0,0.0,0.0,0.0,0.0,0.0,0.0,0.0,0.0,0.0,0.0,0.0,0.0,0.0,0.0,0.0,0.0,0.0,0.0,0.0,0.0,0.0,0.0,0.0,0.0,0.0,1.3466,1.5476,1.6928,1.7541,1.7115,1.6764,1.6704,1.6263,1.538,1.3983,0.0,0.0,0.0,0.0,0.0,0.0,0.0,0.0,0.0,0.0,0.0,0.0,0.0,0.0,0.0,0.0,0.0,0.0,0.0,0.0,0.0,0.0,0.0,0.0,0.0,0.0,0.0,0.0,0.0,0.0,0.0,0.0,0.0,0.0,0.0,0.0,0.0,0.0,0.0,0.0,0.0,0.0,0.0,0.0,0.0,0.0,0.0,0.0,0.0,0.0,0.0,0.0,0.0,0.0,0.0,0.0,0.0,0.0,0.0,0.0,1.0403,0.0,0.0,0.0,0.0,0.0,0.0,0.0,0.0,0.0,0.0,0.0,0.0,0.0,0.0,0.0,0.0,0.0,0.0,0.0,0.0,0.0,0.0,0.0,0.0,0.0,0.0,0.0,0.0,0.0,0.0,0.0,0.0,0.0,0.0,0.0,0.0,0.0,0.0,0.0,0.0,0.0,1.3161,1.533,1.6749,1.6898,1.7264,1.7279,1.6741,1.7063,1.6525,1.4692,0.0,0.0,0.0,0.0,0.0,0.0,0.0,0.0,0.0,0.0,0.0,0.0,0.0,0.0,0.0,0.0,0.0,0.0,0.0,0.0,0.0,0.0,0.0,0.0,0.0,0.0,0.0,0.0,0.0,0.0,0.0,0.0,0.0,0.0,0.0,0.0,0.0,0.0,0.0,0.0,0.0,0.0,0.0,0.0,0.0,0.0,0.0,0.0,0.0,0.0,0.0,0.0,0.0,0.0,0.0,0.0,0.0,0.0,0.0,0.0,0.0,1.1508,0.0,0.0,0.0,0.0,0.0,0.0,0.0,0.0,0.0,0.0,0.0,0.0,0.0,0.0,0.0,0.0,0.0,0.0,0.0,0.0,0.0,0.0,0.0,0.0,0.0,0.0,0.0,0.0,0.0,0.0,0.0,0.0,0.0,0.0,0.0,0.0,0.0,0.0,0.0,0.0,1.398,1.5691,1.6943,1.7586,1.7675,1.769,1.7661,1.7384,1.6794,1.5785,1.442,0.0,0.0,0.0,0.0,0.0,0.0,0.0,0.0,0.0,0.0,0.0,0.0,0.0,0.0,0.0,0.0,0.0,0.0,0.0,0.0,0.0,0.0,0.0,0.0,0.0,0.0,0.0,0.0,0.0,0.0,0.0,0.0,0.0,0.0,0.0,0.0,0.0,0.0,0.0,0.0,0.0,0.0,0.0,0.0,0.0,0.0,0.0,0.0,0.0,0.0,0.0,0.0,0.0,0.0,0.0,1.5718,1.5668,1.5735,1.5828,1.4783,1.4003,1.3384,0.0,0.0,0.0,0.0,0.0,0.0,0.0,0.0,0.0,0.0,0.0,0.0,0.0,0.0,0.0,0.0,0.0,0.0,0.0,0.0,0.0,0.0,0.0,0.0,0.0,1.2525,1.1898,0.0,0.0,0.0,0.0,0.0,0.0,0.0,0.0,0.0,0.0,0.0,0.0,1.5212,1.6313,1.7339,1.8574,1.8311,1.823,1.8664,1.769,1.7002,1.6883,1.5092,1.4045,0.0,0.0,0.0,0.0,0.0,0.0,0.0,0.0,0.0,0.0,0.0,0.0,0.0,0.0,0.0,0.0,0.0,0.0,0.0,0.0,0.0,0.0,0.0,0.0,0.0,0.0,0.0,0.0,0.0,0.0,0.0,0.0,0.9935,0.9903,0.0,0.0,0.0,0.0,0.0,0.0,0.0,0.0,0.0,0.0,0.0,0.0,0.0,0.0,1.5409,1.6585,1.6936,1.6465,1.8134,1.8386,1.7418,1.8536,1.876,1.8269,1.8672,0.0,1.5386,1.4899,0.0,0.0,0.0,0.0,0.0,0.0,0.0,0.0,0.0,0.0,0.0,0.0,0.0,0.0,0.0,0.0,0.0,0.0,0.0,0.0,0.0,0.0,1.3804,1.4391,1.4182,1.3743,0.0,1.1215,0.9108,0.8476,0.0,0.0,0.0,0.0,0.0,0.0,0.0,0.0,1.6157,1.7121,1.7855,1.8619,1.9145,1.9235,1.8747,1.8544,1.8192,1.7601,1.6763,1.6165,1.5936,1.3657,0.0,0.0,0.0,0.0,0.0,0.0,0.0,0.0,0.0,0.0,0.0,0.0,0.0,0.0,0.0,0.0,0.0,0.0,0.0,0.0,0.0,0.0,0.0,0.0,0.0,0.0,0.0,0.0,0.0,0.9816,1.0594,1.0849,1.097,1.0636,0.0,0.0,0.0,0.0,0.0,0.0,0.0,0.0,0.0,1.5397,1.645,1.7304,1.7994,1.9286,1.98,1.9522,2.0408,2.0513,1.9965,2.0567,2.0662,2.0408,2.0702,2.0178,1.8978,1.7168,1.5769,1.4634,0.0,0.0,0.0,0.0,0.0,1.2139,1.3325,0.0,0.0,0.0,0.0,0.0,0.0,0.0,0.0,0.0,0.0,0.0,0.0,0.0,0.0,1.5667,1.5616,1.5363,1.5014,1.3696,1.2164,0.0,1.0053,0.9454,0.8665,0.0,0.0,0.0,0.0,0.0,1.7512,1.8072,1.8514,1.919,1.9519,1.9588,1.9295,1.8912,1.8574,1.8275,1.7631,1.7216,1.709,1.5596,1.414,0.0,0.0,0.0,0.0,0.0,0.0,0.0,0.0,0.0,0.0,0.0,0.0,0.0,0.0,0.0,0.0,0.0,0.0,0.0,0.0,0.0,0.0,0.0,0.0,0.0,0.0,0.0,0.0,1.1188,0.0,1.1956,1.2351,1.2089,0.0,0.0,0.0,0.0,0.0,0.0,1.5224,1.577,1.6488,1.7436,1.8768,1.9705,2.0217,2.1201,2.1695,2.1695,2.1695,2.1695,2.1695,2.1695,2.1695,2.1695,2.1695,2.1695,2.1505,1.8966,1.7564,1.6866,1.5377,1.4727,0.0,1.4847,1.4633,1.4451,1.5831,1.5867,1.527,1.4999,0.0,1.3899,1.2571,0.0,0.0,0.0,0.0,1.4024,1.4689,0.0,1.6007,1.641,1.65,1.638,1.593,1.5464,1.4619,0.0,1.2372,1.1944,1.0905,0.0,0.0,0.0,0.0,1.6491,1.8682,1.8807,1.8957,1.9633,1.9708,1.9708,1.9708,1.9091,1.8768,1.8957,1.817,1.784,1.8192,1.7102,1.5869,0.0,0.0,0.0,0.0,0.0,0.0,0.0,0.0,0.0,0.0,0.0,0.0,0.0,0.0,0.0,0.0,0.0,0.0,0.0,0.0,0.0,0.0,0.0,0.0,0.0,0.0,0.0,0.0,0.0,0.0,1.3623,1.4935,0.0,0.0,0.0,0.0,1.4659,1.5793,1.6525,1.6599,1.8418,1.9474,1.9549,2.0851,2.156,2.16,2.1675,2.1695,2.1695,2.1695,2.1695,2.1695,2.1695,2.1695,2.1695,2.1695,2.1695,2.159,2.0168,1.9335,1.8816,1.747,1.671,1.6433,1.6955,1.7112,1.7185,1.7771,1.7294,1.6504,1.6978,1.5853,1.4346,1.4701,1.3837,0.0,0.0,1.4864,1.5148,1.6134,1.6414,1.6473,1.6488,1.65,1.6489,1.6468,1.5994,1.5266,0.0,1.3628,1.329,1.3233,0.0,0.0,1.6201,1.6341,1.7084,1.9352,1.9091,1.8957,1.9633,1.9708,1.9708,1.9708,1.9091,1.8972,1.9609,1.8424,1.8267,1.9549,1.7962,1.6841,1.6374,1.4215,0.0,0.0,0.0,0.0,0.0,0.0,0.0,0.0,0.0,0.0,0.0,0.0,0.0,0.0,0.0,0.0,0.0,0.0,0.0,0.0,0.0,0.0,0.0,0.0,0.0,0.0,0.0,0.0,1.6319,1.6676,0.0,0.0,1.5557,1.6255,1.6645,1.7886,1.8813,1.9244,2.0363,2.0986,2.0986,2.262,2.3498,2.3498,2.4358,2.4792,2.4777,2.4391,2.4208,2.4208,2.4208,2.3973,2.3569,2.3569,2.3315,2.2872,2.1999,2.1282,2.069,1.9871,1.9469,1.9307,1.9159,1.911,1.9138,1.9315,1.8858,1.8132,1.7941,1.7391,1.6836,1.7012,1.6688,1.6377,1.6917,1.7063,1.7146,1.7494,1.759,1.759,1.759,1.759,1.759,1.759,1.7154,1.6752,1.6741,1.5691,1.4815,1.4824,1.5557,1.6481,1.7413,1.7804,1.8398,1.9552,1.9489,1.96,2.0264,1.9953,1.9878,2.0318,1.9735,1.9265,1.907,1.8604,1.8559,1.9031,1.8461,1.7945,1.7541,1.6083,1.4065,0.0,0.0,0.0,0.0,0.0,0.0,0.0,0.0,0.0,0.0,0.0,0.0,0.0,0.0,0.0,0.0,0.0,0.0,0.0,0.0,0.0,0.0,0.0,0.0,0.0,0.0,1.7059,1.7634,1.7835,1.7631,1.6856,1.7557,1.8393,1.9221,2.0103,2.0874,2.1507,2.2183,2.2653,2.2903,2.4338,2.5234,2.5475,2.6169,2.6501,2.649,2.5883,2.5603,2.5603,2.5603,2.5364,2.4933,2.4933,2.4691,2.4238,2.3845,2.3426,2.289,2.1652,2.1167,2.1126,2.077,2.063,2.0578,2.018,1.9729,1.9241,1.8448,1.8204,1.8239,1.8449,1.8506,1.8553,1.8784,1.8842,1.8796,1.8565,1.8506,1.8448,1.8251,1.8204,1.8263,1.846,1.8224,1.815,1.8729,1.7578,1.6573,1.6748,1.7584,1.8426,1.896,1.9349,1.9769,2.0316,2.0372,2.0543,2.0982,2.0632,2.0453,2.0683,2.0288,1.975,1.9076,1.8837,1.8807,1.9031,1.8822,1.8508,1.8112,1.6504,1.4691,1.2659,0.0,0.0,0.0,0.0,0.0,0.0,0.0,0.0,0.0,0.0,0.0,0.0,0.0,0.0,0.0,0.0,0.0,0.0,0.0,0.0,0.0,0.0,0.0,1.5397,1.7087,1.81,1.7497,1.8516,1.9152,1.8852,2.001,2.1243,2.2341,2.244,2.2687,2.3239,2.3904,2.4601,2.5343,2.6039,2.675,2.745,2.687,2.6585,2.6585,2.5955,2.5663,2.5663,2.5663,2.5648,2.5618,2.5618,2.5618,2.5603,2.5603,2.5603,2.5349,2.2817,2.1814,2.1814,2.1814,2.1809,2.1604,2.0383,1.9956,1.9773,1.8616,1.8254,1.8395,1.8981,1.9159,1.9317,1.9976,2.0153,1.9998,1.9351,1.9159,1.9015,1.8419,1.8278,1.8441,1.9025,1.9146,1.9349,2.002,1.9209,1.8579,1.907,1.9688,2.0312,2.0843,2.0916,0.0,2.1635,2.1695,2.171,2.1734,2.171,2.144,2.0787,2.0703,2.0413,1.9744,1.9076,1.9001,1.9669,1.9038,1.8486,1.8068,1.5496,1.3855,1.3223,0.0,0.0,0.0,0.0,0.0,0.0,0.0,0.0,0.0,0.0,0.0,0.0,0.0,0.0,0.0,0.0,0.0,0.0,0.0,0.0,0.0,0.0,1.7876,1.7589,1.8367,1.9256,2.0104,2.061,2.0994,2.1356,2.2063,2.264,2.2964,2.3433,2.3998,2.4684,2.5355,2.6062,2.6792,2.7899,2.8571,2.8788,2.8656,2.8592,2.8597,2.7551,2.7048,2.7048,2.7048,2.6779,2.633,2.633,2.6048,2.5603,2.5603,2.5603,2.5528,2.481,2.4537,2.4537,2.4537,2.4227,2.3544,2.1817,2.1213,2.099,1.9758,1.9697,2.0115,2.0284,2.0628,2.1014,2.1213,2.1248,2.1213,2.1025,2.0652,2.0296,2.0127,2.0091,2.0127,2.0296,2.0365,2.058,2.1142,2.1069,2.0794,2.0458,2.0567,2.0864,2.1395,0.0,0.0,2.1685,2.1695,2.1884,2.2363,2.1989,2.162,2.144,2.0982,0.0,0.0,1.9076,1.9001,1.9669,1.8673,1.7927,1.7521,1.6028,1.4792,0.0,0.0,0.0,0.0,0.0,0.0,0.0,0.0,0.0,0.0,0.0,0.0,0.0,0.0,0.0,0.0,0.0,0.0,0.0,0.0,0.0,0.0,1.7853,1.9694,1.9917,2.0369,2.1027,2.1972,2.2156,2.2465,2.31,2.3437,2.3964,2.4776,2.519,2.5826,2.6796,2.7221,2.778,2.8507,2.9254,2.9785,3.0096,2.9626,2.9395,2.9384,2.8186,2.76,2.76,2.76,2.739,0.0,2.7018,2.6794,2.645,2.645,2.645,0.0,0.0,0.0,0.0,0.0,2.5349,2.4822,2.3445,2.2969,2.28,2.1774,2.1699,2.2078,2.2351,2.2681,2.3017,2.3255,2.334,2.3209,2.268,2.2279,2.1862,2.1313,2.1186,2.1259,2.1537,2.1627,2.1818,2.2398,0.0,0.0,2.21,2.2031,2.2136,2.2446,2.2503,2.2503,0.0,2.2503,2.2648,2.3047,2.2737,2.2383,2.2139,2.15,0.0,0.0,0.0,1.9182,1.9363,0.0,0.0,0.0,0.0,0.0,0.0,0.0,0.0,0.0,1.1039,1.0293,0.0,0.0,0.0,0.0,0.0,0.0,0.0,0.0,0.0,0.0,0.0,0.0,0.0,0.0,0.0,0.0,1.9773,2.1135,2.2276,2.2769,2.3096,2.3301,2.3373,2.3706,2.4459,2.4569,2.5364,2.7182,2.7309,2.7837,0.0,0.0,0.0,0.0,0.0,3.0519,3.1095,2.9973,2.9361,2.9282,2.8137,2.76,2.76,2.76,2.76,2.76,2.76,2.76,2.76,2.76,2.76,2.748,2.6288,2.5839,2.5824,2.5749,2.5708,0.0,0.0,0.0,0.0,2.3917,2.3752,2.3917,2.4519,2.474,2.4912,2.5458,2.5603,2.5348,2.4212,2.3852,2.3504,2.2317,2.2035,2.2203,2.2807,2.2979,2.3198,2.3721,2.3834,2.3834,2.3834,2.3699,2.3595,2.3595,2.3595,0.0,2.3595,2.3595,2.3595,2.3595,0.0,0.0,2.2748,2.2154,2.153,2.0862,2.0188,1.9566,1.9027,1.8488,1.795,1.7405,1.6933,1.6688,1.6688,1.6145,1.5775,1.5449,1.2431,1.1334,0.0,0.0,0.0,0.0,0.0,0.0,0.0,0.0,0.0,0.0,0.0,0.0,0.0,0.0,0.0,1.9053,2.0974,2.2785,2.4238,2.4788,2.4772,2.4091,2.439,2.5143,2.6412,2.6883,2.7519,2.8569,2.8636,2.8993,2.9845,2.9888,0.0,3.0954,3.0997,3.0814,3.0477,2.9761,2.9157,2.8677,0.0,0.0,2.76,2.76,2.76,2.76,2.76,2.76,2.76,2.76,2.76,2.757,2.7315,2.721,2.7151,2.6614,2.6408,2.6245,2.5099,2.4691,2.4593,2.3917,2.4069,2.4531,2.4654,2.5047,0.0,2.5564,2.5603,2.5535,2.531,2.4869,2.4438,2.4187,2.4107,2.4158,2.4293,2.4705,2.506,2.5191,2.5199,2.5199,2.5199,2.4328,2.3595,2.3595,2.3595,2.3595,2.3595,2.3595,2.3595,2.3595,2.3595,2.3366,2.2748,2.2583,2.2213,2.1545,2.0885,2.0272,1.9736,1.9141,1.8569,1.8039,1.7924,1.7866,1.7866,1.7749,1.7433,1.6857,1.4682,1.3648,0.0,0.0,0.0,0.0,0.0,0.0,0.0,0.0,0.0,0.0,0.0,1.4263,0.0,0.0,1.9622,2.0886,2.2655,2.4191,2.5163,2.5798,2.5984,2.5506,2.5687,2.6275,2.7359,2.7657,2.8289,2.9448,2.955,2.9871,3.0615,3.0649,3.0818,3.12,3.0908,3.059,3.0293,2.9395,2.8791,2.8503,2.8233,2.7916,2.76,2.7959,2.7916,2.76,2.76,2.76,2.76,2.76,2.7809,2.8066,2.7735,2.76,2.7555,2.7225,2.7106,2.7011,2.6369,2.6152,2.6102,2.5759,2.5873,2.6152,2.6152,2.6364,2.6599,2.6599,2.6599,2.6524,2.6183,2.5874,2.5565,2.5229,2.5143,2.5143,2.5143,2.5384,2.5603,2.5603,2.5603,2.5603,2.5603,2.5035,2.4597,2.4597,2.4597,2.4477,2.4137,2.4107,2.3973,2.364,2.3595,2.3486,2.3171,2.2868,2.2265,2.1267,2.0883,2.0323,1.9489,1.9158,1.875,1.8204,1.8204,1.8204,1.8204,1.8204,1.8129,1.798,1.701,1.6082,0.0,0.0,0.0,0.0,0.0,0.0,0.0,0.0,1.3052,1.3769,1.5052,1.6547,1.8214,1.9843,2.1414,2.2907,2.4257,2.528,2.5746,2.6336,2.67,2.67,2.67,2.7046,2.7951,2.8027,2.8678,3.02,3.0301,3.0581,3.1166,3.12,3.12,3.12,3.088,3.057,3.032,2.949,2.8959,2.871,2.8776,2.8515,2.8004,2.8545,2.8425,2.7794,2.7794,2.7869,2.7989,2.7989,2.8306,2.8742,2.8199,2.7989,2.7959,2.769,2.76,2.76,2.76,2.76,2.76,2.76,2.76,2.76,2.76,2.76,2.76,2.76,2.76,2.748,2.6929,2.6794,2.6659,2.6123,2.5989,2.5989,2.5989,2.5989,2.5989,2.5989,2.5989,2.5989,2.5989,2.5989,2.5899,2.5633,2.5603,2.5408,2.4859,2.4787,2.459,2.4044,2.3984,2.3984,2.3984,2.3426,2.2604,2.1506,2.1098,2.0526,1.9693,1.9448,1.9188,1.8856,1.8844,1.8844,1.8844,1.8844,1.8981,1.9239,1.9239,1.8425,1.4568,0.0,0.0,1.2402,1.279,1.3489,0.0,0.0,1.559,1.6902,1.7794,1.8814,2.0432,2.1672,2.2964,2.4488,2.5188,2.578,2.6488,2.6649,2.67,2.67,2.67,2.7275,2.8722,2.8874,2.9474,3.097,3.1082,3.1116,3.12,3.12,3.12,3.12,3.1776,3.1533,3.0403,3.0907,3.0607,2.9476,2.9484,2.9443,2.9382,2.9443,2.9114,2.8487,2.8487,2.883,2.9382,2.9382,2.9413,2.9473,2.9398,2.9382,2.9219,2.8034,2.76,2.76,2.76,2.76,2.76,2.76,2.76,2.76,2.76,2.76,2.76,2.76,2.76,2.7585,2.751,2.748,2.7465,2.739,2.7375,2.7375,2.7375,2.7375,2.7375,2.7375,2.7375,2.7375,2.7375,2.7375,2.6973,2.5779,2.5603,2.5573,2.5498,2.5483,2.5453,2.5379,2.5379,2.5379,2.5379,2.4769,2.4291,2.4084,2.2505,2.1723,2.201,2.1053,2.0708,2.1118,2.113,2.113,2.113,2.113,2.1152,2.1181,2.1181,2.0395,1.6705,0.0,0.0,0.0,1.5207,1.5957,1.6361,1.7161,1.7976,1.8564,1.9416,2.0454,2.1785,2.2775,2.3835,0.0,2.5848,2.6353,2.6666,2.67,2.67,2.67,2.67,2.7309,2.8857,2.8993,2.9619,3.1099,3.12,3.12,3.12,3.12,3.12,3.12,3.1194,3.0938,3.0416,3.0398,3.0132,2.9593,2.9967,2.9937,2.9608,2.9967,2.9788,2.9189,2.9189,2.9548,3.0102,2.9743,2.9803,3.0102,2.9743,2.9593,2.9518,2.8964,2.8768,2.8768,2.8768,2.8768,2.8768,2.8768,2.8768,2.8768,2.8768,2.8768,2.8768,2.8768,2.847,2.8276,2.865,2.8184,2.7705,2.8081,2.7872,2.76,2.76,2.76,2.76,2.76,2.76,2.76,2.76,2.76,2.7405,2.6854,2.6764,2.6629,2.6228,2.6183,2.6033,2.5633,2.5603,2.5603,2.5603,2.4955,2.438,2.3994,2.2799,2.2049,2.1886,2.142,2.1268,2.1495,2.1507,2.1507,2.1507,2.1507,2.1656,2.197,2.197,2.1803,1.7715,0.0,0.0,1.6159,1.712,1.8043,1.7559,1.8685,1.9861,1.998,2.0615,2.151,2.2684,2.3541,0.0,2.5425,2.6218,2.67,2.67,2.67,2.67,2.67,2.67,2.7224,2.8544,2.8874,2.9619,3.1099,3.12,3.12,3.12,3.12,3.1206,3.1221,3.1056,3.0854,3.0687,3.0516,3.0322,3.0118,3.0567,3.0552,3.0133,3.0387,3.0357,3.0103,2.9937,3.0193,3.0732,3.0298,3.0387,3.0732,3.0298,3.0118,3.0118,3.0118,2.9907,2.9593,2.9593,2.9593,2.9593,2.9593,2.9593,2.9593,2.9593,2.9593,2.9593,2.9593,2.9249,2.8994,2.9473,2.8888,2.8274,2.8757,2.85,2.8154,2.8154,2.8154,2.8154,2.8154,2.8004,2.7884,2.7884,2.772,2.76,2.76,2.76,2.742,2.6929,2.6869,2.6689,2.6198,2.6153,2.6081,2.5873,2.5191,2.4497,2.3835,2.2924,2.2261,2.1948,2.1794,2.1782,2.1945,2.1945,2.1945,2.1945,2.1945,2.2146,2.2521,2.2521,2.2822,0.0,0.0,1.6696,1.6689,1.8012,1.9339,1.9316,2.0169,2.1054,2.1451,2.155,2.1957,2.316,2.3977,2.4729,2.5482,2.6218,2.67,2.67,2.67,2.67,2.67,2.67,2.6996,0.0,2.8535,2.9619,3.1099,3.12,3.12,3.12,3.12,3.1234,3.1292,3.1977,3.2031,3.1387,3.2127,3.2141,3.1451,3.1466,3.1466,3.1421,3.0792,3.0837,3.1406,3.0747,3.0852,3.1466,3.1451,3.1451,3.1466,3.1451,3.1451,3.1451,3.1451,3.0658,2.9593,2.9593,2.9593,2.9593,2.9593,2.9593,2.9593,2.9593,2.9593,2.9593,2.9593,2.9578,2.9563,2.9593,2.9577,2.9533,2.9563,2.9548,2.9533,2.9533,2.9533,2.9533,2.9533,2.9011,2.8562,2.8562,2.8021,2.76,2.76,2.76,2.7585,2.757,2.757,2.7555,2.754,2.754,2.7246,2.6532,2.5862,2.5134,2.4329,2.3102,2.2596,2.3037,2.2543,2.2521,2.3045,2.3058,2.3058,2.3058,2.3058,2.3058,2.3083,2.3083,2.3411,0.0,0.0,1.849,1.849,1.9483,2.0464,2.0464,2.0949,2.143,2.1567,2.1846,2.2339,2.3235,2.3603,2.4178,2.5398,2.5812,2.615,2.6632,2.67,2.67,2.67,2.67,0.0,0.0,0.0,0.0,3.0352,3.048,3.0683,3.1173,3.12,3.1224,3.1292,3.1579,3.1626,3.1394,3.1712,3.1754,3.1511,3.1511,3.1511,3.1496,3.1271,3.1286,3.1496,3.1256,3.1286,3.1511,3.1511,3.1511,3.1511,3.1511,3.1511,3.1511,3.1511,3.1227,3.0867,3.0867,3.0867,3.0867,3.0867,3.0867,3.0867,3.0867,3.0867,3.0867,3.0867,3.0552,3.0298,3.0747,3.0238,2.9698,3.0103,2.9892,2.9593,2.9593,2.9593,2.9593,2.9593,2.9413,2.9264,2.9264,2.9082,2.8933,2.8933,2.8169,2.76,2.76,2.76,2.76,2.76,2.76,2.7306,2.6563,2.5842,2.5122,2.4351,2.3406,2.2942,2.3083,2.2932,2.292,2.3108,2.3108,2.3108,2.3108,2.3108,2.3308,2.3703,2.3703,2.3988,0.0,1.8949,1.9673,1.9916,2.0599,2.1213,2.1213,2.1545,2.1846,2.1846,2.2092,2.2438,2.2919,2.3224,2.3806,2.5017,2.5439,2.5854,2.6598,2.67,2.67,2.67,2.6928,0.0,0.0,0.0,0.0,3.0014,3.0335,3.07,3.1173,3.12,3.1238,3.1329,3.1381,3.1404,3.1445,3.147,3.1511,3.1511,3.1511,3.1511,3.1511,3.1511,3.1511,3.1511,3.1511,3.1511,3.1511,3.1511,3.1511,3.1511,3.1511,3.1511,3.1511,3.1511,3.1511,3.1511,3.1511,3.1511,3.1511,3.1511,3.1511,3.1511,3.1511,3.1511,3.1511,3.1511,3.1182,3.0957,3.1391,3.0897,3.0372,3.0762,3.0553,3.0283,3.0283,3.0283,3.0283,3.0283,3.0102,2.9922,2.9922,2.9743,2.9593,2.9593,2.8873,2.8229,2.7991,2.775,2.76,2.76,2.7357,2.6917,2.6176,2.5425,2.4681,2.3914,2.3395,2.3108,2.3108,2.3108,2.3108,2.3108,2.3108,2.3108,2.3108,2.3308,2.3625,2.4004,2.4205,2.4566,1.9426,1.9759,2.0258,2.0902,2.136,2.1679,2.1664,2.2001,2.2324,2.2303,2.2296,2.2286,0.0,0.0,2.3586,2.4321,2.505,2.5812,2.6598,2.67,2.6716,0.0,0.0,0.0,0.0,0.0,0.0,3.0048,0.0,3.1157,3.12,3.1251,3.1305,3.1394,3.1437,3.1467,3.151,3.1511,3.1511,3.1511,3.1511,3.1511,3.1511,3.1511,3.1511,3.1511,3.1511,3.1511,3.1511,3.1511,3.1511,3.1511,3.1511,3.1511,3.1511,3.1511,3.1511,3.1511,3.1511,3.1511,3.1511,3.1511,3.1511,3.1511,3.1511,3.1511,3.1511,3.1511,3.1511,3.1511,3.1511,3.1511,3.1511,3.1511,3.1511,3.1511,3.1511,3.1511,3.1511,3.1511,3.0987,3.0538,3.0538,3.0087,2.9698,2.9698,2.9668,2.9413,2.8742,2.8096,2.769,2.7645,2.6987,2.6245,2.5481,2.4723,2.3958,2.314,2.3108,2.3108,2.3108,2.3133,2.3145,2.3145,2.317,2.3195,2.3195,2.375,2.4054,2.4092,2.4603,2.513,1.9859,2.0689,2.1607,2.1776,2.2306,2.2729,2.2485,2.2516,2.2537,2.2342,2.2296,2.2134,0.0,0.0,0.0,2.3569,2.4305,0.0,2.6513,2.67,0.0,0.0,0.0,2.8043,2.8645,2.9381,0.0,0.0,3.0267,3.0615,3.1166,3.1708,3.1831,3.141,3.1928,3.1993,3.1496,3.1511,3.1511,3.1511,3.1511,3.1511,3.1511,3.1511,3.1511,3.1511,3.1511,3.1511,3.1511,3.1511,3.1511,3.1511,3.1511,3.1511,3.1511,3.1511,3.1511,3.1511,3.1511,3.1511,3.1511,3.1511,3.1511,3.1511,3.1511,3.1511,3.1511,3.1511,3.1511,3.1511,3.1511,3.1511,3.1511,3.1511,3.1511,3.1511,3.1511,3.1511,3.1511,3.1511,3.1361,3.1241,3.1241,3.1122,3.1031,3.1031,3.0597,3.0057,2.9428,2.9202,2.8889,2.8395,2.7688,2.6742,2.5508,2.4723,2.3958,2.314,2.3108,2.3108,2.3108,2.3537,2.3763,2.3763,2.4164,2.4377,2.4377,2.4528,2.4791,2.5197,2.5335,2.5716,2.0926,2.1724,2.2572,2.2572,2.2881,2.3029,2.2373,2.2465,2.2432,2.1491,2.1576,0.0,0.0,0.0,0.0,0.0,0.0,0.0,2.6065,2.6496,2.6962,0.0,2.8111,0.0,2.9397,3.0159,3.0581,0.0,0.0,3.0768,3.1183,3.1904,3.2014,3.141,3.2132,3.2178,3.151,3.1511,3.1511,3.1511,3.1511,3.1511,3.1511,3.1511,3.1511,3.1511,0.0,3.1511,3.1511,3.1511,3.1511,3.1511,3.1511,3.1511,3.154,3.1824,3.1929,3.1974,3.2288,3.2377,3.2333,3.2034,3.2138,3.2318,3.2033,3.1929,3.1869,3.1585,3.1511,3.1511,3.1511,3.1511,3.1511,3.1511,3.1511,3.1511,3.1511,3.1511,3.1511,3.1511,3.1511,3.1511,3.1511,3.1511,3.1511,3.1511,3.1182,3.0822,3.0477,2.9952,2.9308,2.8556,2.7822,2.6889,2.5708,2.494,2.4328,2.3866,2.3847,2.3847,2.3847,2.4177,2.434,2.434,2.4653,2.4804,2.4804,2.5042,2.531,2.5598,2.5866,2.6185,2.2245,2.275,2.3277,2.3277,2.3277,2.3006,2.2023,2.2208,2.211,2.049,0.0,0.0,0.0,0.0,2.1444,2.2185,0.0,2.4762,2.5507,2.6234,2.7012,2.7858,2.8578,2.9322,3.0166,3.0818,3.12,3.12,3.12,3.12,3.12,3.1995,3.2208,3.1722,3.2133,3.2087,3.151,3.1511,3.1511,3.1511,3.1511,3.1511,3.1511,3.1511,3.1511,3.1511,0.0,0.0,3.1511,3.1511,3.1511,3.1511,3.1511,3.1511,3.1585,3.2258,3.2497,3.2602,3.326,3.3559,3.3514,3.2841,3.3036,3.3365,3.2691,3.2557,3.2482,3.1824,3.1705,3.1765,3.1765,3.1765,3.1765,3.1765,3.1765,3.1765,3.1765,3.1765,3.1735,3.1645,3.163,3.16,3.1525,3.1511,3.1511,3.1511,3.1511,3.1511,3.1511,3.0439,2.9375,2.8512,2.7658,2.6811,2.5968,2.5218,2.4804,2.4804,2.4804,2.4804,2.4804,2.4879,2.4904,2.4904,2.498,2.503,2.503,2.5485,2.5728,2.5724,2.626,2.6499,2.3009,2.3299,2.3604,2.3604,2.3604,2.3497,2.3035,2.2339,0.0,0.0,0.0,2.0166,2.0025,0.0,0.0,2.2185,0.0,0.0,0.0,0.0,0.0,0.0,0.0,0.0,0.0,0.0,0.0,0.0,0.0,0.0,3.12,3.2476,3.3212,3.322,3.2216,3.1634,3.1511,3.1511,3.1511,3.1511,3.1511,3.1511,3.1511,3.1511,3.1511,3.1511,0.0,0.0,3.1511,3.1511,3.1511,3.1511,3.1511,3.1511,3.1585,3.2258,3.2497,3.2602,3.326,3.3859,3.4218,3.3544,3.341,3.3365,3.2691,3.2901,3.3185,3.2512,3.2721,3.3155,3.3155,3.3155,3.3155,3.3155,3.3155,3.3155,3.3155,3.3155,3.2991,3.2437,3.2333,3.2153,3.16,3.1511,3.1511,3.1511,3.1511,3.1511,3.1511,3.072,2.9913,2.9203,2.7817,2.6666,2.5961,2.5218,2.4804,2.4804,2.4804,2.4804,2.4804,2.5234,2.546,2.546,2.5954,2.621,2.621,2.6298,2.6348,2.6348,2.6449,2.6499,2.3341,2.3703,2.3966,2.3966,2.3827,2.3417,2.2308,0.0,0.0,0.0,0.0,0.0,1.8932,0.0,0.0,0.0,0.0,0.0,0.0,0.0,0.0,0.0,0.0,0.0,0.0,0.0,0.0,0.0,0.0,0.0,3.12,3.1944,3.2557,3.3009,3.2031,3.1511,3.1511,3.1511,3.1511,3.1511,3.1511,3.1511,3.1511,3.1511,3.1511,3.1511,0.0,0.0,3.1511,3.1511,3.1511,3.1511,3.1511,3.1511,3.163,3.2647,3.3021,3.317,3.4188,3.4741,3.4966,3.4651,3.4532,3.4412,3.3739,3.3769,3.3874,3.3215,3.3245,3.3499,3.3499,3.3499,3.3499,3.3499,3.3499,3.3499,3.3499,3.3499,3.3395,3.308,3.3021,3.2916,3.2602,3.2542,3.2422,3.2064,3.2019,3.1752,3.0969,3.0133,2.95,2.9173,2.8055,2.7013,2.628,2.5881,2.5674,2.5674,2.5674,2.5674,2.5674,2.5929,2.6067,2.6067,2.6348,2.6499,2.6499,2.6499,2.6499,2.6499,2.6499,2.6499,2.3438,2.3868,2.418,2.4103,2.3837,2.3151,2.1508,2.1208,0.0,0.0,0.0,0.0,0.0,0.0,0.0,0.0,0.0,0.0,0.0,0.0,0.0,0.0,0.0,0.0,0.0,0.0,0.0,0.0,0.0,0.0,0.0,3.1419,3.174,3.2467,3.185,3.1511,3.1511,3.1511,3.1511,3.1511,3.1511,3.1511,3.1511,3.1511,3.1511,3.1511,0.0,0.0,0.0,3.1511,3.1511,3.1511,3.1511,3.1511,3.1645,3.2841,3.329,3.3455,3.4666,3.507,3.51,3.5235,3.5385,3.537,3.4697,3.4592,3.4578,3.3888,3.3829,3.3918,3.3918,3.3918,3.3918,3.3918,3.3918,3.3918,3.3918,3.3918,3.3888,3.3739,3.3724,3.3679,3.3514,3.3499,3.3275,3.2602,3.2497,3.1975,3.0491,2.9535,2.8939,2.8748,2.7953,2.7196,2.6538,2.6499,2.6499,2.6499,2.6499,2.6499,2.6499,2.6499,2.6499,2.6499,2.6499,2.6499,2.6499,2.6499,2.6499,2.6499,2.6499,2.6562,2.3248,2.362,2.4136,2.3816,2.3482,2.2953,2.1801,0.0,0.0,0.0,0.0,0.0,0.0,0.0,0.0,0.0,0.0,0.0,0.0,0.0,0.0,0.0,0.0,0.0,0.0,0.0,0.0,0.0,0.0,0.0,0.0,3.1691,3.174,3.2467,3.185,3.1511,3.1511,3.1511,3.1511,3.1511,3.1511,3.1511,3.1511,3.1511,3.1511,3.1511,0.0,0.0,0.0,3.1511,3.1511,3.1511,3.1511,3.1511,3.1585,3.2318,3.2587,3.2691,3.3425,3.3679,3.3784,3.4383,3.5012,3.537,3.4697,3.4937,3.5265,3.4592,3.4862,3.5325,3.5325,3.5325,3.5325,3.5325,3.5325,3.5325,3.5325,3.5325,3.513,3.4518,3.4398,3.4203,3.3589,3.3499,3.3275,3.2602,3.2497,3.1975,3.0491,2.9535,2.87,2.7887,2.7078,2.6572,2.6516,2.6499,2.6499,2.6499,2.6499,2.6499,2.6499,2.6499,2.6499,2.6499,2.6499,2.6499,2.6499,2.6499,2.6499,2.6499,2.6499,2.6763,2.2955,2.3447,2.3754,2.3172,2.2979,2.2442,2.068,0.0,0.0,0.0,1.8008,1.7884,1.8177,0.0,0.0,0.0,0.0,0.0,0.0,0.0,0.0,0.0,0.0,0.0,0.0,0.0,0.0,0.0,0.0,0.0,0.0,3.1723,3.1533,3.1832,3.1622,3.1511,3.1511,3.1511,3.1511,3.1511,3.1511,3.1511,3.1511,3.1511,3.1511,3.1511,0.0,0.0,0.0,3.1511,3.1511,3.1511,3.1511,3.1511,3.1585,3.2258,3.2766,3.32,3.3874,3.4383,3.4756,3.5011,3.528,3.5459,3.5175,3.5295,3.5444,3.5175,3.5295,3.5504,3.5504,3.5504,3.5504,3.5504,3.5504,3.5504,3.5504,3.5504,3.5429,3.5145,3.51,3.5011,3.4756,3.4696,3.4472,3.3799,3.3709,3.2946,3.0861,3.0292,2.9411,2.7653,2.6882,2.6499,2.6499,2.6499,2.6499,2.6499,2.6499,2.6499,2.6499,2.6499,2.6499,2.6499,2.6499,2.6499,2.6499,2.6809,2.6989,2.7002,2.7311,2.7587,2.2483,2.2837,2.2868,2.2247,2.2069,2.1569,0.0,0.0,0.0,1.8008,1.7564,1.7451,1.7755,1.8211,1.8888,0.0,0.0,0.0,0.0,0.0,0.0,0.0,0.0,0.0,0.0,0.0,0.0,0.0,0.0,0.0,0.0,0.0,3.1694,3.1721,3.1576,3.1511,3.1511,3.1511,3.1511,3.1511,3.1511,3.1511,3.1511,3.1511,3.1511,0.0,0.0,0.0,0.0,3.1511,3.1511,3.1511,3.1511,3.1511,3.157,3.2033,3.2632,3.3275,3.3739,3.4337,3.4936,3.513,3.519,3.5235,3.5444,3.5504,3.5504,3.5504,3.5504,3.5504,3.5504,3.5504,3.5504,3.5504,3.5504,3.5504,3.5504,3.5504,3.5504,3.5504,3.5504,3.5504,3.5504,3.5504,3.5168,3.4227,3.4092,3.32,3.0712,3.0392,2.9644,2.7736,2.7198,2.6914,2.6751,2.6738,2.6738,2.6738,2.6738,2.6738,2.6738,2.6738,2.6738,2.6738,2.6575,2.6575,2.6738,2.711,2.7386,2.7562,2.7921,2.8179,2.1817,2.1625,2.1337,2.1005,2.0727,2.0235,0.0,0.0,1.7492,1.776,1.7015,1.662,1.7625,1.7805,1.829,1.9765,0.0,0.0,0.0,0.0,0.0,0.0,0.0,0.0,0.0,0.0,0.0,0.0,0.0,0.0,0.0,0.0,3.2411,3.2492,3.185,3.1511,3.1511,3.1511,3.1511,3.1511,3.1511,3.1511,3.1511,3.1511,0.0,0.0,0.0,0.0,0.0,3.1511,3.1511,3.1511,3.1511,3.1511,3.1511,3.1511,3.1929,3.2512,3.2512,3.2961,3.3619,3.4293,3.4503,3.4622,3.5295,3.5504,3.5504,3.5504,3.5504,3.5504,3.5504,3.5504,3.5504,3.5504,3.5504,3.5504,3.5504,3.5504,3.5504,3.5504,3.5504,3.5504,3.5504,3.5504,3.4958,3.3351,3.3118,3.2227,2.9741,2.9399,2.9059,2.8188,2.8097,2.7871,2.7336,2.7286,2.7286,2.7286,2.7286,2.7286,2.7286,2.7286,2.7286,2.7286,2.6776,2.6763,2.7286,2.7298,2.7557,2.8097,2.8109,2.838,2.0588,2.0871,2.0868,2.0075,2.0016,1.9817,1.846,1.7758,1.7273,1.6864,1.6345,1.6132,1.6669,1.7141,1.8021,1.9717,0.0,0.0,0.0,0.0,0.0,0.0,0.0,0.0,0.0,0.0,0.0,0.0,0.0,0.0,0.0,0.0,3.1678,3.1749,3.2075,3.2007,3.1496,3.1511,3.1511,3.1511,3.1511,3.1511,3.1511,3.1511,0.0,0.0,0.0,0.0,0.0,3.1511,3.1511,3.1511,3.1511,3.1511,3.1511,3.1511,3.1914,3.2572,3.3021,3.3619,3.4293,3.4966,3.5175,3.522,3.5444,3.5504,3.5504,3.5504,3.5504,3.5504,3.5504,3.5504,3.5504,3.5504,3.5504,3.5504,3.5504,3.5504,3.5504,3.5504,3.5504,3.5504,3.5504,3.5504,3.509,3.39,3.3705,3.2958,3.0907,3.0626,3.0111,2.8793,2.9026,2.8875,2.7921,2.7846,2.7846,2.7846,2.7846,2.7846,2.7846,2.7846,2.7846,2.7846,2.767,2.767,2.7846,2.8204,2.8699,2.9264,2.9264,2.9352,0.0,1.975,1.9721,1.909,1.9053,1.8841,1.7524,1.6808,1.6284,1.5824,1.5268,1.5104,1.5969,1.6455,1.7326,1.9121,0.0,0.0,0.0,0.0,0.0,0.0,0.0,0.0,0.0,0.0,0.0,0.0,0.0,0.0,0.0,0.0,3.1594,3.1414,3.1896,3.194,3.1496,3.1511,3.1511,3.1511,3.1511,3.1511,3.1511,0.0,0.0,0.0,0.0,0.0,0.0,3.1511,3.1511,3.1511,3.1511,3.1511,3.1511,3.1511,3.1914,3.2557,3.2976,3.3559,3.4233,3.4891,3.5295,3.5504,3.5504,3.5504,3.5504,3.5504,3.5504,3.5504,3.5504,3.5504,3.5504,3.5504,3.5504,3.5504,3.5504,3.5504,3.5504,3.5504,3.5504,3.5504,3.5504,3.5197,3.4608,3.3619,3.3171,3.2393,3.0871,3.0677,3.0296,2.9334,2.9578,2.9503,2.88,2.8518,2.8392,2.8392,2.8392,2.8392,2.8392,2.8392,2.8392,2.8392,2.8191,2.821,2.8392,2.8969,2.944,2.9792,2.9792,2.9792,0.0,1.8237,1.8042,1.8021,1.7805,1.7367,1.6426,1.5435,0.0,1.4685,1.3927,1.3778,0.0,0.0,0.0,0.0,0.0,0.0,0.0,0.0,0.0,0.0,0.0,0.0,0.0,0.0,0.0,0.0,0.0,0.0,0.0,0.0,0.0,3.141,3.1396,3.1421,3.1496,3.1511,3.1511,3.1511,3.1511,3.1511,3.1511,0.0,0.0,0.0,0.0,0.0,0.0,3.1511,3.1511,3.1511,3.1511,3.1511,3.1511,3.1511,3.1884,3.2437,3.2482,3.2916,3.3544,3.4263,3.4952,3.5504,3.5504,3.5504,3.5504,3.5504,3.5504,3.5504,3.5504,3.5504,3.5504,3.5504,3.5504,3.5504,3.5504,3.5504,3.5504,3.5504,3.5504,3.5504,3.5504,3.4675,3.3688,3.2749,3.1797,3.0871,2.9914,2.9792,2.9792,2.9792,2.9792,2.9792,2.9792,2.9283,2.8969,2.8969,2.8969,2.8969,2.8969,2.8969,2.8969,2.8969,2.8467,2.8467,2.8969,2.9528,2.9792,2.9792,2.9792,2.9792,1.5331,0.0,1.6461,1.6262,1.6016,1.5756,0.0,0.0,0.0,0.0,0.0,0.0,0.0,0.0,0.0,0.0,0.0,0.0,0.0,0.0,0.0,0.0,0.0,0.0,0.0,0.0,0.0,0.0,0.0,0.0,0.0,0.0,0.0,3.1394,3.139,3.1423,3.1496,3.1511,3.1511,3.1511,3.1511,3.1511,3.1511,0.0,0.0,0.0,0.0,0.0,0.0,3.1511,3.1511,3.1511,3.1511,3.1511,3.1511,3.1511,3.16,3.1809,3.2318,3.2602,3.2931,3.4113,3.4952,3.5504,3.5504,3.5504,3.5504,3.5504,3.5504,3.5504,3.5504,3.5504,3.5504,3.5504,3.5504,3.5504,3.5504,3.5504,3.5504,3.5504,3.5504,3.5504,3.5504,3.4675,3.3688,3.2749,3.1797,3.0871,2.9914,2.9792,2.9792,2.9792,2.9792,2.9792,2.9792,2.9666,2.9591,2.9591,2.9591,2.9591,2.9591,2.9591,2.9591,2.9591,2.9465,2.9465,2.9591,2.9729,2.9792,2.9792,2.9792,2.9792,1.366,1.4826,1.6064,1.5916,1.5676,1.5347,0.0,0.0,0.0,0.0,0.0,0.0,0.0,0.0,0.0,0.0,0.0,0.0,0.0,0.0,0.0,0.0,0.0,0.0,0.0,0.0,0.0,0.0,0.0,0.0,0.0,0.0,0.0,0.0,3.0979,3.1153,3.1496,3.1511,3.1511,3.1511,3.1511,3.1511,3.1511,0.0,0.0,0.0,0.0,0.0,3.1511,3.1511,3.1511,3.1511,3.1511,3.1511,3.1511,3.1511,3.1511,3.1555,3.1914,3.2243,3.2617,3.335,3.4038,3.4637,3.4952,3.504,3.5116,3.5415,3.5504,3.5504,3.5504,3.5504,3.5504,3.5504,3.5504,3.5504,3.5504,3.5504,3.5504,3.5504,3.5504,3.5504,3.5504,3.431,3.3189,3.2664,3.1439,3.0362,2.9869,2.9792,2.9792,2.9792,2.9792,2.9792,2.9792,2.9792,2.9792,2.9792,2.9792,2.9792,2.9792,2.9792,2.9792,2.9792,2.9792,2.9792,2.9792,2.9792,2.9792,2.9792,2.9792,2.9792,1.2808,1.4287,1.5859,1.5681,1.5528,1.5177,0.0,0.0,0.0,0.0,0.0,0.0,0.0,0.0,0.0,0.0,0.0,0.0,0.0,0.0,0.0,0.0,0.0,0.0,0.0,0.0,0.0,0.0,0.0,0.0,0.0,0.0,0.0,0.0,3.0376,3.0674,3.1346,3.1451,3.1511,3.1511,3.1511,3.1511,3.1511,3.1511,0.0,0.0,0.0,0.0,3.1511,3.1511,3.1511,3.1511,3.1511,3.1511,3.1511,3.1511,3.1511,3.1511,3.1511,3.1929,3.2497,3.2497,3.2961,3.3634,3.4293,3.4503,3.4637,3.531,3.5504,3.5504,3.5504,3.5504,3.5504,3.5504,3.5504,3.5504,3.5504,3.5504,3.5504,3.5504,3.5504,3.5504,3.5504,3.4007,3.2784,3.2611,3.1119,2.9972,2.9811,2.9792,2.9792,2.9792,2.9792,2.9792,2.9792,2.9792,2.9792,2.9792,2.9792,2.9792,2.9792,2.9792,2.9792,2.9792,2.9792,2.9792,2.9792,2.9792,2.9792,2.9792,2.9792,2.9792,1.3373,1.3967,1.4286,1.338,1.3389,0.0,0.0,0.0,0.0,0.0,0.0,0.0,0.0,0.0,0.0,0.0,0.0,0.0,0.0,0.0,0.0,0.0,0.0,0.0,0.0,0.0,0.0,0.0,0.0,0.0,0.0,0.0,0.0,0.0,0.0,2.9983,3.0657,3.1226,3.1511,3.1511,3.1511,3.1511,3.1511,3.1511,3.1511,0.0,0.0,0.0,3.1511,3.1511,3.1511,3.1511,3.1511,3.1511,3.1511,3.1511,3.1511,3.1511,3.1511,3.1929,3.2497,3.2497,3.2961,3.3634,3.4293,3.4503,3.4637,3.531,3.5504,3.5504,3.5504,3.5504,3.5504,3.5504,3.5504,3.5504,3.5504,3.5504,3.5504,3.5504,3.5504,3.5504,3.5504,3.4543,3.3518,3.2731,3.1683,3.0696,2.9895,2.9792,2.9792,2.9792,2.9792,2.9792,2.9792,2.9792,2.9792,2.9792,2.9792,2.9792,2.9792,2.9792,2.9792,2.9792,2.9792,2.9792,2.9792,2.9792,2.9792,2.9792,2.9792,2.9792,1.2619,1.3026,1.334,1.2831,0.0,0.0,0.0,0.0,0.0,0.0,0.0,0.0,0.0,0.0,0.0,0.0,0.0,0.0,0.0,0.0,0.0,0.0,0.0,0.0,0.0,0.0,0.0,0.0,0.0,0.0,0.0,0.0,0.0,0.0,0.0,0.0,2.946,3.0148,3.0822,3.1511,3.1511,3.1511,3.1511,3.1511,3.1511,0.0,0.0,3.1511,3.1511,3.1511,3.1511,3.1511,3.1511,3.1511,3.1511,3.1511,3.1511,3.1511,3.1511,3.1705,3.1959,3.1959,3.2168,3.2602,3.3664,3.3964,3.4173,3.522,3.5504,3.5504,3.5504,3.5504,3.5504,3.5504,3.5504,3.5504,3.5504,3.5504,3.5504,3.5504,3.5504,3.5326,3.4774,3.3891,3.2925,3.1979,3.1044,3.0279,2.9869,2.9792,2.9792,2.9792,2.9792,2.9792,2.9792,2.9792,2.9792,2.9792,2.9792,2.9792,2.9792,2.9792,2.9792,2.9792,2.9792,2.9792,2.9792,2.9792,2.9792,2.9792,2.9792,2.9792,1.2021,1.2289,1.2639,0.0,0.0,0.0,0.0,0.0,0.0,0.0,0.0,0.0,0.0,0.0,0.0,0.0,0.0,0.0,0.0,0.0,0.0,0.0,0.0,0.0,0.0,0.0,0.0,0.0,0.0,0.0,0.0,0.0,0.0,0.0,0.0,0.0,2.8811,2.918,2.9924,3.1061,3.1061,3.1122,3.1271,3.1271,3.1346,3.1511,3.1511,3.1511,3.1511,3.1511,3.1511,3.1511,3.1511,3.1511,3.1511,3.1511,3.1511,3.1511,3.1511,3.1511,3.1511,3.1511,3.1615,3.1974,3.314,3.3604,3.3978,3.5175,3.5504,3.5504,3.5504,3.5504,3.5504,3.5504,3.5504,3.5504,3.5504,3.5504,3.5504,3.5504,3.5504,3.518,3.4177,3.3397,3.2522,3.137,3.0595,3.0056,2.983,2.9792,2.9792,2.9792,2.9792,2.9792,2.9792,2.9792,2.9792,2.9792,2.9792,2.9792,2.9792,2.9792,2.9792,2.9792,2.9792,2.9792,2.9792,2.9792,2.9792,2.9792,2.9792,2.9792,1.2454,1.231,0.0,0.0,0.0,0.0,0.0,0.0,0.0,0.0,0.0,0.0,0.0,0.0,0.0,0.0,0.0,0.0,0.0,0.0,0.0,0.0,0.0,0.0,0.0,0.0,0.0,0.0,0.0,0.0,0.0,0.0,0.0,0.0,0.0,0.0,2.9435,2.8934,2.9026,2.9743,2.9743,3.0042,3.0567,3.0567,3.0912,3.1511,3.1511,3.1511,3.1511,3.1511,3.1511,3.1511,3.1511,3.1511,3.1511,3.1511,3.1511,3.1511,3.1511,3.1511,3.1511,3.1511,3.1914,3.2557,3.3275,3.3934,3.4578,3.5295,3.5504,3.5504,3.5504,3.5504,3.5504,3.5504,3.5504,3.5504,3.5504,3.5504,3.5504,3.5504,3.5504,3.518,3.4177,3.3927,3.3293,3.1462,3.1143,3.0777,2.9914,2.9792,2.9792,2.9792,2.9792,2.9792,2.9792,2.9792,2.9792,2.9792,2.9792,2.9792,2.9792,2.9792,2.9792,2.9792,2.9792,2.9792,2.9792,2.9792,2.9792,2.9792,2.9792,2.9792,1.1942,1.2295,0.0,0.0,0.0,0.0,0.0,0.0,0.0,0.0,0.0,0.0,0.0,0.0,0.0,0.0,0.0,0.0,0.0,0.0,0.0,0.0,0.0,0.0,0.0,0.0,0.0,0.0,0.0,0.0,0.0,0.0,0.0,0.0,0.0,0.0,0.0,2.8276,2.8109,2.8364,2.9202,2.9713,2.9937,2.9937,3.0073,3.0342,3.0717,3.0882,3.0912,3.1331,3.1511,3.1511,3.1511,3.1511,3.1511,3.1511,3.1511,3.1511,3.1511,3.1511,3.1511,3.1511,3.1944,3.2632,3.3305,3.3964,3.4637,3.531,3.5504,3.5504,3.5504,3.5504,3.5504,3.5504,3.5504,3.5504,3.5504,3.5504,3.5504,3.5504,3.5504,3.5001,3.3411,3.3136,3.25,3.0614,3.0336,3.0196,2.985,2.9792,2.9792,2.9792,2.9792,2.9792,2.9792,2.9792,2.9792,2.9792,2.9792,2.9792,2.9792,2.9792,2.9792,2.9792,2.9792,2.9792,2.9792,2.9792,2.9792,2.9792,2.9792,2.9792,1.1257,1.185,0.0,0.0,0.0,0.0,0.0,0.0,0.0,0.0,0.0,0.0,0.0,0.0,0.0,0.0,0.0,0.0,0.0,0.0,0.0,0.0,0.0,0.0,0.0,0.0,0.0,0.0,0.0,0.0,0.0,0.0,0.0,0.0,0.0,0.0,0.0,2.791,2.76,2.76,2.8528,2.9082,2.9279,2.9279,2.9398,2.9623,3.0238,3.0507,3.0538,3.1212,3.1511,3.1511,3.1511,3.1511,3.1511,3.1511,3.1511,3.1511,3.1511,3.1511,3.1511,3.1511,3.1944,3.2632,3.3305,3.3964,3.4637,3.531,3.5504,3.5504,3.5504,3.5504,3.5504,3.5504,3.5504,3.5504,3.5504,3.5504,3.5504,3.5504,3.5246,3.4509,3.2873,3.2357,3.1609,3.0037,2.9792,2.9792,2.9792,2.9792,2.9792,2.9792,2.9792,2.9792,2.9792,2.9792,2.9792,2.9792,2.9792,2.9792,2.9792,2.9792,2.9792,2.9792,2.9792,2.9792,2.9792,2.9792,2.9792,2.9792,2.9792,2.9792,1.0479,1.0901,0.0,0.0,0.0,0.0,0.0,0.0,0.0,0.0,0.0,0.0,0.0,0.0,0.0,0.0,0.0,0.0,0.0,0.0,0.0,0.0,0.0,0.0,0.0,0.0,0.0,0.0,0.0,0.0,0.0,0.0,0.0,0.0,0.0,0.0,0.0,2.791,2.76,2.76,2.76,2.7959,2.8592,2.8592,2.8951,2.9608,3.0223,3.0477,3.0537,3.1212,3.1496,3.1511,3.1511,3.1511,3.1511,3.1511,3.1511,3.1511,3.1511,3.1511,3.1511,3.1511,3.1944,3.2617,3.329,3.3964,3.4637,3.5295,3.5504,3.5504,3.5504,3.5504,3.5504,3.5504,3.5504,3.5504,3.5504,3.5504,3.5504,3.5504,3.4691,3.3705,3.2767,3.1815,3.0889,2.9934,2.9792,2.9792,2.9792,2.9792,2.9792,2.9792,2.9792,2.9792,2.9792,2.9792,2.9792,2.9792,2.9792,2.9792,2.9792,2.9792,2.9792,2.9792,2.9792,2.9792,2.9792,2.9792,2.9792,2.9792,2.9792,2.9792,1.0188,0.0,0.0,0.0,0.0,0.0,0.0,0.0,0.0,0.0,0.0,0.0,0.0,0.0,0.0,0.0,0.0,0.0,0.0,0.0,0.0,0.0,0.0,0.0,0.0,0.0,0.0,0.0,0.0,0.0,0.0,0.0,0.0,0.0,0.0,0.0,0.0,0.0,2.76,2.76,2.76,2.7705,2.7899,2.7899,2.8004,2.8229,2.8876,2.916,2.925,3.0357,3.1062,3.1511,3.1511,3.1511,3.1511,3.1511,3.1511,3.1511,3.1511,3.1511,3.1511,3.1511,3.1944,3.2542,3.2736,3.3589,3.4533,3.4742,3.513,3.5504,3.5504,3.5504,3.5504,3.5504,3.5504,3.5504,3.5504,3.5504,3.5504,3.5504,3.4691,3.3705,3.2767,3.1815,3.0889,2.9934,2.9792,2.9792,2.9792,2.9792,2.9792,2.9792,2.9792,2.9792,2.9792,2.9792,2.9792,2.9792,2.9792,2.9792,2.9792,2.9792,2.9792,2.9792,2.9792,2.9792,2.9792,2.9792,2.9792,2.9792,2.9792,2.9792,0.0,0.0,0.0,0.0,0.0,0.0,0.0,0.0,0.0,0.0,0.0,0.0,0.0,0.0,0.0,0.0,0.0,0.0,0.0,0.0,0.0,0.0,0.0,0.0,0.0,0.0,0.0,0.0,0.0,0.0,0.0,0.0,0.0,0.0,0.0,0.0,0.0,0.0,0.0,2.76,2.76,2.76,2.76,2.76,2.76,2.763,2.8321,2.8891,2.9415,3.0178,3.0897,3.1511,3.1511,3.1511,3.1511,3.1511,3.1511,3.1511,3.1511,3.1511,3.1511,3.1511,3.1765,3.2153,3.2422,3.3066,3.3814,3.4338,3.4787,3.516,3.5429,3.5504,3.5504,3.5504,3.5504,3.5504,3.5504,3.5504,3.5504,3.5504,3.4392,3.3258,3.2713,3.1513,3.0457,2.9888,2.9792,2.9792,2.9792,2.9792,2.9792,2.9792,2.9792,2.9792,2.9792,2.9792,2.9792,2.9792,2.9792,2.9792,2.9792,2.9792,2.9792,2.9792,2.9792,2.9792,2.9792,2.9792,2.9792,2.9792,2.9792,2.9792,0.0,0.0,0.0,0.0,0.0,0.0,0.0,0.0,0.0,0.0,0.0,0.0,0.0,0.0,0.0,0.0,0.0,0.0,0.0,0.0,0.0,0.0,0.0,0.0,0.0,0.0,0.0,0.0,0.0,0.0,0.0,0.0,0.0,0.0,0.0,0.0,0.0,0.0,0.0,0.0,2.76,2.76,2.76,2.76,2.76,2.763,2.8246,2.9205,3.0328,3.0328,3.0747,3.1406,3.1406,3.1451,3.1511,3.1511,3.1511,3.1511,3.1511,3.1511,3.1511,3.1511,3.1511,3.1615,3.2228,3.2452,3.2781,3.4054,3.4443,3.4652,3.5325,3.5504,3.5504,3.5504,3.5504,3.5504,3.5504,3.5504,3.5472,3.5375,3.3871,3.2558,3.25,3.0996,2.9792,2.9792,2.9792,2.9792,2.9792,2.9792,2.9792,2.9792,2.9792,2.9792,2.9792,2.9792,2.9792,2.9792,2.9792,2.9792,2.9792,2.9792,2.9792,2.9792,2.9792,2.9792,2.9792,2.9792,2.9792,2.9792,2.9792,2.9792,0.0,0.0,0.0,0.0,0.0,0.0,0.0,0.0,0.0,0.0,0.0,0.0,0.0,0.0,0.0,0.0,0.0,0.0,0.0,0.0,0.0,0.0,0.0,0.0,0.0,0.0,0.0,0.0,0.0,0.0,0.0,0.0,0.0,0.0,0.0,0.0,2.7585,2.76,2.76,0.0,2.76,2.76,2.76,2.76,2.76,2.76,2.775,2.8261,2.9011,2.9011,2.9671,3.0731,3.0731,3.1046,3.1511,3.1511,3.1511,3.1511,3.1511,3.1511,3.1511,3.1511,3.1511,3.1525,3.1675,3.2079,3.2662,3.3484,3.4099,3.4652,3.5325,3.5504,3.5504,3.5504,3.5504,3.5504,3.5504,3.5504,3.5262,3.4476,3.3394,3.2375,3.1628,3.0558,2.9792,2.9792,2.9792,2.9792,2.9792,2.9792,2.9792,2.9792,2.9792,2.9792,2.9792,2.9792,2.9792,2.9792,2.9792,2.9792,2.9792,2.9792,2.9792,2.9792,2.9792,2.9792,2.9792,2.9792,2.9792,2.9792,2.9792,2.9792,0.0,0.0,0.0,0.0,0.0,0.0,0.0,0.0,0.0,0.0,0.0,0.0,0.0,0.0,0.0,0.0,0.0,0.0,0.0,0.0,0.0,0.0,0.0,0.0,0.0,0.0,0.0,0.0,0.0,0.0,0.0,0.0,0.0,0.0,0.0,0.0,2.7121,2.7435,2.76,2.76,2.76,2.76,2.76,2.76,2.76,2.76,2.76,2.7976,2.8607,2.8607,2.9175,3.0102,3.0387,3.0702,3.1061,3.1376,3.1511,3.1511,3.1511,3.1511,3.1511,3.1511,3.1511,3.1511,3.1511,3.175,3.2228,3.3215,3.3754,3.4263,3.525,3.5504,3.5504,3.5504,3.5504,3.5504,3.5504,3.5504,3.5213,3.4194,3.3241,3.2303,3.1352,3.0419,2.9792,2.9792,2.9792,2.9792,2.9792,2.9792,2.9792,2.9792,2.9792,2.9792,2.9792,2.9792,2.9792,2.9792,2.9792,2.9792,2.9792,2.9792,2.9792,2.9792,2.9792,2.9792,2.9792,2.9792,2.9792,2.9792,2.9792,2.9792,0.0,0.0,0.0,0.0,0.0,0.0,0.0,0.0,0.0,0.0,0.0,0.0,0.0,0.0,0.0,0.0,0.0,0.0,0.0,0.0,0.0,0.0,0.0,0.0,0.0,0.0,0.0,0.0,0.0,0.0,0.0,0.0,0.0,0.0,0.0,2.5737,2.6422,2.7091,2.742,2.742,2.754,2.76,2.76,2.76,2.76,2.76,2.76,2.7914,2.844,2.844,2.8816,2.9488,3.0103,3.0417,3.0582,3.1256,3.1511,3.1511,3.1511,3.1511,3.1511,3.1511,3.1511,3.1511,3.1511,3.1511,3.178,3.3125,3.3499,3.3799,3.516,3.5504,3.5504,3.5504,3.5504,3.5504,3.5504,3.5504,3.5149,3.3993,3.2873,3.1865,3.11,3.0317,2.9792,2.9792,2.9792,2.9792,2.9792,2.9792,2.9792,2.9792,2.9792,2.9792,2.9792,2.9792,2.9792,2.9792,2.9792,2.9792,2.9792,2.9792,2.9792,2.9792,2.9792,2.9792,2.9792,2.9792,2.9792,2.9792,2.9792,2.9792,0.0,0.0,0.0,0.0,0.0,0.0,0.0,0.0,0.0,0.0,0.0,0.0,0.0,0.0,0.0,0.0,0.0,0.0,0.0,0.0,0.0,0.0,0.0,0.0,0.0,0.0,0.0,0.0,0.0,0.0,0.0,0.0,2.3913,2.459,2.4694,0.0,2.5734,2.6393,2.6734,2.6734,2.733,2.76,2.76,2.76,2.76,2.76,2.76,2.7645,2.7735,2.7735,2.8126,2.8801,2.9458,3.0042,3.0582,3.1256,3.1511,3.1511,3.1511,3.1511,3.1511,3.1511,3.1511,3.1511,3.1511,3.1511,3.178,3.3125,3.3499,3.3799,3.516,3.5504,3.5504,3.5504,3.5504,3.5504,3.5504,3.5504,3.4953,3.3136,3.1378,3.012,2.9998,2.9876,2.9792,2.9792,2.9792,2.9792,2.9792,2.9792,2.9792,2.9792,2.9792,2.9792,2.9792,2.9792,2.9792,2.9792,2.9792,2.9792,2.9792,2.9792,2.9792,2.9792,2.9792,2.9792,2.9792,2.9792,2.9792,2.9792,2.9792,2.9792,0.0,0.0,0.0,0.0,0.0,0.0,0.0,0.0,0.0,0.0,0.0,0.0,0.0,0.0,0.0,0.0,0.0,0.0,0.0,0.0,0.0,0.0,0.0,0.0,0.0,0.0,0.0,0.0,0.0,0.0,0.0,2.3595,2.3744,2.4033,2.4395,0.0,2.5038,2.5693,2.6228,2.6599,2.6899,2.724,2.76,2.76,2.76,2.76,2.76,2.76,2.76,2.76,2.7779,2.8111,2.8785,2.9443,3.0058,3.0702,3.1182,3.1511,3.1511,3.1511,3.1511,3.1511,3.1511,3.1511,3.1511,3.1511,3.178,3.3125,3.3499,3.3799,3.516,3.5504,3.5504,3.5504,3.5504,3.5504,3.5504,3.5504,3.492,3.2978,3.1076,2.9792,2.9792,2.9792,2.9792,2.9792,2.9792,2.9792,2.9792,2.9792,2.9792,2.9792,2.9792,2.9792,2.9792,2.9792,2.9792,2.9792,2.9792,2.9792,2.9792,2.9792,2.9792,2.9792,2.9792,2.9792,2.9792,2.9792,2.9792,2.9792,2.9792,2.9792,0.0,0.0,0.0,0.0,0.0,0.0,0.0,0.0,0.0,0.0,0.0,0.0,0.0,0.0,0.0,0.0,0.0,0.0,0.0,0.0,0.0,0.0,0.0,0.0,0.0,0.0,0.0,0.0,0.0,0.0,2.3595,2.3595,2.3595,2.3595,2.4092,2.435,2.435,2.502,2.5678,2.6348,2.6524,2.6854,2.7345,2.7525,2.76,2.76,2.76,2.76,2.76,2.76,2.76,2.766,2.8336,2.8919,2.9413,3.0043,3.0673,3.1241,3.1241,3.1361,3.1511,3.1511,3.1511,3.1511,3.1511,3.1511,3.178,3.3125,3.3499,3.3799,3.516,3.5504,3.5504,3.5504,3.5504,3.5439,3.5166,3.4937,3.4274,3.2571,3.0921,2.9792,2.9792,2.9792,2.9792,2.9792,2.9792,2.9792,2.9792,2.9792,2.9792,2.9792,2.9792,2.9792,2.9792,2.9792,2.9792,2.9792,2.9792,2.9792,2.9792,2.9792,2.9792,2.9792,2.9792,2.9792,2.9792,2.9792,2.9792,2.9792,2.9792,2.9792,0.0,0.0,0.0,0.0,0.0,0.0,0.0,0.0,0.0,0.0,0.0,0.0,0.0,0.0,0.0,0.0,0.0,0.0,0.0,0.0,0.0,0.0,0.0,0.0,0.0,0.0,0.0,0.0,0.0,0.0,2.3595,2.3595,2.3595,2.3595,2.3625,2.3655,2.3655,2.4332,2.4993,2.5663,2.6303,2.6614,2.6674,2.7315,2.76,2.76,2.76,2.76,2.76,2.76,2.76,2.766,2.8336,2.8622,2.8727,2.9398,3.0042,3.0538,3.0538,3.0972,3.1511,3.1511,3.1511,3.1511,3.1511,3.1511,3.178,3.3125,3.3499,3.3799,3.516,3.5504,3.5504,3.5504,3.5504,3.5246,3.4279,3.3394,3.2464,3.1462,3.0476,2.9792,2.9792,2.9792,2.9792,2.9792,2.9792,2.9792,2.9792,2.9792,2.9792,2.9792,2.9792,2.9792,2.9792,2.9792,2.9792,2.9792,2.9792,2.9792,2.9792,2.9792,2.9792,2.9792,2.9792,2.9792,2.9792,2.9792,2.9792,2.9792,2.9792,2.9792,0.0,0.0,0.0,0.0,0.0,0.0,0.0,0.0,0.0,0.0,0.0,0.0,0.0,0.0,0.0,0.0,0.0,0.0,0.0,0.0,0.0,0.0,0.0,0.0,0.0,0.0,0.0,0.0,0.0,0.0,2.3595,2.3595,2.3595,2.3595,2.3595,2.3595,2.3595,2.3849,2.4287,2.4963,2.5199,2.5779,2.6614,2.6854,2.7195,2.76,2.76,2.76,2.76,2.76,2.76,2.7615,2.7857,2.8216,2.8622,2.8861,2.9609,3.0507,3.0507,3.0942,3.1511,3.1511,3.1511,3.1511,3.1511,3.1511,3.169,3.2602,3.317,3.3724,3.4622,3.5175,3.5504,3.5504,3.5003,3.4276,3.331,3.2837,3.2321,3.137,3.0438,2.9792,2.9792,2.9792,2.9792,2.9792,2.9792,2.9792,2.9792,2.9792,2.9792,2.9792,2.9792,2.9792,2.9792,2.9792,2.9792,2.9792,2.9792,2.9792,2.9792,2.9792,2.9792,2.9792,2.9792,2.9792,2.9792,2.9792,2.9792,2.9792,2.9792,2.9792,0.0,0.0,0.0,0.0,0.0,0.0,0.0,0.0,0.0,0.0,0.0,0.0,0.0,0.0,0.0,0.0,0.0,0.0,0.0,0.0,0.0,0.0,0.0,0.0,0.0,0.0,0.0,0.0,0.0,0.0,2.3595,2.3595,2.3595,2.3595,2.3595,2.3595,2.3595,2.3595,2.3808,2.4261,2.4485,2.5079,2.5932,2.6393,2.6839,2.7285,2.7495,2.76,2.76,2.76,2.76,2.76,2.76,2.7869,2.8248,2.8248,2.9071,3.0193,3.0193,3.0762,3.1511,3.1511,3.1511,3.1511,3.1511,3.1511,3.169,3.2587,3.3155,3.3724,3.4607,3.516,3.5504,3.5504,3.4725,3.3739,3.2802,3.2357,3.1852,3.0908,3.0222,2.9792,2.9792,2.9792,2.9792,2.9792,2.9792,2.9792,2.9792,2.9792,2.9792,2.9792,2.9792,2.9792,2.9792,2.9792,2.9792,2.9792,2.9792,2.9792,2.9792,2.9792,2.9792,2.9792,2.9792,2.9792,2.9792,2.9792,2.9792,2.9792,2.9792,2.9792,0.0,0.0,0.0,0.0,0.0,0.0,0.0,0.0,0.0,0.0,0.0,0.0,0.0,0.0,0.0,0.0,0.0,0.0,0.0,0.0,0.0,0.0,0.0,0.0,0.0,0.0,0.0,0.0,0.0,2.358,2.3595,2.3595,2.3595,2.3595,2.3595,2.3595,2.3595,2.3595,2.3595,2.361,2.4272,2.459,2.4638,2.5959,2.6569,2.6644,2.7285,2.7585,2.76,2.76,2.76,2.76,2.76,2.76,2.76,2.76,2.8453,2.9593,2.9593,3.0418,3.1511,3.1511,3.1511,3.1511,3.1511,3.1511,3.1765,3.308,3.3469,3.3799,3.516,3.5504,3.5504,3.5504,3.4708,3.3705,3.2802,3.1833,3.0876,2.9991,2.9792,2.9792,2.9792,2.9792,2.9792,2.9792,2.9792,2.9792,2.9792,2.9792,2.9792,2.9792,2.9792,2.9792,2.9792,2.9792,2.9792,2.9792,2.9792,2.9792,2.9792,2.9792,2.9792,2.9792,2.9792,2.9792,2.9792,2.9792,2.9792,2.9792,2.9792,2.9792,0.7168,0.0,0.0,0.0,0.0,0.0,0.0,0.0,0.0,0.0,0.0,0.0,0.0,0.0,0.0,0.0,0.0,0.0,0.0,0.0,0.0,0.0,0.0,0.0,0.0,0.0,0.0,0.0,0.0,2.3141,2.358,2.3595,2.3595,2.3595,2.3595,2.3595,2.3595,2.3595,2.3595,2.3595,2.3789,2.4137,2.4608,2.4978,2.5678,2.6614,2.6794,2.7151,2.76,2.76,2.76,2.76,2.76,2.76,2.76,2.76,2.8453,2.9593,2.9593,3.0418,3.1511,3.1511,3.1511,3.1511,3.1511,3.1511,3.1585,3.1944,3.2751,3.3799,3.516,3.5504,3.5504,3.5504,3.4209,3.2925,3.2646,3.1341,3.0101,2.985,2.9792,2.9792,2.9792,2.9792,2.9792,2.9792,2.9792,2.9792,2.9792,2.9792,2.9792,2.9792,2.9792,2.9792,2.9792,2.9792,2.9792,2.9792,2.9792,2.9792,2.9792,2.9792,2.9792,2.9792,2.9792,2.9792,2.9792,2.9792,2.9792,2.9792,2.9792,2.9792,0.0,0.0,0.0,0.0,0.0,0.0,0.0,0.0,0.0,0.0,0.0,0.0,0.0,0.0,0.0,0.0,0.0,0.0,0.0,0.0,0.0,0.0,0.0,0.0,0.0,0.0,0.0,0.0,2.2124,2.2558,2.3186,2.346,2.3595,2.3595,2.3595,2.3595,2.3595,2.3595,2.3595,2.3595,2.3595,2.3804,2.4197,2.4459,2.5023,2.5809,2.6363,2.6824,2.721,2.748,2.76,2.76,2.76,2.76,2.76,2.76,2.8453,2.9593,2.9593,3.0418,3.1511,3.1511,3.1511,3.1511,3.1511,3.1511,3.157,3.1839,3.2871,3.4158,3.522,3.5504,3.5392,3.497,3.3719,3.25,3.2105,3.0846,2.9792,2.9792,2.9792,2.9792,2.9792,2.9792,2.9792,2.9792,2.9792,2.9792,2.9792,2.9792,2.9792,2.9792,2.9792,2.9792,2.9792,2.9792,2.9792,2.9792,2.9792,2.9792,2.9792,2.9792,2.9792,2.9792,2.9792,2.9792,2.9792,2.9792,2.9792,2.9792,2.9792,2.9792,0.0,0.0,0.0,0.0,0.0,0.0,0.0,1.4847,0.0,0.0,0.0,0.0,0.0,0.0,0.0,0.0,0.0,0.0,0.0,0.0,0.0,0.0,0.0,0.0,0.0,0.0,0.0,2.0688,2.1311,2.1989,2.2658,2.3201,2.3535,2.3595,2.3595,2.3595,2.3595,2.3595,2.3595,2.3595,2.3595,2.3595,2.3625,2.4216,2.453,2.4668,2.5944,2.6524,2.6644,2.733,2.76,2.76,2.76,2.76,2.76,2.76,2.8408,2.9503,2.9563,3.0387,3.1406,3.1481,3.1511,3.1511,3.1511,3.1511,3.166,3.2407,3.3469,3.4563,3.531,3.5504,3.5246,3.4245,3.3276,3.2339,3.1407,3.0463,2.9792,2.9792,2.9792,2.9792,2.9792,2.9792,2.9792,2.9792,2.9792,2.9792,2.9792,2.9792,2.9792,2.9792,2.9792,2.9792,2.9792,2.9792,2.9792,2.9792,2.9792,2.9792,2.9792,2.9792,2.9792,2.9792,2.9792,2.9792,2.9792,2.9792,2.9792,2.9792,2.9792,2.9792,0.9236,0.99,1.0537,0.0,0.0,0.0,0.0,0.0,0.0,0.0,0.0,0.0,0.0,0.0,0.0,0.0,0.0,0.0,0.0,0.0,0.0,0.0,0.0,0.0,0.0,0.0,2.0124,2.0668,2.1311,2.1989,2.2658,2.2808,2.3107,2.358,2.3595,2.3595,2.3595,2.3595,2.3595,2.3595,2.3595,2.3595,2.3595,2.3744,2.4092,2.4638,2.5453,2.6093,2.6644,2.733,2.76,2.76,2.76,2.76,2.76,2.76,2.8111,2.8861,2.9413,3.0073,3.0777,3.1316,3.1511,3.1511,3.1511,3.1511,3.175,3.2961,3.3484,3.3963,3.519,3.5504,3.5246,3.4245,3.3276,3.2339,3.1407,3.0463,2.9792,2.9792,2.9792,2.9792,2.9792,2.9792,2.9792,2.9792,2.9792,2.9792,2.9792,2.9792,2.9792,2.9792,2.9792,2.9792,2.9792,2.9792,2.9792,2.9792,2.9792,2.9792,2.9792,2.9792,2.9792,2.9792,2.9792,2.9792,2.9792,2.9792,2.9792,2.9792,2.9792,2.9792,0.9982,1.0861,1.1826,1.2312,0.0,0.0,0.0,0.0,0.0,0.0,0.0,0.0,0.0,0.0,0.0,0.0,0.0,0.0,0.0,0.0,0.0,0.0,0.0,0.0,0.0,0.0,1.9833,2.0183,2.0817,2.135,2.168,2.2019,2.2483,2.3127,2.3141,2.3306,2.3595,2.3595,2.3595,2.3595,2.3595,2.3595,2.3595,2.3595,2.3778,2.4167,2.5169,2.5794,2.6183,2.7195,2.76,2.76,2.76,2.76,2.76,2.76,2.8021,2.8697,2.9368,2.9997,3.0598,3.1271,3.1511,3.1511,3.1511,3.1511,3.178,3.3125,3.3499,3.3799,3.516,3.5504,3.5133,3.3653,3.2943,3.2213,3.0809,3.0139,2.9792,2.9792,2.9792,2.9792,2.9792,2.9792,2.9792,2.9792,2.9792,2.9792,2.9792,2.9792,2.9792,2.9792,2.9792,2.9792,2.9792,2.9792,2.9792,2.9792,2.9792,2.9792,2.9792,2.9792,2.9792,2.9792,2.9792,2.9792,2.9792,2.9792,2.9792,2.9792,2.9792,2.9792,0.0,0.0,0.0,0.0,0.0,1.4812,0.0,0.0,0.0,0.0,0.0,0.0,0.0,0.0,0.0,0.0,0.0,0.0,0.0,0.0,0.0,0.0,0.0,0.0,0.0,0.0,1.9564,1.9693,2.007,2.0428,2.0688,2.1206,2.1809,2.2493,2.2628,2.2932,2.3426,2.3535,2.3595,2.3595,2.3595,2.3595,2.3595,2.3595,2.3595,2.367,2.4885,2.5483,2.5693,2.6914,2.748,2.76,2.76,2.76,2.76,2.76,2.8021,2.8697,2.9368,2.9997,3.0598,3.1271,3.1511,3.1511,3.1511,3.1511,3.178,3.3125,3.3499,3.3799,3.516,3.5504,3.5017,3.3066,3.2593,3.2101,3.0196,2.9792,2.9792,2.9792,2.9792,2.9792,2.9792,2.9792,2.9792,2.9792,2.9792,2.9792,2.9792,2.9792,2.9792,2.9792,2.9792,2.9792,2.9792,2.9792,2.9792,2.9792,2.9792,2.9792,2.9792,2.9792,2.9792,2.9792,2.9792,2.9792,2.9792,2.9792,2.9792,2.9792,2.9792,2.9682,0.0,0.0,0.0,0.0,1.5864,0.0,0.0,0.0,0.0,0.0,0.0,0.0,0.0,0.0,0.0,0.0,0.0,0.0,0.0,0.0,0.0,0.0,0.0,0.0,0.0,0.0,0.0,1.9663,1.9211,1.9441,2.0643,2.0763,2.1116,2.1794,2.2388,2.2733,2.2808,2.3336,2.3595,2.3595,2.3595,2.3595,2.3595,2.3595,2.3595,2.364,2.438,2.5053,2.5663,2.6405,2.7048,2.76,2.76,2.76,2.76,2.76,2.8021,2.8697,2.9368,2.9997,3.0598,3.1271,3.1511,3.1511,3.1511,3.1511,3.178,3.3125,3.3499,3.3799,3.516,3.5504,3.5017,3.3066,3.2593,3.2101,3.0196,2.9792,2.9792,2.9792,2.9792,2.9792,2.9792,2.9792,2.9792,2.9792,2.9792,2.9792,2.9792,2.9792,2.9792,2.9792,2.9792,2.9792,2.9792,2.9792,2.9792,2.9792,2.9792,2.9792,2.9792,2.9792,2.9792,2.9792,2.9792,2.9792,2.9792,2.9792,2.9792,2.9792,2.9792,2.9255,0.0,0.0,0.0,0.0,0.0,0.0,0.0,0.0,1.5387,0.0,0.0,0.0,0.0,0.0,0.0,0.0,0.0,0.0,0.0,0.0,0.0,0.0,0.0,0.0,0.0,0.0,0.0,0.0,0.0,1.8948,1.9516,1.9914,2.0423,2.1101,2.1395,2.1914,2.2688,2.2957,2.3246,2.3595,2.3595,2.3595,2.3595,2.3595,2.3595,2.364,2.4306,2.4978,2.5648,2.6318,2.6988,2.76,2.76,2.76,2.76,2.76,2.8021,2.8697,2.9368,2.9997,3.0598,3.1271,3.1511,3.1511,3.1511,3.1511,3.178,3.3125,3.3499,3.3799,3.516,3.5504,3.5017,3.3066,3.2593,3.2101,3.0196,2.9792,2.9792,2.9792,2.9792,2.9792,2.9792,2.9792,2.9792,2.9792,2.9792,2.9792,2.9792,2.9792,2.9792,2.9792,2.9792,2.9792,2.9792,2.9792,2.9792,2.9792,2.9792,2.9792,2.9792,2.9792,2.9792,2.9792,2.9792,2.9792,2.9792,2.9792,2.9792,2.9792,2.9792,2.9197,0.0,0.0,0.0,0.0,0.0,0.0,0.0,0.0,0.0,0.0,0.0,0.0,0.0,0.0,0.0,0.0,0.0,0.0,0.0,0.0,0.0,0.0,0.0,0.0,0.0,0.0,0.0,0.0,0.0,0.0,1.8687,1.9151,1.9735,2.0399,2.0608,2.1171,2.2139,2.2523,2.2927,2.3366,2.352,2.3595,2.3595,2.3595,2.3595,2.3625,2.4107,2.4709,2.5379,2.6048,2.6719,2.7345,2.7525,2.76,2.76,2.76,2.8139,2.8949,2.9428,3.0118,3.0852,3.1346,3.1511,3.1511,3.1511,3.1511,3.178,3.3125,3.3499,3.3799,3.516,3.531,3.4658,3.2996,3.2411,3.1774,3.0152,2.9792,2.9792,2.9792,2.9792,2.9792,2.9792,2.9792,2.9792,2.9792,2.9792,2.9792,2.9792,2.9792,2.9792,2.9792,2.9792,2.9792,2.9792,2.9792,2.9792,2.9792,2.9792,2.9792,2.9792,2.9792,2.9792,2.9792,2.9792,2.9792,2.9792,2.9792,2.9792,2.9792,2.9792,2.9028,0.0,0.0,0.0,0.0,0.0,0.0,0.0,0.0,1.6644,0.0,0.0,0.0,0.0,0.0,0.0,0.0,0.0,0.0,0.0,0.0,0.0,0.0,0.0,0.0,0.0,0.0,0.0,0.0,0.0,0.0,1.8627,1.8724,1.9031,1.9708,2.0354,2.0718,2.0763,2.2049,2.2703,2.2733,2.3321,2.3595,2.3595,2.3595,2.3595,2.3595,2.3625,2.4018,2.4683,2.5364,2.6033,2.6704,2.7345,2.76,2.76,2.76,2.8438,2.9563,2.9578,3.0417,3.1466,3.1496,3.1511,3.1511,3.1511,3.1511,3.178,3.3125,3.3499,3.3799,3.516,3.4774,3.3791,3.2837,3.1906,3.097,2.9998,2.9792,2.9792,2.9792,2.9792,2.9792,2.9792,2.9792,2.9792,2.9792,2.9792,2.9792,2.9792,2.9792,2.9792,2.9792,2.9792,2.9792,2.9792,2.9792,2.9792,2.9792,2.9792,2.9792,2.9792,2.9792,2.9792,2.9792,2.9792,2.9792,2.9792,2.9792,2.9792,2.9792,2.9792,2.8621,0.0,0.0,1.77,1.7706,0.0,0.0,0.0,0.0,0.0,0.0,0.0,0.0,0.0,0.0,0.0,0.0,0.0,0.0,0.0,0.0,0.0,0.0,0.0,0.0,0.0,0.0,0.0,0.0,0.0,0.0,0.0,1.8882,1.9265,1.9046,1.9699,2.0258,2.0703,2.159,2.2258,2.2703,2.3306,2.3595,2.3595,2.3595,2.3595,2.3595,2.3595,2.3973,2.4649,2.5319,2.6004,2.6674,2.7345,2.76,2.76,2.76,2.8453,2.9713,3.0553,3.1137,3.1511,3.1511,3.1511,3.1511,3.1511,3.1511,3.178,3.3125,3.3499,3.3799,3.516,3.4741,3.3756,3.282,3.1888,3.0932,2.9998,2.9792,2.9792,2.9792,2.9792,2.9792,2.9792,2.9792,2.9792,2.9792,2.9792,2.9792,2.9792,2.9792,2.9792,2.9792,2.9792,2.9792,2.9792,2.9792,2.9792,2.9792,2.9792,2.9792,2.9792,2.9792,2.9792,2.9792,2.9792,2.9792,2.9792,2.9792,2.9792,2.9792,2.9028,2.7887,1.6629,1.7439,0.0,0.0,1.7909,0.0,0.0,0.0,0.0,0.0,0.0,0.0,0.0,0.0,0.0,0.0,0.0,0.0,0.0,0.0,0.0,0.0,0.0,0.0,0.0,0.0,1.6016,1.6443,1.6712,0.0,0.0,0.0,1.9265,1.9061,1.9474,1.9908,2.0339,2.1255,2.1914,2.2358,2.3201,2.3595,2.3595,2.3595,2.3595,2.3595,2.3595,2.3973,2.4649,2.5319,2.6004,2.6674,2.7345,2.76,2.76,2.76,2.8453,2.9773,3.1061,3.1511,3.1511,3.1511,3.1511,3.1511,3.1511,3.1675,3.2093,3.3185,3.3664,3.4035,3.4771,3.4242,3.3276,3.2339,3.1384,3.0539,2.9934,2.9792,2.9792,2.9792,2.9792,2.9792,2.9792,2.9792,2.9792,2.9792,2.9792,2.9792,2.9792,2.9792,2.9792,2.9792,2.9792,2.9792,2.9792,2.9792,2.9792,2.9792,2.9792,2.9792,2.9792,2.9792,2.9792,2.9792,2.9792,2.9792,2.9792,2.9792,2.9592,2.9197,2.8858,2.7695]}]]